[[{"header":{"parameterUnit":"m.s-1","parameterCategory":1,"la1":30.6,"la2":28.766,"lo1":-90.7593,"lo2":-88.6598,"dy":0.0162,"dx":0.0183,"nx":116,"ny":114,"refTime":"2023-08-06T12:00:00:Z","depth":0,"parameterNumber":2,"parameterNumberName":"U-component_of_WINDS"},"data":[0.0,0.0,0.0,0.0,0.0,0.0,0.0,0.0,0.0,0.0,0.0,0.0,0.0,0.0,0.0,0.0,0.0,0.0,0.0,0.0,0.0,0.0,0.0,0.0,0.0,0.0,0.0,0.0,0.0,0.0,0.0,0.0,0.0,0.0,0.0,0.0,0.0,0.0,0.0,0.0,0.0,0.0,0.0,0.0,0.0,0.0,0.0,0.0,0.0,0.0,0.0,0.0,0.0,0.0,0.0,0.0,0.0,0.0,0.0,0.0,0.0,0.0,0.0,0.0,0.0,0.0,0.0,0.0,0.0,0.0,0.0,0.0,0.0,0.0,0.0,0.0,0.0,0.0,0.0,0.0,0.0,0.0,0.0,0.0,0.0,0.0,0.0,0.0,0.0,0.0,0.0,0.0,0.0,0.0,0.0,0.0,0.0,0.0,0.0,0.0,0.0,0.0,0.0,0.0,0.0,0.0,0.0,0.0,0.0,0.0,0.0,0.0,0.0,0.0,0.0,0.0,0.0,0.0,0.0,0.0,0.0,0.0,0.0,0.0,0.0,0.0,0.0,0.0,0.0,0.0,0.0,0.0,0.0,0.0,0.0,0.0,0.0,0.0,0.0,0.0,0.0,0.0,0.0,0.0,0.0,0.0,0.0,0.0,0.0,0.0,0.0,0.0,0.0,0.0,0.0,0.0,0.0,0.0,0.0,0.0,0.0,0.0,0.0,0.0,0.0,0.0,0.0,0.0,0.0,0.0,0.0,0.0,0.0,0.0,0.0,0.0,0.0,0.0,0.0,0.0,0.0,0.0,0.0,0.0,0.0,0.0,0.0,0.0,0.0,0.0,0.0,0.0,0.0,0.0,0.0,0.0,0.0,0.0,0.0,0.0,0.0,0.0,0.0,0.0,0.0,0.0,0.0,0.0,0.0,0.0,0.0,0.0,0.0,0.0,0.0,0.0,0.0,0.0,0.0,0.0,0.0,0.0,0.0,0.0,0.0,0.0,0.0,0.0,0.0,0.0,0.0,0.0,0.0,0.0,0.0,0.0,0.0,0.0,0.0,0.0,0.0,0.0,0.0,0.0,0.0,0.0,0.0,0.0,0.0,0.0,0.0,0.0,0.0,0.0,0.0,0.0,0.0,0.0,0.0,0.0,0.0,0.0,0.0,0.0,0.0,0.0,0.0,0.0,0.0,0.0,0.0,0.0,0.0,0.0,0.0,0.0,0.0,0.0,0.0,0.0,0.0,0.0,0.0,0.0,0.0,0.0,0.0,0.0,0.0,0.0,0.0,0.0,0.0,0.0,0.0,0.0,0.0,0.0,0.0,0.0,0.0,0.0,0.0,0.0,0.0,0.0,0.0,0.0,0.0,0.0,0.0,0.0,0.0,0.0,0.0,0.0,0.0,0.0,0.0,0.0,0.0,0.0,0.0,0.0,0.0,0.0,0.0,0.0,0.0,0.0,0.0,0.0,0.0,0.0,0.0,0.0,0.0,0.0,0.0,0.0,0.0,0.0,0.0,0.0,0.0,0.0,0.0,0.0,0.0,0.0,0.0,0.0,0.0,0.0,0.0,0.0,0.0,0.0,0.0,0.0,0.0,0.0,0.0,0.0,0.0,0.0,0.0,0.0,0.0,0.0,0.0,0.0,0.0,0.0,0.0,0.0,0.0,0.0,0.0,0.0,0.0,0.0,0.0,0.0,0.0,0.0,0.0,0.0,0.0,0.0,0.0,0.0,0.0,0.0,0.0,0.0,0.0,0.0,0.0,0.0,0.0,0.0,0.0,0.0,0.0,0.0,0.0,0.0,0.0,0.0,0.0,0.0,0.0,0.0,0.0,0.0,0.0,0.0,0.0,0.0,0.0,0.0,0.0,0.0,0.0,0.0,0.0,0.0,0.0,0.0,0.0,0.0,0.0,0.0,0.0,0.0,0.0,0.0,0.0,0.0,0.0,0.0,0.0,0.0,0.0,0.0,0.0,0.0,0.0,0.0,0.0,0.0,0.0,0.0,0.0,0.0,0.0,0.0,0.0,0.0,0.0,0.0,0.0,0.0,0.0,0.0,0.0,0.0,0.0,0.0,0.0,0.0,0.0,0.0,0.0,0.0,0.0,0.0,0.0,0.0,0.0,0.0,0.0,0.0,0.0,0.0,0.0,0.0,0.0,0.0,0.0,0.0,0.0,0.0,0.0,0.0,0.0,0.0,0.0,0.0,0.0,0.0,0.0,0.0,0.0,0.0,0.0,0.0,0.0,0.0,0.0,0.0,0.0,0.0,0.0,0.0,0.0,0.0,0.0,0.0,0.0,0.0,0.0,0.0,0.0,0.0,0.0,0.0,0.0,0.0,0.0,0.0,0.0,0.0,0.0,0.0,0.0,0.0,0.0,0.0,0.0,0.0,0.0,0.0,0.0,0.0,0.0,0.0,0.0,0.0,0.0,0.0,0.0,0.0,0.0,0.0,0.0,0.0,0.0,0.0,0.0,0.0,0.0,0.0,0.0,0.0,0.0,0.0,0.0,0.0,0.0,0.0,0.0,0.0,0.0,0.0,0.0,0.0,0.0,0.0,0.0,0.0,0.0,0.0,0.0,0.0,0.0,0.0,0.0,0.0,0.0,0.0,0.0,0.0,0.0,0.0,0.0,0.0,0.0,0.0,0.0,0.0,0.0,0.0,0.0,0.0,0.0,0.0,0.0,0.0,0.0,0.0,0.0,0.0,0.0,0.0,0.0,0.0,0.0,0.0,0.0,0.0,0.0,0.0,0.0,0.0,0.0,0.0,0.0,0.0,0.0,0.0,0.0,0.0,0.0,0.0,0.0,0.0,0.0,0.0,0.0,0.0,0.0,0.0,0.0,0.0,0.0,0.0,0.0,0.0,0.0,0.0,0.0,0.0,0.0,0.0,0.0,0.0,0.0,0.0,0.0,0.0,0.0,0.0,0.0,0.0,0.0,0.0,0.0,0.0,0.0,0.0,0.0,0.0,0.0,0.0,0.0,0.0,0.0,0.0,0.0,0.0,0.0,0.0,0.0,0.0,0.0,0.0,0.0,0.0,0.0,0.0,0.0,0.0,0.0,0.0,0.0,0.0,0.0,0.0,0.0,0.0,0.0,0.0,0.0,0.0,0.0,0.0,0.0,0.0,0.0,0.0,0.0,0.0,0.0,0.0,0.0,0.0,0.0,0.0,0.0,0.0,0.0,0.0,0.0,0.0,0.0,0.0,0.0,0.0,0.0,0.0,0.0,0.0,0.0,0.0,0.0,0.0,0.0,0.0,0.0,0.0,0.0,0.0,0.0,0.0,0.0,0.0,0.0,0.0,0.0,0.0,0.0,0.0,0.0,0.0,0.0,0.0,0.0,0.0,0.0,0.0,0.0,0.0,0.0,0.0,0.0,0.0,0.0,0.0,0.0,0.0,0.0,0.0,0.0,0.0,0.0,0.0,0.0,0.0,0.0,0.0,0.0,0.0,0.0,0.0,0.0,0.0,0.0,0.0,0.0,0.0,0.0,0.0,0.0,0.0,0.0,0.0,0.0,0.0,0.0,0.0,0.0,0.0,0.0,0.0,0.0,0.0,0.0,0.0,0.0,0.0,0.0,0.0,0.0,0.0,0.0,0.0,0.0,0.0,0.0,0.0,0.0,0.0,0.0,0.0,0.0,0.0,0.0,0.0,0.0,0.0,0.0,0.0,0.0,0.0,0.0,0.0,0.0,0.0,0.0,0.0,0.0,0.0,0.0,0.0,0.0,0.0,0.0,0.0,0.0,0.0,0.0,0.0,0.0,0.0,0.0,0.0,0.0,0.0,0.0,0.0,0.0,0.0,0.0,0.0,0.0,0.0,0.0,0.0,0.0,0.0,0.0,0.0,0.0,0.0,0.0,0.0,0.0,0.0,0.0,0.0,0.0,0.0,0.0,0.0,0.0,0.0,0.0,0.0,0.0,0.0,0.0,0.0,0.0,0.0,0.0,0.0,0.0,0.0,0.0,0.0,0.0,0.0,0.0,0.0,0.0,0.0,0.0,0.0,0.0,0.0,0.0,0.0,0.0,0.0,0.0,0.0,0.0,0.0,0.0,0.0,0.0,0.0,0.0,0.0,0.0,0.0,0.0,0.0,0.0,0.0,0.0,0.0,0.0,0.0,0.0,0.0,0.0,0.0,0.0,0.0,0.0,0.0,0.0,0.0,0.0,0.0,0.0,0.0,0.0,0.0,0.0,0.0,0.0,0.0,0.0,0.0,0.0,0.0,0.0,0.0,0.0,0.0,0.0,0.0,0.0,0.0,0.0,0.0,0.0,0.0,0.0,0.0,0.0,0.0,0.0,0.0,0.0,0.0,0.0,0.0,0.0,0.0,0.0,0.0,0.0,0.0,0.0,0.0,0.0,0.0,0.0,0.0,0.0,0.0,0.0,0.0,0.0,0.0,0.0,0.0,0.0,0.0,0.0,0.0,0.0,0.0,0.0,0.0,0.0,0.0,0.0,0.0,0.0,0.0,0.0,0.0,0.0,0.0,0.0,0.0,0.0,0.0,0.0,0.0,0.0,0.0,0.0,0.0,0.0,0.0,0.0,0.0,0.0,0.0,0.0,0.0,0.0,0.0,0.0,0.0,0.0,0.0,0.0,0.0,0.0,0.0,0.0,0.0,0.0,0.0,0.0,0.0,0.0,0.0,0.0,0.0,0.0,0.0,0.0,0.0,0.0,0.0,0.0,0.0,0.0,0.0,0.0,0.0,0.0,0.0,0.0,0.0,0.0,0.0,0.0,0.0,0.0,0.0,0.0,0.0,0.0,0.0,0.0,0.0,0.0,0.0,0.0,0.0,0.0,0.0,0.0,0.0,0.0,0.0,0.0,0.0,0.0,0.0,0.0,0.0,0.0,0.0,0.0,0.0,0.0,0.0,0.0,0.0,0.0,0.0,0.0,0.0,0.0,0.0,0.0,0.0,0.0,0.0,0.0,0.0,0.0,0.0,0.0,0.0,0.0,0.0,0.0,0.0,0.0,0.0,0.0,0.0,0.0,0.0,0.0,0.0,0.0,0.0,0.0,0.0,0.0,0.0,0.0,0.0,0.0,0.0,0.0,0.0,0.0,0.0,0.0,0.0,0.0,0.0,0.0,0.0,0.0,0.0,0.0,0.0,0.0,0.0,0.0,0.0,0.0,0.0,0.0,0.0,0.0,0.0,0.0,0.0,0.0,0.0,0.0,0.0,0.0,0.0,0.0,0.0,0.0,0.0,0.0,0.0,0.0,0.0,0.0,0.0,0.0,0.0,0.0,0.0,0.0,0.0,0.0,0.0,0.0,0.0,0.0,0.0,0.0,0.0,0.0,0.0,0.0,0.0,0.0,0.0,0.0,0.0,0.0,0.0,0.0,0.0,0.0,0.0,0.0,0.0,0.0,0.0,0.0,0.0,0.0,0.0,0.0,0.0,0.0,0.0,0.0,0.0,0.0,0.0,0.0,0.0,0.0,0.0,0.0,0.0,0.0,0.0,0.0,0.0,0.0,0.0,0.0,0.0,0.0,0.0,0.0,0.0,0.0,0.0,0.0,0.0,0.0,0.0,0.0,0.0,0.0,0.0,0.0,0.0,0.0,0.0,0.0,0.0,0.0,0.0,0.0,0.0,0.0,0.0,0.0,0.0,0.0,0.0,0.0,0.0,0.0,0.0,0.0,0.0,0.0,0.0,0.0,0.0,0.0,0.0,0.0,0.0,0.0,0.0,0.0,0.0,0.0,0.0,0.0,0.0,0.0,0.0,0.0,0.0,0.0,0.0,0.0,0.0,0.0,0.0,0.0,0.0,0.0,0.0,0.0,0.0,0.0,0.0,0.0,0.0,0.0,0.0,0.0,0.0,0.0,0.0,0.0,0.0,0.0,0.0,0.0,0.0,0.0,0.0,0.0,0.0,0.0,0.0,0.0,0.0,0.0,0.0,0.0,0.0,0.0,0.0,0.0,0.0,0.0,0.0,0.0,0.0,0.0,0.0,0.0,0.0,0.0,0.0,0.0,0.0,0.0,0.0,0.0,0.0,0.0,0.0,0.0,0.0,0.0,0.0,0.0,0.0,0.0,0.0,0.0,0.0,0.0,0.0,0.0,0.0,-0.0272,0.0,0.0,0.0,0.0,0.0,0.0,0.0,0.0,0.0,0.0,0.0,0.0,0.0,0.0,0.0,0.0,0.0,0.0,0.0,0.0,0.0,0.0,0.0,0.0,0.0,0.0,0.0,0.0,0.0,0.0,0.0,0.0,0.0,0.0,0.0,0.0,0.0,0.0,0.0,0.0,0.0,0.0,0.0,0.0,0.0,0.0,0.0,0.0,0.0,0.0,0.0,0.0,0.0,0.0,0.0,0.0,0.0,0.0,0.0,0.0,0.0,0.0,0.0,0.0,0.0,0.0,0.0,0.0,0.0,0.0,0.0,0.0,0.0,0.0,0.0,0.0,0.0,0.0,0.0,0.0,0.0,0.0,0.0,0.0,0.0,0.0,0.0,0.0,0.0,0.0,0.0,0.0,0.0,0.0,0.0,0.0,0.0,0.0,0.0,0.0,0.0,0.0,0.0,0.0,0.0,0.0,0.0,0.0,0.0,0.0,0.0,0.0,0.0,0.0,0.0,0.0,-0.0511,0.0,0.0,0.0,0.0,0.0,0.0,0.0,0.0,0.0,0.0,0.0,0.0,0.0,0.0,0.0,0.0,0.0,0.0,0.0,0.0,0.0,0.0,0.0,0.0,0.0,0.0,0.0,0.0,0.0,0.0,0.0,0.0,0.0,0.0,0.0,0.0,0.0,0.0,0.0,0.0,0.0,0.0,0.0,0.0,0.0,0.0,0.0,0.0,0.0,0.0,0.0,0.0,0.0,0.0,0.0,0.0,0.0,0.0,0.0,0.0,0.0,0.0,0.0,0.0,0.0,0.0,0.0,0.0,0.0,0.0,0.0,0.0,0.0,0.0,0.0,0.0,0.0,0.0,0.0,0.0,0.0,0.0,0.0,0.0,0.0,0.0,0.0,0.0,0.0,0.0,0.0,0.0,0.0,0.0,0.0,0.0,0.0,0.0,0.0,0.0,0.0,0.0,0.0,0.0,0.0,0.0,0.0,0.0,0.4332,0.253,0.0999,-0.0131,-0.0713,-0.0822,-0.1048,-0.1111,-0.0932,0.0,0.0,0.0,0.0,0.0,0.0,0.0,0.0,0.0,0.0,0.0,0.0,0.0,0.0,0.0,0.0,0.0,0.0,0.0,0.0,0.0,0.0,0.0,0.0,0.0,0.0,0.0,0.0,0.0,0.0,0.0,0.0,0.0,0.0,0.0,0.0,0.0,0.0,0.0,0.0,0.0,0.0,0.0,0.0,0.0,0.0,0.0,0.0,0.0,0.0,0.0,0.0,0.0,0.0,0.0,0.0,0.0,0.0,0.0,0.0,0.0,0.0,0.0,0.0,0.0,0.0,0.0,0.0,0.0,0.0,0.0,0.0,0.0,0.0,0.0,0.0,0.0,0.0,0.0,0.0,0.0,0.0,0.0,0.0,0.0,0.0,0.0,0.2013,0.1257,0.0,0.0,0.0,0.0,0.0,0.0,0.0,0.0,0.0,0.0,0.0,0.0,0.0,0.5698,0.6794,0.656,0.6017,0.5152,0.3511,0.2305,0.1569,0.1005,0.0622,0.0372,0.0568,0.0,0.0827,0.1648,0.0,0.0,0.0,0.0,0.0,0.0,0.0,0.0,0.0,0.0,0.0,0.0,0.0,0.0,0.0,0.0,0.0,0.0,0.0,0.0,0.0,0.0,0.0,0.0,0.0,0.0,0.0,0.0,0.0,0.0,0.0,0.0,0.0,0.0,0.0,0.0,0.0,0.0,0.0,0.0,0.0,0.0,0.0,0.0,0.0,0.0,0.0,0.0,0.0,0.0,0.0,0.0,0.0,0.0,0.0,0.0,0.0,0.0,0.0,0.0,0.0,0.0,0.0,0.0,0.0,0.0,0.0,0.0,0.0,0.0,0.0,0.0,0.0,0.0,0.0,0.0,0.0,0.0,0.0,0.0,0.0,0.0,0.0,0.0,0.0,0.0329,0.1046,0.0236,-0.0615,-0.1657,0.0,0.0,0.0,0.0,0.0,0.0,0.0,0.0,0.0,-0.3531,-0.0817,0.1556,0.3577,0.453,0.4681,0.4055,0.3243,0.2709,0.2364,0.1748,0.1624,0.1883,0.1867,0.1965,0.2174,0.2564,0.3297,0.4304,0.0,0.0,0.0,0.0,0.5977,0.5677,0.0,0.0,0.0,0.0,0.0,0.0,0.0,0.0,0.0,0.0,0.0,0.0,0.0,0.0,0.0,0.0,0.0,0.0,0.0,0.0,0.0,0.0,0.0,0.0,0.0,0.0,0.0,0.0,0.0,0.0,0.0,0.0,0.0,0.0,0.0,0.0,0.0,0.0,0.0,0.0,0.0,0.0,0.0,0.0,0.0,0.0,0.0,0.0,0.0,0.0,0.0,0.0,0.0,0.0,0.0,0.0,0.0,0.0,0.0,0.0,0.0,0.0,0.0,0.0,0.0,0.0,0.0,0.0,0.0,0.0,0.0,0.0,0.0,0.0,0.0,0.0,0.0,-0.0414,-0.0405,-0.0786,-0.2347,-0.3703,0.0,0.0,0.0,0.0,0.0,0.0,-1.1,-0.9869,-0.8369,-0.6361,-0.4089,-0.1641,0.1054,0.2817,0.3597,0.3319,0.3166,0.3088,0.3081,0.2563,0.2554,0.2956,0.2784,0.2917,0.3264,0.3372,0.3705,0.4267,0.5182,0.573,0.5935,0.6408,0.6177,0.5715,0.0,0.0,0.0,0.0,0.0,0.0,0.0,0.0,0.0,0.0,0.0,0.0,0.0,0.0,0.0,0.0,0.0,0.0,0.0,0.0,0.0,0.0,0.0,0.0,0.0,0.0,0.0,0.0,0.0,0.0,0.0,0.0,0.0,0.0,0.0,0.0,0.0,0.0,0.0,0.0,0.0,0.0,0.0,0.0,0.0,0.0,0.0,0.0,0.0,0.0,0.0,0.0,0.0,0.0,0.0,0.0,0.0,0.0,0.0,0.0,0.0,0.0,0.0,0.0,0.0,0.0,0.0,0.0,0.0,0.0,0.0,0.0,0.0,0.0,0.0,0.0,0.0,0.0,0.0,-0.2124,-0.4382,0.0,0.0,0.0,0.0,-0.9481,-1.0456,-1.1238,-1.1998,-1.0639,-0.9152,-0.7583,-0.5759,-0.3469,-0.0507,0.1163,0.2398,0.3186,0.3102,0.3267,0.3673,0.3437,0.3259,0.3193,0.3328,0.3597,0.3985,0.4004,0.4045,0.4156,0.5291,0.5698,0.564,0.6441,0.6496,0.6145,0.0,0.0,0.0,0.0,0.0,0.0,0.0,0.0,0.0,0.0,0.0,0.0,0.0,0.0,0.0,0.0,0.0,0.0,0.0,0.0,0.0,0.0,0.0,0.0,0.0,0.0,0.0,0.0,0.0,0.0,0.0,0.0,0.0,0.0,0.0,0.0,0.0,0.0,0.0,0.0,0.0,0.0,0.0,0.0,0.0,0.0,0.0,0.0,0.0,0.0,0.0,0.0,0.0,0.0,0.0,0.0,0.0,0.0,0.0,0.0,0.0,0.0,0.0,0.0,0.0,0.0,0.0,0.0,0.0,0.0,0.0,0.0,0.0,0.0,0.0,0.0,0.0,0.0,0.0,-0.4851,-0.5731,0.0,-0.6455,-0.7335,-0.8399,-0.9757,-1.0326,-1.0884,-1.1349,-1.0412,-0.9077,-0.7348,-0.6523,-0.4351,-0.0702,0.1077,0.2294,0.3135,0.3207,0.3267,0.3539,0.3585,0.3647,0.3721,0.4017,0.435,0.4787,0.5001,0.5067,0.5165,0.5964,0.6431,0.6725,0.6871,0.6929,0.6778,0.0,0.0,0.0,0.0,0.0,0.0,0.0,0.0,0.0,0.0,0.0,0.0,0.0,0.0,0.0,0.0,0.0,0.0,0.0,0.0,0.0,0.0,0.0,0.0,0.0,0.0,0.0,0.0,0.0,0.0,0.0,0.0,0.0,0.0,0.0,0.0,0.0,0.0,0.0,0.0,0.0,0.0,-0.5785,0.0,0.0,0.0,0.0,0.0,0.0,0.0,0.0,0.0,0.0,0.0,0.0,0.0,0.0,0.0,0.0,0.0,0.0,0.0,0.0,0.0,0.0,0.0,0.0,0.0,0.0,0.0,0.0,0.0,0.0,0.0,0.0,0.0,0.0,0.0,-0.491,-0.6114,-0.6642,-0.6967,-0.6947,-0.7789,-0.8649,-0.9422,-0.9823,-1.006,-1.0131,-0.925,-0.8151,-0.6757,-0.5945,-0.391,-0.0574,0.1131,0.241,0.3214,0.3322,0.3495,0.3814,0.3978,0.4159,0.4274,0.468,0.5048,0.5455,0.5838,0.6001,0.6089,0.6558,0.6851,0.7105,0.7171,0.7195,0.7024,0.0,0.0,0.0,0.0,0.0,0.0,0.0,0.0,0.0,0.0,0.0,0.0,0.0,0.0,0.0,0.0,0.0,0.0,0.0,0.0,0.0,0.0,0.0,0.0,0.0,0.0,0.0,0.0,0.0,0.0,0.0,0.0,0.0,0.0,0.0,0.0,0.0,0.0,0.0,0.0,0.0,0.0,-0.7305,0.0,0.0,0.0,0.0,0.0,0.0,0.0,0.0,0.0,0.0,0.0,0.0,0.0,0.0,0.0,0.0,0.0,0.0,0.0,0.0,0.0,0.0,0.0,0.0,0.0,0.0,0.0,0.0,0.0,0.0,0.0,0.0,0.0,-0.409,-0.5168,-0.5949,-0.5925,-0.7105,-0.7624,-0.6711,-0.8086,-0.8852,-0.8568,-0.8887,-0.8887,-0.8454,-0.7362,-0.6456,-0.5972,-0.3954,-0.2105,-0.0253,0.1432,0.2696,0.337,0.3455,0.3835,0.4526,0.4613,0.4667,0.4759,0.5295,0.5652,0.5838,0.6506,0.6746,0.674,0.7042,0.6982,0.6796,0.7293,0.7153,0.6735,0.0,0.0,0.0,0.0,0.0,0.0,0.0,0.0,0.0,0.0,0.0,0.0,0.0,0.0,0.0,0.0,0.0,0.0,0.0,0.0,0.0,0.0,0.0,0.0,0.0,0.0,0.0,0.0,0.0,0.0,0.0,0.0,0.0,0.0,0.0,0.0,0.0,0.0,0.0,0.0,0.0,0.0,-0.6634,0.0,0.0,0.0,0.0,0.0,0.0,0.0,0.0,0.0,0.0,0.0,0.0,0.0,0.0,0.0,0.0,0.0,0.0,0.0,0.0,0.0,0.0,0.0,0.0,0.0,0.0,0.0,0.0,0.0,0.0,0.0,0.0,-0.4546,-0.4458,-0.5434,-0.63,-0.674,-0.7127,-0.7214,-0.6952,-0.7201,-0.7396,-0.74,-0.7387,-0.7109,-0.6652,-0.5976,-0.5233,-0.4508,-0.2721,-0.117,0.027,0.1955,0.3022,0.3607,0.3783,0.4006,0.4274,0.4734,0.4935,0.496,0.5614,0.6128,0.6401,0.6727,0.6854,0.6892,0.7139,0.7152,0.6988,0.6699,0.6347,0.5925,0.0,0.0,0.0,0.0,0.0,0.0,0.0,0.0,0.0,0.0,0.0,0.0,0.0,0.0,0.0,0.0,0.0,0.0,0.0,0.0,0.0,0.0,0.0,0.0,0.0,0.0,0.0,0.0,0.0,0.0,0.0,0.0,0.0,0.0,0.0,0.0,0.0,0.0,0.0,0.0,0.0,0.0,-0.5856,-0.7339,-0.8181,-0.8991,-1.2004,-1.2172,-1.1031,-1.1291,0.0,0.0,0.0,0.0,0.0,0.0,0.0,0.0,0.0,0.0,0.0,0.0,0.0,0.0,0.0,0.0,0.0,0.0,0.0,0.0,0.0,0.0,0.0,0.0,-0.4136,-0.4755,-0.4512,-0.5436,-0.6437,-0.6807,-0.6893,-0.6751,-0.6449,-0.6345,-0.6227,-0.5887,-0.5981,-0.5887,-0.532,-0.4752,-0.3994,-0.2856,-0.1506,-0.0094,0.1406,0.2316,0.315,0.3748,0.3964,0.421,0.4683,0.5112,0.5447,0.0,0.6283,0.6623,0.6888,0.6992,0.6981,0.0,0.0,0.0,0.0,0.0,0.5702,0.5454,0.0,0.0,0.0,0.0,0.0,0.0,0.0,0.0,0.0,0.0,0.0,0.0,0.0,0.0,0.0,0.0,0.0,0.0,0.0,0.0,0.0,0.0,0.0,0.0,0.0,0.0,0.0,0.0,0.0,0.0,0.0,0.0,0.0,0.0,0.0,0.0,0.0,0.0,0.0,0.0,0.0,0.0,-0.4817,-0.6267,-0.768,-0.8998,-1.0117,-1.0792,-1.1061,-1.0361,0.0,0.0,0.0,0.0,0.0,0.0,0.0,0.0,0.0,0.0,0.0,0.0,0.0,0.0,0.0,0.0,0.0,0.0,0.0,0.0,0.0,0.0,0.0,0.0,-0.3962,-0.457,-0.4196,-0.5247,-0.6152,-0.6344,-0.6432,-0.6146,-0.545,-0.5532,-0.5294,-0.4422,-0.4814,-0.4716,-0.4026,0.0,0.0,0.0,0.0,0.1057,0.2699,0.2791,0.3175,0.3854,0.3924,0.4491,0.5379,0.567,0.6071,0.6479,0.6904,0.712,0.7135,0.7135,0.6942,0.6746,0.673,0.643,0.6117,0.5464,0.5232,0.5083,0.0,0.0,0.0,0.0,0.0,0.0,0.0,0.0,0.0,0.0,0.0,0.0,0.0,0.0,0.0,0.0,0.0,0.0,0.0,0.0,0.0,0.0,0.0,0.0,0.0,0.0,0.0,0.0,0.0,0.0,0.0,0.0,0.0,0.0,0.0,0.0,0.0,0.0,0.0,0.0,0.0,0.0,-0.2826,-0.4061,-0.5944,-0.7853,-0.7204,-0.7338,-0.7644,-0.6395,-0.6344,-0.6706,-0.6129,0.0,0.0,0.0,0.0,0.0,0.0,0.0,0.0,0.0,0.0,0.0,0.0,0.0,0.0,0.0,0.0,0.0,0.0,0.0,0.0,-0.3455,-0.359,-0.3856,-0.4061,-0.4139,-0.4387,-0.5206,-0.529,-0.517,-0.482,-0.4611,-0.4473,-0.4393,-0.3309,-0.2368,-0.1797,-0.1315,0.0,0.0306,0.1006,0.2111,0.3679,0.3573,0.3878,0.4493,0.0,0.0,0.5577,0.581,0.6145,0.6373,0.6484,0.6539,0.6616,0.6406,0.6294,0.6102,0.578,0.542,0.5131,0.4674,0.4699,0.4807,0.0,0.0,0.0,0.0,0.0,0.0,0.0,0.0,0.0,0.0,0.0,0.0,0.0,0.0,0.0,0.0,0.0,0.0,0.0,0.0,0.0,0.0,0.0,0.0,0.0,0.0,0.0,0.0,0.0,0.0,0.0,0.0,0.0,0.0,0.0,0.0,0.0,0.0,0.0,0.0,0.0,0.0,0.1443,-0.1247,-0.36,-0.5345,-0.507,-0.5577,-0.6246,-0.508,-0.4728,-0.4665,-0.4034,-0.3759,-0.3676,0.0,0.0,0.0,0.0,0.0,0.0,0.0,0.0,0.0,0.0,0.0,0.0,0.0,0.0,-0.289,0.0,0.0,-0.3487,-0.3518,-0.352,-0.354,-0.3366,-0.3786,-0.4275,-0.4494,-0.4337,-0.4191,-0.3943,-0.3836,-0.3502,-0.2838,-0.1589,-0.0634,0.0104,0.0732,0.1366,0.2103,0.2604,0.3229,0.3892,0.3995,0.4203,0.4624,0.4919,0.5283,0.5819,0.6089,0.633,0.6544,0.6441,0.6364,0.6416,0.6139,0.5769,0.5285,0.533,0.5321,0.5192,0.4924,0.4923,0.4891,0.0,0.0,0.0,0.0,0.0,0.0,0.0,0.0,0.0,0.0,0.0,0.0,0.0,0.0,0.0,0.0,0.0,0.0,0.0,0.0,0.0,0.0,0.0,0.0,0.0,0.0,0.0,0.0,0.0,0.0,0.0,0.0,0.0,0.0,0.0,0.0,0.0,0.0,0.0,0.0,0.0,0.0,0.5942,0.2376,-0.0322,-0.2261,-0.2786,-0.3701,-0.458,-0.3914,-0.3168,-0.242,-0.1953,-0.1473,-0.1148,-0.0925,-0.0,0.0,0.0,0.0,0.0,0.0,0.0,0.0,0.0,0.0,0.0679,0.034,-0.0801,-0.1972,-0.2705,-0.2827,-0.2822,-0.2817,-0.2813,-0.2698,-0.2119,-0.3021,-0.3551,-0.3173,-0.3123,-0.2961,-0.2912,-0.27,-0.2158,-0.0964,-0.0,0.0859,0.1712,0.2362,0.3014,0.3662,0.4089,0.4194,0.4194,0.4411,0.4731,0.4943,0.5235,0.5597,0.6257,0.6234,0.6381,0.6601,0.6158,0.6049,0.6058,0.593,0.5406,0.4859,0.524,0.5516,0.5622,0.5397,0.5126,0.4971,0.0,0.0,0.0,0.0,0.0,0.0,0.0,0.0,0.0,0.0,0.0,0.0,0.0,0.0,0.0,0.0,0.0,0.0,0.0,0.0,0.0,0.0,0.0,0.0,0.0,0.0,0.0,0.0,0.0,0.0,0.0,0.0,0.0,0.0,0.0,0.0,0.0,0.0,0.0,0.0,0.0,0.0,0.8911,0.7674,0.4614,0.1014,0.0384,0.0188,-0.0,-0.0673,-0.0641,-0.0076,0.0581,0.1145,0.1573,0.1959,0.0,0.2378,0.1473,-0.0217,-0.0893,0.2165,0.3353,0.3617,0.0,0.0,0.3045,0.1521,0.1406,0.1174,-0.0,-0.0235,-0.0117,-0.0,-0.0115,-0.0231,-0.0,-0.0,-0.0115,-0.0117,-0.0808,-0.1363,-0.1452,-0.0791,-0.0338,-0.0109,0.0995,0.2105,0.338,0.3206,0.3565,0.4457,0.479,0.5012,0.523,0.5456,0.568,0.5678,0.5464,0.5804,0.6584,0.604,0.6042,0.6265,0.5487,0.5043,0.5048,0.5134,0.5328,0.5522,0.5622,0.5874,0.5884,0.49,0.4825,0.4905,0.0,0.0,0.0,0.0,0.0,0.0,0.0,0.0,0.0,0.0,0.0,0.0,0.0,0.0,0.0,0.0,0.0,0.0,0.0,0.0,0.0,0.0,0.0,0.0,0.0,0.0,0.0,0.0,0.0,0.0,0.0,0.0,0.0,0.0,0.0,0.0,0.0,0.0,0.0,0.0,0.0,0.0,1.2587,1.1251,0.9013,0.6365,0.38,0.2704,0.0,0.0,0.1836,0.2655,0.3619,0.3699,0.3748,0.4276,0.4612,0.0,0.5381,0.4508,0.0,0.0,0.7264,0.7301,0.7309,0.6407,0.5485,0.4766,0.4441,0.3986,0.3142,0.2901,0.3007,0.0,0.3306,0.3076,0.2975,0.3411,0.3751,0.4164,0.3644,0.2544,0.0797,0.0915,0.172,0.2968,0.3446,0.4024,0.4565,0.444,0.466,0.5342,0.5404,0.5601,0.5935,0.6049,0.6049,0.6049,0.5935,0.6158,0.6495,0.5822,0.5373,0.4929,0.4594,0.426,0.4151,0.4678,0.487,0.4829,0.5148,0.5251,0.5364,0.5204,0.5156,0.4985,0.0,0.0,0.0,0.0,0.0,0.0,0.0,0.0,0.0,0.0,0.0,0.0,0.0,0.0,0.0,0.0,0.0,0.0,0.0,0.0,0.0,0.0,0.0,0.0,0.0,0.0,0.0,0.0,0.0,0.0,0.0,0.0,0.0,0.0,0.0,0.0,0.0,0.0,0.0,0.0,0.0,0.0,1.5795,1.4404,1.2814,1.0726,0.6728,0.4688,0.0,0.0,0.3403,0.4188,0.5194,0.5286,0.5051,0.5844,0.6357,0.6948,0.8386,0.0,0.0,0.9845,0.9994,0.9783,0.9442,0.8304,0.7145,0.6904,0.6595,0.6154,0.5546,0.5423,0.5519,0.5918,0.5782,0.5538,0.5412,0.5723,0.6186,0.6858,0.6558,0.5645,0.3585,0.3117,0.3598,0.5289,0.5295,0.542,0.5676,0.5502,0.5691,0.6242,0.6168,0.6217,0.6386,0.6495,0.6495,0.6274,0.6163,0.6161,0.6047,0.5262,0.448,0.3701,0.3701,0.3598,0.3503,0.402,0.4318,0.4269,0.458,0.4775,0.4979,0.5236,0.519,0.5009,0.0,0.0,0.0,0.0,0.0,0.0,0.0,0.0,0.0,0.0,0.0,0.0,0.0,0.0,0.0,0.0,0.0,0.0,0.0,0.0,0.0,0.0,0.0,0.0,0.0,0.0,0.0,0.0,0.0,0.0,0.0,0.0,0.0,0.0,0.0,0.0,0.0,0.0,0.0,0.0,0.0,0.0,1.839,1.753,1.5815,1.3089,0.8869,0.0,0.0,0.0,0.3784,0.3812,0.4538,0.4954,0.0,0.6272,0.7186,0.0,0.0,0.0,1.3022,1.1213,1.0328,0.9556,0.8723,0.8236,0.7744,0.7006,0.7128,0.7253,0.6888,0.6888,0.6853,0.6748,0.6487,0.6366,0.6729,0.6485,0.6363,0.6729,0.6846,0.6805,0.0,0.6098,0.5514,0.5752,0.5758,0.6033,0.6719,0.6487,0.6444,0.6937,0.693,0.6824,0.6717,0.7046,0.6824,0.6274,0.5935,0.5708,0.5371,0.4145,0.3475,0.3137,0.2805,0.2943,0.3219,0.3272,0.368,0.434,0.4409,0.4724,0.5047,0.4744,0.4645,0.4555,0.0,0.0,0.0,0.0,0.0,0.0,0.0,0.0,0.0,0.0,0.0,0.0,0.0,0.0,0.0,0.0,0.0,0.0,0.0,0.0,0.0,0.0,0.0,0.0,0.0,0.0,0.0,0.0,0.0,0.0,0.0,0.0,0.0,0.0,0.0,0.0,0.0,0.0,0.0,0.0,0.0,0.0,2.1867,2.0269,1.7873,1.4798,0.0,0.0,0.0,0.0,0.0,0.0,0.4522,0.5058,0.0,0.6691,0.8337,0.9879,1.0524,0.0,1.1996,1.1529,1.0979,1.0303,0.9926,0.97,0.9332,0.8601,0.8601,0.8599,0.823,0.8105,0.819,0.8423,0.8283,0.8399,0.8872,0.8753,0.8668,0.9125,0.8812,0.0,0.0,0.0,0.0,0.6921,0.663,0.6777,0.7339,0.703,0.694,0.7172,0.6982,0.6791,0.6715,0.6379,0.6044,0.571,0.4925,0.4365,0.3808,0.3251,0.2822,0.2509,0.2509,0.2533,0.2572,0.2819,0.3089,0.3377,0.3637,0.3826,0.4045,0.3976,0.4151,0.421,0.0,0.0,0.0,0.0,0.0,0.0,0.0,0.0,0.0,0.0,0.0,0.0,0.0,0.0,0.0,0.0,0.0,0.0,0.0,0.0,0.0,0.0,0.0,0.0,0.0,0.0,0.0,0.0,0.0,0.0,0.0,0.0,0.0,0.0,0.0,0.0,0.0,0.0,0.0,0.0,0.0,0.0,2.4321,2.2666,1.9837,0.0,0.0,0.0,0.0,0.0,0.0,0.0,0.4113,0.464,0.5246,0.645,0.7825,0.9055,0.9769,1.0307,1.0574,1.1051,1.0836,1.0513,1.019,0.9981,0.9754,0.9326,0.9335,0.9457,0.9326,0.9447,0.966,0.9929,0.987,1.0091,1.0621,1.0343,1.0249,1.0649,1.0165,0.9578,0.0,0.0,0.0,0.7751,0.7225,0.7115,0.752,0.7054,0.6824,0.6825,0.6487,0.6303,0.6158,0.5718,0.5296,0.4884,0.3995,0.323,0.2803,0.2483,0.2278,0.2071,0.2199,0.2109,0.214,0.2494,0.2756,0.2917,0.3283,0.358,0.3665,0.3718,0.3904,0.4104,0.0,0.0,0.0,0.0,0.0,0.0,0.0,0.0,0.0,0.0,0.0,0.0,0.0,0.0,0.0,0.0,0.0,0.0,0.0,0.0,0.0,0.0,0.0,0.0,0.0,0.0,0.0,0.0,0.0,0.0,0.0,0.0,0.0,0.0,0.0,0.0,0.0,0.0,0.0,0.0,0.0,0.0,2.5972,2.4531,0.0,0.0,0.0,0.0,0.0,0.0,0.0,0.0,0.0,0.3874,0.4776,0.5712,0.5852,0.5901,0.7453,0.8536,0.933,0.9708,1.0069,1.0229,0.9669,0.9357,0.9291,0.93,0.9576,0.9943,0.0,0.0,1.1031,1.1273,1.126,1.1328,1.1719,1.1363,1.1201,0.0,0.0,0.0,0.0,0.0,0.0,0.7962,0.0,0.7041,0.7036,0.6702,0.6254,0.5817,0.5829,0.5517,0.5216,0.4894,0.4509,0.4046,0.3062,0.2539,0.2358,0.1939,0.1839,0.1842,0.1872,0.1903,0.1931,0.2292,0.2678,0.3085,0.3334,0.374,0.4046,0.4108,0.4169,0.4114,0.0,0.0,0.0,0.0,0.0,0.0,0.0,0.0,0.0,0.0,0.0,0.0,0.0,0.0,0.0,0.0,0.0,0.0,0.0,0.0,0.0,0.0,0.0,0.0,0.0,0.0,0.0,0.0,0.0,0.0,0.0,0.0,0.0,0.0,0.0,0.0,0.0,0.0,0.0,0.0,0.0,0.0,2.5881,0.0,0.0,0.0,0.0,0.0,0.0,0.0,0.0,0.0,0.0,0.3085,0.4371,0.4513,0.5071,0.5902,0.6583,0.7713,0.8722,0.8944,0.9519,0.9968,0.9542,0.9724,0.9985,0.9915,1.0226,1.0668,0.0,0.0,0.0,1.2238,1.232,0.0,1.2644,1.2233,0.0,1.1953,0.0,1.0643,0.9902,0.8974,0.0,0.0,0.718,0.6892,0.6355,0.591,0.559,0.5168,0.5084,0.4921,0.4796,0.3834,0.3224,0.2733,0.2296,0.1987,0.1908,0.1803,0.1933,0.2188,0.1989,0.214,0.2655,0.2564,0.2704,0.3088,0.3374,0.3545,0.3723,0.3779,0.3966,0.417,0.0,0.0,0.0,0.0,0.0,0.0,0.0,0.0,0.0,0.0,0.0,0.0,0.0,0.0,0.0,0.0,0.0,0.0,0.0,0.0,0.0,0.0,0.0,0.0,0.0,0.0,0.0,0.0,0.0,0.0,0.0,0.0,0.0,0.0,0.0,0.0,0.0,0.0,0.0,0.0,0.0,0.0,0.0,0.0,0.0,0.0,0.0,0.0,0.0,0.0,0.0,-0.0634,0.0524,0.1903,0.3314,0.3888,0.0,0.5604,0.6263,0.7339,0.8409,0.8771,0.9325,0.9774,1.0026,1.0191,1.0314,1.0778,1.1086,0.0,0.0,0.0,0.0,0.0,0.0,0.0,1.3615,1.3216,1.2827,0.0,1.1824,0.0,0.985,0.8999,0.805,0.0,0.6656,0.6052,0.5284,0.5196,0.4893,0.4276,0.4098,0.3866,0.3368,0.2737,0.224,0.2078,0.1859,0.1876,0.202,0.2035,0.2175,0.2559,0.0,0.2522,0.2924,0.295,0.3085,0.3211,0.3613,0.3671,0.3871,0.4034,0.4362,0.4458,0.0,0.0,0.0,0.0,0.0,0.0,0.0,0.0,0.0,0.0,0.0,0.0,0.0,0.0,0.0,0.0,0.0,0.0,0.0,0.0,0.0,0.0,0.0,0.0,0.0,0.0,0.0,0.0,0.0,0.0,0.0,0.0,0.0,0.0,0.0,0.0,0.0,0.0,0.0,0.0,0.0,0.0,0.0,0.0,0.0,0.0,0.0,0.0,0.0,0.0,-0.3229,-0.1739,-0.0435,0.1099,0.2774,0.3829,0.4739,0.5562,0.6461,0.75,0.851,0.9198,0.9712,1.0144,1.0845,1.0738,1.0714,1.1658,0.0,1.2118,1.2359,1.296,1.3435,1.377,0.0,1.4167,1.4662,1.4107,1.3613,1.3216,1.2284,1.1121,0.9865,0.9184,0.8266,0.7009,0.6011,0.508,0.4463,0.4391,0.4001,0.3104,0.3054,0.2546,0.1763,0.1763,0.169,0.175,0.1859,0.2097,0.247,0.2397,0.2549,0.2818,0.287,0.0,0.3199,0.3452,0.3579,0.358,0.3836,0.4025,0.4244,0.452,0.4729,0.4847,0.0,0.0,0.0,0.0,0.0,0.0,0.0,0.0,0.0,0.0,-0.4758,0.0,0.0,0.0,0.0,0.0,0.0,0.0,0.0,0.0,0.0,0.0,0.0,0.0,0.0,0.0,0.0,0.0,0.0,0.0,0.0,0.0,0.0,0.0,0.0,0.0,0.0,0.0,0.0,0.0,0.0,0.0,0.0,0.0,0.0,0.0,0.0,0.0,0.0,0.0,-0.5676,-0.5126,-0.1174,0.2892,0.6029,0.4923,0.6058,0.7669,0.7732,0.8682,0.9896,1.0366,1.1268,1.2008,1.1526,1.2073,0.0,0.0,0.0,1.3449,1.3808,1.4172,0.0,1.4519,0.0,0.0,0.0,0.0,1.4056,0.0,0.0,0.0,0.0,0.0,0.0,0.0,0.0,0.5249,0.4702,0.3993,0.2891,0.132,0.1619,0.1835,0.1765,0.1766,0.1903,0.2297,0.2188,0.2318,0.2695,0.2738,0.2877,0.3121,0.2976,0.0,0.3758,0.356,0.358,0.3832,0.4001,0.4159,0.4444,0.4686,0.4873,0.5175,0.0,0.0,0.0,0.0,0.0,0.0,0.0,0.0,0.0,-0.5896,-0.554,-0.5256,0.0,0.0,0.0,0.0,0.0,0.0,0.0,0.0,0.0,0.0,0.0,0.0,0.0,0.0,0.0,0.0,0.0,0.0,0.0,0.0,0.0,0.0,0.0,0.0,0.0,0.0,0.0,0.0,0.0,0.0,0.0,0.0,0.0,0.0,0.0,0.0,0.0,0.0,-0.5861,-0.464,-0.174,0.2746,0.6984,0.6684,0.7987,0.9579,0.9923,1.105,1.216,1.2711,1.3301,1.3838,1.3858,0.0,0.0,0.0,1.4488,1.4485,1.4498,0.0,0.0,0.0,0.0,0.0,0.0,0.0,0.0,0.0,0.0,0.0,0.0,0.0,0.0,0.0,0.0,0.5651,0.4508,0.3201,0.1936,0.0808,0.101,0.1427,0.1972,0.1972,0.2219,0.2516,0.2406,0.2648,0.3142,0.3166,0.3532,0.3911,0.3887,0.0,0.4346,0.4291,0.4319,0.4445,0.4476,0.4657,0.4855,0.5185,0.5389,0.5606,0.0,0.0,0.0,0.0,0.0,0.0,0.0,-0.6568,-0.652,-0.6386,-0.6217,-0.5989,-0.5688,-0.6168,-0.6477,0.0,0.0,0.0,0.0,0.0,0.0,0.0,0.0,0.0,0.0,0.0,0.0,0.0,0.0,0.0,0.0,0.0,0.0,0.0,0.0,0.0,0.0,0.0,0.0,0.0,0.0,0.0,0.0,0.0,0.0,0.0,0.0,0.0,0.0,0.0,-0.4951,-0.2949,-0.1543,0.2459,0.6917,0.7955,0.9604,1.1201,1.2432,1.3727,1.4812,1.5434,1.5772,1.589,1.6304,1.6249,0.0,0.0,1.5757,1.5268,1.4993,0.0,0.0,0.0,0.0,0.0,0.0,0.0,0.0,0.0,0.0,0.0,0.0,0.0,0.0,0.0,0.0,0.0,0.4092,0.2538,0.1515,0.1111,0.1111,0.1529,0.2281,0.2395,0.2539,0.2719,0.2849,0.3094,0.3792,0.3818,0.4093,0.4622,0.4698,0.0,0.0,0.4909,0.4935,0.4935,0.481,0.5013,0.5259,0.5536,0.5762,0.6032,0.0,0.0,0.0,0.0,0.0,0.0,0.0,-0.6781,-0.6829,-0.6666,-0.6584,-0.6453,-0.6154,-0.6263,-0.6493,0.0,0.0,0.0,0.0,0.0,0.0,0.0,0.0,0.0,0.0,0.0,0.0,0.0,0.0,0.0,0.0,0.0,0.0,0.0,0.0,0.0,0.0,0.0,0.0,0.0,0.0,0.0,0.0,0.0,0.0,0.0,0.0,0.0,0.0,0.0,0.0,-0.1415,0.0429,0.3454,0.6582,0.7974,0.0,0.0,1.4832,1.6493,1.7687,1.7966,1.849,1.8589,1.7675,0.0,0.0,1.6476,1.6119,1.582,1.5346,1.5216,0.0,0.0,0.0,0.0,0.0,0.0,0.0,0.0,0.0,0.0,0.0,0.0,0.0,0.0,0.0,0.0,0.3646,0.2702,0.2118,0.2118,0.2223,0.2447,0.2697,0.2848,0.2981,0.3309,0.3416,0.3776,0.4279,0.441,0.4625,0.47,0.4777,0.0,0.0,0.4931,0.4935,0.4933,0.4687,0.4857,0.5313,0.5514,0.5856,0.6341,0.0,0.0,0.0,0.0,0.0,0.0,0.0,-0.7397,-0.724,-0.7154,-0.6822,-0.6541,-0.6342,-0.6231,-0.6346,0.0,0.0,0.0,0.0,0.0,0.0,0.0,0.0,0.0,0.0,0.0,0.0,-1.8728,-1.7333,0.0,0.0,0.0,0.0,0.0,0.0,0.0,0.0,0.0,0.0,0.0,0.0,0.0,0.0,0.0,0.0,0.0,0.0,0.0,0.0,0.0,0.0,0.0,0.0526,0.2961,0.0,0.0,1.1456,1.4487,1.658,1.8296,1.9663,2.0082,2.0082,1.982,1.9215,0.0,0.0,1.7522,1.6863,1.616,1.554,1.5087,1.4665,0.0,0.0,0.0,0.0,0.0,0.0,0.0,0.0,0.0,0.0,0.0,0.0,0.0,0.0,0.0,0.3216,0.2927,0.2579,0.2281,0.2308,0.2533,0.2755,0.2911,0.3058,0.341,0.3493,0.376,0.411,0.4387,0.4681,0.4991,0.5189,0.0,0.0,0.5527,0.5546,0.5542,0.5419,0.5749,0.6129,0.604,0.6274,0.6668,0.0,0.0,0.0,0.0,0.0,0.0,-0.8151,-0.7867,-0.7476,-0.7158,-0.676,-0.6444,-0.6171,-0.589,-0.5897,-0.6324,0.0,0.0,0.0,0.0,0.0,0.0,0.0,0.0,0.0,0.0,0.0,-1.5653,-1.4128,-1.2555,0.0,0.0,-0.6997,-0.588,0.0,0.0,0.0,0.0,0.0,0.0,0.0,0.0,0.0,0.0,0.0,0.0,0.0,0.0,0.0,0.0,0.0,0.0,0.0,0.0,0.0,0.0,1.181,1.4887,1.7291,1.9138,2.057,2.1333,2.1211,2.0917,0.0,0.0,0.0,1.8011,1.72,1.6302,1.5419,1.4713,1.4168,0.0,0.0,0.0,0.0,0.0,0.0,0.0,0.0,0.0,0.0,0.0,0.0,0.0,0.0,0.0,0.0,0.2865,0.2729,0.2451,0.2484,0.2609,0.2927,0.2998,0.315,0.3491,0.3587,0.3869,0.4231,0.436,0.4748,0.5175,0.549,0.0,0.0,0.588,0.5914,0.6031,0.6278,0.6503,0.6905,0.6684,0.6931,0.7213,0.0,0.0,0.0,0.0,0.0,0.0,0.0,-0.7966,-0.7558,-0.6549,-0.6412,-0.6201,-0.5652,-0.5183,-0.5162,-0.5735,0.0,0.0,0.0,0.0,0.0,0.0,0.0,0.0,0.0,0.0,0.0,-1.2573,-1.1413,-1.0174,-0.8918,-0.7466,-0.6145,-0.5001,0.0,0.0,0.0,0.0,0.0,0.0,0.0,0.0,0.0,0.0,0.0,0.0,0.0,0.0,0.0,0.0,0.0,0.0,0.0,0.0,0.0,0.0,1.0994,1.3541,1.6813,1.8839,2.0371,2.144,2.2014,2.1869,0.0,0.0,1.9619,1.7598,1.6936,1.631,1.497,1.4461,1.3826,1.2827,0.0,0.0,0.0,0.0,0.0,0.0,0.0,0.0,0.0,0.0,0.0,0.0,0.0,0.0,0.0,0.2357,0.2595,0.2745,0.2747,0.2872,0.323,0.335,0.3484,0.3734,0.4049,0.4335,0.4598,0.4559,0.4863,0.0,0.0,0.0,0.0,0.588,0.6037,0.6403,0.7025,0.7212,0.719,0.7429,0.754,0.752,0.0,0.0,0.0,0.0,0.0,0.0,0.0,-0.8417,-0.7957,-0.7496,-0.703,-0.6577,-0.6212,-0.603,-0.6236,-0.6959,0.0,0.0,0.0,0.0,0.0,0.0,0.0,0.0,0.0,0.0,0.0,-1.0431,-0.9643,-0.8851,-0.8047,-0.6638,-0.5553,-0.4823,-0.4397,0.0,0.0,0.0,0.0,0.0,0.0,0.0,0.0,0.0,0.0,0.0,0.0,0.0,0.0,0.0,0.0,0.0,0.0,0.0,0.0,0.0,0.0,0.0,1.4503,1.6414,1.7784,1.8171,1.8923,1.9403,1.8573,0.0,1.8024,1.6867,1.6085,1.522,1.4039,1.3567,1.282,1.1026,1.0444,0.0,0.0,0.0,0.0,0.0,0.0,0.0,0.0,0.0,0.0,0.0,0.0,0.0,0.0,0.1313,0.1896,0.2941,0.2683,0.2725,0.3292,0.3162,0.3314,0.3547,0.3762,0.3802,0.3895,0.4134,0.4521,0.0,0.0,0.0,0.0,0.6417,0.6591,0.6775,0.7393,0.7707,0.7817,0.8066,0.7922,0.7905,0.0,0.0,0.0,0.0,0.0,0.0,0.0,-0.8941,-0.8448,-0.8094,-0.7705,-0.7329,-0.6912,-0.6977,-0.7238,-0.7871,0.0,0.0,0.0,0.0,0.0,0.0,0.0,0.0,0.0,-0.9361,-0.9105,-0.8382,-0.7941,-0.7367,-0.6785,-0.5668,-0.4882,-0.4492,-0.4222,0.0,0.0,0.0,0.0,0.0,0.0,0.0,0.6573,0.0,0.0,0.0,0.0,0.0,0.0,0.0,0.0,0.0,0.0,0.0,0.0,0.0,0.8793,0.0,0.0,1.4337,1.5761,1.6478,1.7239,0.0,0.0,0.0,1.677,1.5497,1.475,1.3904,1.2815,1.2253,1.1461,0.9907,0.9065,0.0,0.0,0.0,0.0,0.0,0.0,0.0,0.0,0.0,0.0,0.0,0.0,0.0,0.0,0.0381,0.1248,0.218,0.2392,0.2722,0.3081,0.2949,0.3107,0.3466,0.3771,0.3924,0.3813,0.437,0.4957,0.0,0.0,0.0,0.0,0.6649,0.6841,0.69,0.7513,0.7801,0.8,0.8248,0.8367,0.8229,0.0,0.0,0.0,0.0,0.0,0.0,0.0,0.0,0.0,0.0,-0.8463,-0.8318,-0.7913,-0.7983,-0.8172,0.0,0.0,0.0,0.0,0.0,0.0,0.0,0.0,0.0,0.0,-0.784,-0.7428,-0.6498,-0.6515,-0.6129,-0.5404,-0.4866,-0.4475,-0.4161,-0.388,0.0,0.0,0.0,0.0,0.0,0.0,0.0,0.0,0.0,0.0,0.0,0.0,0.0,0.0,0.0,0.0,0.0,0.0,0.0,0.0,0.0,0.0,0.0,0.0,0.0,0.0,0.0,0.0,0.0,0.0,0.0,0.0,1.3604,1.2991,1.2568,1.1426,1.0604,0.9924,0.9042,0.8199,0.0,0.0,0.0,0.0,0.0,0.0,0.0,0.0,0.0,0.0,0.0,0.0,0.0,0.0,-0.0197,0.0595,0.0809,0.1988,0.2683,0.2831,0.2829,0.2987,0.3526,0.4199,0.4375,0.4262,0.5044,0.5717,0.0,0.0,0.0,0.0,0.6798,0.6886,0.7023,0.7266,0.7627,0.8008,0.8378,0.8626,0.8878,0.0,0.0,0.0,0.0,0.0,0.0,0.0,0.0,0.0,0.0,-0.9716,-0.9526,-0.9345,-0.9118,-0.9082,0.0,0.0,0.0,0.0,0.0,0.0,0.0,0.0,0.0,0.0,-0.6496,-0.6199,-0.5804,-0.682,-0.72,-0.6889,-0.7555,-0.7035,-0.5519,-0.4045,0.0,0.0,0.0,0.0,0.0,0.0,0.0,0.0,0.0,0.0,0.0,0.7648,0.7629,0.0,0.0,0.0,0.0,0.0,0.0,0.0,0.0,0.7051,0.7402,0.7933,0.0,1.0506,1.0639,1.166,0.0,0.0,0.0,0.0,0.0,0.0,0.0,0.0,0.8776,0.7883,0.0,0.0,0.0,0.0,0.0,0.0,0.0,0.0,0.0,0.0,0.0,0.0,0.0,0.0,0.0,0.0,-0.0693,0.0598,0.1443,0.2028,0.2431,0.2783,0.2951,0.3433,0.4241,0.4221,0.4597,0.5158,0.5603,0.5935,0.0,0.0,0.0,0.6586,0.6869,0.711,0.7266,0.7627,0.7997,0.8381,0.875,0.8946,0.8998,0.0,0.0,0.0,0.0,0.0,0.0,0.0,0.0,0.0,0.0,0.0,0.0,0.0,0.0,0.0,0.0,0.0,0.0,0.0,0.0,0.0,0.0,0.0,0.0,0.0,-0.5959,-0.587,-0.5668,-0.6633,-0.714,-0.7395,-0.7307,-0.6655,-0.5508,-0.2983,0.0,0.0,0.0,0.0,0.0,0.7717,0.0,0.0,0.0,0.0,0.0,0.9297,0.9186,0.0,0.8608,0.8488,0.8272,0.0,0.0,0.0,0.0,0.6484,0.6907,0.6743,0.805,0.9375,0.9471,1.0127,1.0655,0.0,0.0,0.0,0.0,0.0,0.0,0.0,0.0,0.0,0.0,0.0,0.0,0.0,0.0,0.0,0.0,0.0,0.0,0.0,0.0,0.0,0.0,0.0,0.0,0.0,-0.01,0.1008,0.1971,0.2262,0.2476,0.2521,0.2968,0.3653,0.4591,0.4672,0.5044,0.5601,0.5824,0.6047,0.0,0.0,0.0,0.6749,0.7202,0.7435,0.7551,0.785,0.8241,0.8619,0.8934,0.9125,0.9318,0.0,0.0,0.0,0.0,0.0,0.0,0.0,0.0,0.0,0.0,0.0,0.0,0.0,0.0,0.0,0.0,0.0,0.0,0.0,0.0,0.0,0.0,0.0,-0.5947,-0.5679,-0.5881,-0.5873,-0.5789,-0.6515,-0.7089,-0.7514,-0.6612,-0.587,-0.5084,-0.1383,0.0,0.0,0.0,0.0,0.0,0.9376,0.0,0.0,0.0,0.0,0.0,0.0,0.0,0.0,0.9209,0.8969,0.866,0.7388,0.0,0.0,0.0,0.0,0.0,0.6706,0.8035,0.9485,0.9798,0.9911,0.9991,0.0,0.0,0.0,0.0,0.0,0.0,0.0,0.0,0.0,0.0,0.0,0.0,0.0,0.0,0.0,0.0,0.0,0.0,0.0,0.0,0.0,0.0,0.0,0.0,0.0,0.101,0.1731,0.228,0.2696,0.2829,0.2565,0.3313,0.4084,0.4895,0.5328,0.5603,0.5824,0.5933,0.6267,0.672,0.0,0.0,0.7041,0.7608,0.7826,0.7848,0.7953,0.8482,0.8976,0.8976,0.9296,0.9647,0.0,0.0,0.0,0.0,0.0,0.0,0.0,0.0,0.0,0.0,0.0,0.0,0.0,0.0,0.0,0.0,0.0,0.0,0.0,0.0,0.0,0.0,0.0,-0.5951,-0.6013,-0.555,-0.5484,-0.5885,-0.7916,-0.8676,-0.8254,-0.968,-0.892,-0.6255,-0.0223,0.4314,0.7492,0.8683,0.9396,0.9737,1.1569,0.0,0.0,0.0,0.0,0.0,0.0,0.0,0.0,0.8299,0.8073,0.7808,0.6479,0.0,0.0,0.0,0.0,0.0,0.7343,0.8393,0.9265,0.8484,0.8374,0.8371,0.0,0.0,0.0,0.0,0.0,0.0,0.0,0.0,0.0,0.0,0.0,0.0,0.0,0.0,0.0,0.0,0.0,0.0,0.0,0.0,0.0,0.0,0.0,0.0,0.0,0.1918,0.2441,0.2484,0.342,0.4,0.4124,0.4676,0.5407,0.609,0.5847,0.5935,0.6274,0.6492,0.6604,0.672,0.0,0.7735,0.7846,0.8349,0.8597,0.8702,0.8723,0.8973,0.9217,0.9217,0.9473,0.9734,0.0,0.0,0.0,0.0,0.0,0.0,0.0,0.0,0.0,0.0,0.0,0.0,0.0,0.0,0.0,0.0,0.0,0.0,0.0,0.0,0.0,0.0,-0.6972,-0.6544,-0.6408,-0.6465,-0.6802,-0.7463,-0.8775,-0.9271,-0.8953,-0.7648,-0.6333,-0.4869,0.1306,0.5414,0.7946,0.9913,1.0657,1.0726,0.0,0.0,0.0,0.0,0.0,0.0,0.0,0.0,0.0,0.0,0.7779,0.7714,0.6589,0.0,0.0,0.0,0.0,0.0,0.7923,0.8716,0.9268,0.8823,0.8712,0.8692,0.0,0.0,0.0,0.0,0.0,0.0,0.0,0.0,0.0,0.0,0.0,0.0,0.0,0.0,0.0,0.0,0.0,0.0,0.0,0.0,0.0,0.0,0.0,0.0,0.0,0.0,0.305,0.3312,0.4287,0.4869,0.5268,0.5923,0.6508,0.6785,0.6337,0.627,0.6826,0.6935,0.7078,0.7368,0.0,0.8208,0.8571,0.871,0.8922,0.9229,0.8945,0.9339,0.9819,0.9819,0.9822,0.9822,0.0,0.0,0.0,0.0,0.0,0.0,0.0,0.0,0.0,0.0,0.0,0.0,0.0,0.0,0.0,0.0,0.0,0.0,0.0,0.0,-0.8332,-0.8243,-0.7688,-0.7315,-0.7003,-0.7386,-0.7856,-0.8432,-0.8868,-0.8764,-0.8012,-0.4529,-0.2873,-0.2668,0.2705,0.6341,0.8545,1.02,1.09,1.0876,0.0,0.0,0.0,0.0,0.0,0.0,0.0,0.0,0.0,0.0,0.0,0.0,0.0,0.0,0.0,0.7214,0.7524,0.8152,0.8808,0.9343,0.9699,0.9877,0.0,0.0,0.8953,0.0,0.0,0.0,0.0,0.0,0.0,0.0,0.0,0.0,0.0,0.0,0.0,0.0,0.0,0.0,0.0,0.0,0.0,0.0,0.0,0.0,0.0,0.0,0.0,0.0,0.3652,0.4426,0.5024,0.5609,0.6165,0.6907,0.7235,0.7127,0.6707,0.6826,0.7268,0.7268,0.7558,0.7905,0.8397,0.8829,0.9198,0.9232,0.941,0.9895,0.9536,0.9822,1.0425,1.0425,1.0304,1.0061,0.0,0.0,0.0,0.0,0.0,0.0,0.0,0.0,0.0,0.0,0.0,0.0,0.0,0.0,0.0,0.0,0.0,0.0,0.0,0.0,-0.8907,-0.8596,-0.8238,-0.7994,-0.7927,-0.7461,-0.7233,-0.7212,-0.7654,-0.647,-0.3874,-0.1901,-0.082,-0.04,0.3695,0.7176,0.9818,0.9735,0.9925,1.0367,1.0206,0.0,0.0,0.0,0.0,0.0,0.0,0.0,0.0,0.0,0.0,0.0,0.0,0.0,0.8241,0.7958,0.8465,0.9326,1.0107,1.0454,1.0757,1.1331,0.0,0.0,0.9244,0.0,0.0,0.0,0.0,0.0,0.0,0.0,0.0,0.0,0.0,0.0,0.0,0.0,0.0,0.0,0.0,0.0,0.0,0.0,0.0,0.0,0.0,0.0,0.0,0.0,0.0,0.5253,0.5653,0.6167,0.6804,0.7251,0.7211,0.6999,0.7105,0.7268,0.7607,0.7607,0.7788,0.8259,0.8958,0.9445,0.9588,1.0343,1.0649,1.0653,1.0664,1.0668,1.0789,1.0789,1.0789,1.0789,0.0,0.0,0.0,0.0,0.0,0.0,0.0,0.0,0.0,0.0,0.0,0.0,0.0,0.0,0.0,0.0,0.0,0.0,0.0,0.0,-0.9904,-0.958,-0.8949,-0.8617,-0.8533,-0.7854,-0.7476,-0.7327,-0.5743,-0.4223,-0.2692,0.0073,0.2554,0.4849,0.5794,0.714,0.8664,0.8503,0.8511,0.8839,0.882,0.8838,0.0,0.0,0.0,0.0,0.0,0.0,0.0,0.0,0.6988,0.7425,0.0,0.8028,0.8844,0.8642,0.916,0.9819,1.058,1.031,0.9906,1.0695,0.0,0.0,0.0,0.0,0.0,0.0,0.0,0.0,0.0,0.0,0.0,0.0,0.0,0.0,0.0,0.0,0.0,0.0,0.0,0.0,0.0,0.0,0.0,0.0,0.0,0.0,0.0,0.0,0.0,0.5841,0.6046,0.6577,0.7234,0.7471,0.7532,0.7642,0.7689,0.7712,0.7607,0.8156,0.8613,0.9069,0.9701,1.0219,1.0699,1.0763,1.091,1.1152,1.1152,1.1031,1.0789,1.1031,1.091,1.0547,0.0,0.0,0.0,0.0,0.0,0.0,0.0,0.0,0.0,0.0,0.0,0.0,0.0,0.0,0.0,0.0,0.0,0.0,0.0,0.0,-1.067,-1.0196,-0.9592,-0.9157,-0.8896,-0.8038,-0.7377,-0.7035,-0.4001,-0.1902,-0.0711,0.2199,0.4891,0.7081,0.6319,0.642,0.7014,0.6427,0.6521,0.7024,0.6933,0.6921,0.0,0.0,0.0,0.0,0.0,0.0,0.0,0.0,0.0,0.0,0.0,0.0,0.0,0.0,0.9418,0.9713,1.0278,0.9739,0.9168,0.0,0.0,0.0,0.0,0.0,0.0,0.0,0.0,0.0,0.0,0.0,0.0,0.0,0.0,0.0,0.0,0.0,0.0,0.0,0.0,0.0,0.0,0.0,0.0,0.0,0.0,0.0,0.0,0.0,0.5415,0.5899,0.6422,0.6962,0.7411,0.7828,0.8005,0.8156,0.8488,0.8377,0.7937,0.8592,0.9062,0.954,1.0167,1.0692,1.1199,1.1133,1.1277,1.1402,1.1402,1.1281,1.1156,1.1273,1.1031,1.0668,0.0,0.0,0.0,0.0,0.0,0.0,0.0,0.0,0.0,0.0,0.0,0.0,0.0,0.0,0.0,0.0,0.0,0.0,0.0,-1.1799,-1.1121,-1.0086,-1.0143,-0.9766,-0.8837,-0.7787,-0.6857,-0.6059,-0.2531,0.0348,0.2634,0.4724,0.5643,0.547,0.5036,0.5002,0.5076,0.3542,0.3757,0.5108,0.4457,0.4327,0.4597,0.0,0.0,0.0,0.0,0.0,0.0,0.0,0.7619,0.0,0.0,0.0,0.0,0.0,0.9289,0.8999,0.9309,0.8989,0.0,0.0,0.0,0.0,0.0,0.0,0.0,0.0,0.0,0.0,0.0,0.0,0.0,0.0,0.0,0.0,0.0,0.0,0.0,0.0,0.0,0.0,0.0,0.0,0.0,0.0,0.0,0.0,0.0,0.5736,0.5899,0.5588,0.684,0.7499,0.7411,0.8389,0.8675,0.8484,0.9372,0.9372,0.8484,0.8813,0.9116,0.961,1.0456,1.086,1.1039,1.1579,1.1776,1.1776,1.1776,1.1776,1.1776,1.1398,1.1273,1.1273,0.0,0.0,0.0,0.0,0.0,0.0,0.0,0.0,0.0,0.0,0.0,0.0,0.0,0.0,0.0,0.0,0.0,0.0,0.0,-1.2641,-1.2098,-1.1194,-1.0809,-1.0315,-0.9574,-0.7415,-0.5545,-0.4061,-0.1856,0.0663,0.3479,0.4187,0.4268,0.3679,0.3405,0.3501,0.3798,0.2589,0.2417,0.3052,0.2974,0.3181,0.3488,0.0,0.0,0.0,0.0,0.0,0.0,0.0,0.0,0.0,0.0,0.0,0.0,0.8407,0.8331,0.8362,0.8463,0.7601,0.0,0.0,0.0,0.0,0.0,0.0,0.0,0.0,0.0,0.0,0.0,0.0,0.0,0.0,0.0,0.0,0.0,0.0,0.0,0.0,0.0,0.0,0.0,0.0,0.0,0.0,0.0,0.0,0.0,0.5967,0.6535,0.7038,0.7157,0.7599,0.8275,0.8699,0.9102,0.9372,0.9706,0.9596,0.9154,0.9702,1.0013,1.0292,1.0681,1.1028,1.1201,1.1504,1.1581,1.1593,1.1723,1.1651,1.1398,1.1394,1.1152,1.091,0.0,0.0,0.0,0.0,0.0,0.0,0.0,0.0,0.0,0.0,0.0,0.0,0.0,0.0,0.0,0.0,0.0,0.0,0.0,0.0,-1.2551,-1.1694,-1.1126,-1.0336,-0.9306,-0.704,-0.5321,-0.4185,-0.1782,0.053,0.2685,0.2798,0.2572,0.2093,0.1463,0.1465,0.1941,0.11,0.1103,0.1656,0.1993,0.2364,0.2699,0.0,0.0,0.0,0.0,0.0,0.0,0.0,0.0,0.0,0.0,0.0,0.0,0.7338,0.7135,0.6921,0.7174,0.0,0.0,0.0,0.0,0.0,0.0,0.0,0.0,0.0,0.0,0.0,0.0,0.0,0.0,0.0,0.0,0.0,0.0,0.0,0.0,0.0,0.0,0.0,0.0,0.0,0.0,0.0,0.0,0.0,0.0,0.6633,0.7135,0.7745,0.7812,0.8161,0.8794,0.9318,0.9809,1.0143,1.0253,1.0253,1.0036,1.0257,1.0315,1.0416,1.0823,1.1066,1.1009,1.1423,1.15,1.1516,1.1579,1.1522,1.1273,1.1031,1.0789,1.0547,0.0,0.0,0.0,0.0,0.0,0.0,0.0,0.0,0.0,0.0,0.0,0.0,0.0,0.0,0.0,0.0,0.0,0.0,0.0,0.0,-1.2549,-1.1703,-1.0985,-0.99,-0.8403,-0.671,-0.5794,-0.5695,-0.227,-0.023,0.0469,0.0,0.0532,0.0438,0.0,-0.0892,-0.0293,-0.0526,-0.0,0.0945,0.1452,0.1815,0.2191,0.2673,0.0,0.0,0.0,0.0,0.0,0.0,0.0,0.0,0.0,0.0,0.6234,0.6337,0.5732,0.5207,0.0,0.0,0.0,0.0,0.0,0.0,0.0,0.0,0.0,0.0,0.0,0.0,0.0,0.0,0.0,0.0,0.0,0.0,0.0,0.0,0.0,0.0,0.0,0.0,0.0,0.0,0.0,0.0,0.0,0.0,0.0,0.7604,0.7852,0.8082,0.8655,0.9013,0.901,1.0131,1.0692,1.0802,1.1021,1.1126,1.1126,1.0582,1.0366,1.0374,1.0759,1.092,1.0847,1.1257,1.1459,1.1374,1.1303,1.1257,1.1148,1.0532,1.0283,1.0283,0.0,0.0,0.0,0.0,0.0,0.0,0.0,0.0,0.0,0.0,0.0,0.0,0.0,0.0,0.0,0.0,0.0,0.0,0.0,0.0,-1.2865,-1.2211,-1.0467,-0.9059,-0.8219,-0.6612,-0.5761,-0.5742,-0.3722,0.0,0.0,0.0,0.0,-0.3693,0.0,-0.3275,-0.2394,-0.132,-0.0078,0.126,0.1692,0.206,0.2361,0.2842,0.308,0.0,0.0,0.0,0.0,0.0,0.0,0.0,0.4935,0.4832,0.4728,0.5744,0.4986,0.4123,0.0,0.0,0.0,0.0,0.0,0.0,0.0,0.0,0.0,0.0,0.0,0.0,0.0,0.0,0.0,0.0,0.0,0.0,0.0,0.0,0.0,0.0,0.0,0.0,0.0,0.0,0.0,0.0,0.0,0.0,0.762,0.8289,0.8688,0.892,0.9308,0.9723,1.0154,1.051,1.0911,0.0,1.1236,1.1126,1.1126,1.0802,1.0582,1.0586,1.0733,1.0773,1.0711,1.1005,1.1044,1.0833,1.1012,1.0801,1.0532,1.0172,1.013,0.9993,0.0,0.0,0.0,0.0,0.0,0.0,0.0,0.0,0.0,0.0,0.0,0.0,0.0,0.0,0.0,0.0,0.0,0.0,0.0,0.0,0.0,0.0,-1.0501,-0.9377,-0.8632,-0.7528,-0.6984,-0.6923,0.0,0.0,0.0,0.0,0.0,-0.4923,0.0,-0.3927,-0.3011,-0.1794,-0.0549,0.0708,0.153,0.1977,0.2275,0.2927,0.308,0.3058,0.3487,0.0,0.0,0.0,0.0,0.0,0.0,0.0,0.4026,0.429,0.3655,0.2923,0.0,0.0,0.0,0.0,0.0,0.0,0.0,0.0,0.0,0.0,0.0,0.0,0.0,0.0,0.0,0.0,0.0,0.0,0.0,0.0,0.0,0.0,0.0,0.0,0.0,0.0,0.0,0.0,0.0,0.7704,0.8272,0.8966,0.9391,0.9338,0.9712,1.012,1.055,1.0971,1.135,1.1787,1.1459,1.124,1.0911,1.0802,1.0582,1.0476,1.0692,1.0582,1.0488,1.0891,1.0908,1.0776,1.0717,1.0483,1.031,0.988,0.9617,0.949,0.0,0.0,0.0,0.0,0.0,0.0,0.0,0.0,0.0,0.0,0.0,0.0,0.0,0.0,0.0,0.0,0.0,0.0,0.0,0.0,0.0,0.0,-1.116,-1.0576,-0.9656,-0.9047,-0.8679,-0.8467,0.0,0.0,0.0,0.0,0.0,-0.5084,0.0,-0.4103,-0.3125,-0.2176,-0.1176,-0.0079,0.1207,0.1895,0.2107,0.2756,0.2905,0.288,0.2926,0.2767,0.2599,0.2455,0.0,0.0,0.0,0.0,0.3307,0.2859,0.2348,0.1938,0.0,0.0,0.0,0.0,0.0,0.0,0.0,0.0,0.0,0.0,0.0,0.0,0.0,0.0,0.0,0.0,0.0,0.0,0.0,0.0,0.0,0.0,0.0,0.0,0.0,0.0,0.0,0.0,0.0,0.8206,0.8772,0.9354,0.973,0.9774,1.0163,1.0582,1.0802,1.124,1.1678,1.2005,1.1787,1.135,1.0802,1.0802,1.0582,1.0366,1.0582,1.0582,1.0378,1.0747,1.094,1.0759,1.044,1.0278,1.0185,0.9466,0.9112,0.8762,0.0,0.0,0.0,0.0,0.0,0.0,0.0,0.0,0.0,0.0,0.0,0.0,0.0,0.0,0.0,0.0,0.0,0.0,-1.3885,0.0,0.0,-1.2459,-1.2818,-1.2586,-1.1723,-1.1038,-1.0492,0.0,0.0,0.0,0.0,0.0,0.0,-0.6297,0.0,0.0,-0.3973,-0.2503,-0.1569,-0.0944,0.0724,0.1565,0.2022,0.2501,0.2643,0.2604,0.2788,0.2734,0.2595,0.2787,0.2261,0.0,0.0,0.0,0.1281,0.2753,0.2427,0.153,0.0,0.0,0.0,0.0,0.0,0.0,0.0,0.0,0.0,0.0,0.0,0.0,0.0,0.0,0.0,0.0,0.0,0.0,0.0,0.0,0.0,0.0,0.0,0.0,0.0,0.0,0.0,0.0,0.7171,0.7905,0.835,0.9031,0.9719,1.0301,1.0486,1.0911,1.1459,1.124,1.1455,1.2005,1.2005,1.1673,1.1017,1.1017,1.0911,1.0692,1.0692,1.0582,1.0366,1.061,1.0488,1.0183,1.0088,0.9953,0.9824,0.9003,0.8619,0.8262,0.0,0.0,0.0,0.0,0.0,0.0,0.0,0.0,0.0,0.0,0.0,0.0,0.0,0.0,0.0,-1.5599,-1.5383,-1.4997,-1.4305,-1.3792,-1.3593,-1.3748,-1.3758,-1.3466,-1.2694,-1.2343,-1.1834,0.0,0.0,0.0,0.0,-0.8332,-0.7493,0.0,0.0,0.0,0.0,-0.2707,-0.1843,-0.1045,0.0416,0.1179,0.1434,0.1659,0.1767,0.1853,0.1696,0.1533,0.1364,0.1364,0.083,0.0187,0.0375,0.0,0.0,0.0,0.0762,0.0,0.0,0.0,0.0,0.0,0.0,0.0,0.0,0.0,0.0,0.0,0.0,0.0,0.0,0.0,0.0,0.0,0.0,0.0,0.0,0.0,0.0,0.0,0.0,0.0,0.0,0.0,0.0,0.0,0.7658,0.8403,0.8758,0.9351,0.9928,1.0416,1.0505,1.0812,1.1345,1.1131,1.1345,1.1787,1.1787,1.1568,1.1126,1.0911,1.0802,1.0692,1.0692,1.0582,1.0257,1.0476,1.0189,0.9817,0.9475,0.9402,0.9226,0.8379,0.78,0.7343,0.0,0.0,0.0,0.0,0.0,0.0,0.0,0.0,0.0,0.0,0.0,0.0,0.0,0.0,0.0,0.0,-1.5441,-1.5352,-1.4929,-1.4621,-1.4576,-1.4684,-1.4431,-1.3931,-1.3259,-1.312,0.0,0.0,0.0,0.0,-0.9683,-0.8761,-0.793,0.0,-0.5526,0.0,0.0,0.0,0.0,-0.1215,-0.0084,0.0592,0.0753,0.087,0.0874,0.0864,0.053,0.0178,-0.0,-0.0268,-0.0725,-0.1102,-0.1285,-0.1117,0.0,0.0,0.0,0.0,0.0,0.0,0.0,0.0,0.0,0.0,0.0,0.0,0.0,0.0,0.0,0.0,0.0,0.0,0.0,0.0,0.0,0.0,0.0,0.0,0.0,0.0,0.0,0.0,0.0,0.0,0.0,0.0,0.8143,0.8881,0.921,0.9603,1.0079,1.0674,1.056,1.0779,1.1345,1.1345,1.1455,1.1568,1.1678,1.1459,1.1126,1.0911,1.0692,1.0582,1.0582,1.0363,0.9923,1.0036,0.9816,0.9372,0.8927,0.8702,0.8592,0.7715,0.6937,0.6379,0.0,0.0,0.0,0.0,0.0,0.0,0.0,0.0,0.0,0.0,0.0,0.0,-1.563,-1.5779,-1.5654,-1.4711,-1.5458,-1.5902,-1.5733,-1.5491,-1.5207,-1.4985,-1.4812,0.0,-1.341,-1.3404,0.0,0.0,0.0,0.0,-1.0255,-0.9119,-0.8098,-0.7225,-0.6018,-0.4798,-0.3684,0.0,0.0,0.0,0.0,0.0,0.0,0.0,0.0,0.0,0.0,-0.0783,-0.096,-0.1245,-0.1973,-0.2877,-0.3325,-0.2734,-0.1855,0.0,0.0,0.0,0.0,0.0,0.0,0.0,0.0,0.0,0.0,0.0,0.0,0.0,0.0,0.0,0.0,0.0,0.0,0.0,0.0,0.0,0.0,0.0,0.0,0.0,0.0,0.0,0.0,0.0,0.0,0.0,0.8052,0.8733,0.9541,0.976,1.026,1.1318,1.1147,1.1337,1.2005,1.2005,1.1787,1.1568,1.1896,1.1673,1.1126,1.1126,1.0802,1.0366,1.0366,0.9809,0.9034,0.9265,0.9154,0.8595,0.8484,0.8374,0.7934,0.7046,0.6379,0.571,0.0,0.0,0.0,0.0,0.0,0.0,0.0,0.0,0.0,0.0,0.0,0.0,0.0,-1.5331,-1.5324,-1.5062,-1.564,-1.5873,-1.5643,-1.5732,-1.5567,-1.5047,-1.4543,-1.3978,-1.3411,-1.2945,0.0,0.0,0.0,-1.0585,-1.0098,-0.9203,-0.8179,-0.6955,-0.5788,-0.4659,-0.3609,-0.2567,0.0,0.0,0.0,0.0,0.0,0.0,0.0,0.0,0.0,0.0,0.0,-0.245,-0.2922,-0.3494,-0.3406,-0.3182,-0.3057,-0.2818,-0.3059,0.0,0.0,0.0,0.0,0.0,0.0,0.0,0.0,0.0,0.0,0.0,0.0,0.0,0.0,0.0,0.0,0.0,0.0,0.0,0.0,0.0,0.0,0.0,0.0,0.0,0.0,0.0,0.0,0.0,0.0,0.9133,0.9529,0.9946,1.0531,1.1083,1.123,1.1527,1.2001,1.2005,1.1896,1.1568,1.1678,1.1568,1.1126,1.0907,1.0582,0.9926,0.9816,0.9372,0.892,0.8819,0.8488,0.7937,0.7709,0.7376,0.6818,0.6151,0.5485,0.4927,0.0,0.0,0.0,0.0,0.0,0.0,0.0,0.0,0.0,0.0,0.0,0.0,0.0,0.0,-1.5518,-1.6006,-1.6013,-1.5948,-1.5917,-1.5522,-1.505,-1.4399,-1.3863,-1.3479,-1.3161,-1.2655,0.0,0.0,0.0,0.0,0.0,-0.9534,-0.8487,-0.7267,-0.6328,-0.502,0.0,0.0,0.0,-0.1612,0.0,0.0,-0.1449,0.0,0.0,0.0,0.0,0.0,0.0,0.0,0.0,-0.4086,-0.3875,-0.3855,-0.3835,-0.3605,-0.3764,0.0,0.0,0.0,0.0,0.0,0.0,0.0,0.0,0.0,0.0,0.0,0.0,0.0,0.0,0.0,0.0,0.0,0.0,0.0,0.0,0.0,0.0,0.0,0.0,0.0,0.0,0.0,0.0,0.0,0.0,0.0,1.0117,1.0474,1.086,1.1394,1.161,1.195,1.2228,1.2121,1.1944,1.1801,1.1688,1.1398,1.1126,1.0802,1.0363,0.9816,0.9375,0.904,0.8592,0.8263,0.7823,0.7271,0.7157,0.671,0.6042,0.5485,0.4925,0.448,0.0,0.0,0.0,0.0,0.0,0.0,0.0,0.0,0.0,0.0,0.0,0.0,0.0,0.0,0.0,-1.735,-1.6482,-1.6003,-1.6598,-1.5012,-1.3673,-1.3073,-1.2923,-1.2772,-1.2636,-1.265,0.0,0.0,0.0,0.0,0.0,0.0,-0.9139,-0.8332,-0.7666,-0.595,-0.3446,0.0,-0.2354,-0.1649,0.0,-0.2118,-0.219,0.0,0.0,0.0,-0.3682,-0.3738,0.0,-0.5039,0.0,0.0,0.0,0.0,-0.4284,-0.4288,0.0,0.0,0.0,0.0,0.0,0.0,0.0,0.0,0.0,0.0,0.0,0.0,0.0,0.0,0.0,0.0,0.0,0.0,0.0,0.0,0.0,0.0,0.0,0.0,0.0,0.0,0.0,0.0,0.0,0.0,0.9225,1.0117,1.1096,1.1202,1.1508,1.2216,1.2437,1.2643,1.2643,1.2334,1.213,1.2129,1.181,1.1482,1.1114,1.0785,1.0347,0.9801,0.9133,0.8579,0.7925,0.7712,0.7271,0.6715,0.6715,0.6267,0.571,0.5152,0.4706,0.4369,0.0,0.0,0.0,0.0,0.0,0.0,0.0,0.0,0.0,0.0,0.0,0.0,0.0,-1.4268,-1.4904,-1.5507,-1.5519,-1.5423,-1.5227,-1.4643,-1.4002,-1.3311,-1.3338,-1.3167,-1.2801,-1.2883,0.0,0.0,0.0,0.0,0.0,0.0,0.0,0.0,-0.7967,-0.6837,-0.5386,-0.4691,0.0,0.0,-0.288,-0.2918,0.0,0.0,0.0,0.0,0.0,-0.4465,-0.4804,0.0,-0.5307,-0.5244,0.0,0.0,0.0,0.0,0.0,0.0,-0.6291,0.0,0.0,0.0,0.0,0.0,0.0,0.0,0.0,0.0,0.0,0.0,0.0,0.0,0.0,0.0,0.0,0.0,0.0,0.0,0.0,0.0,0.0,0.0,0.0,0.0,0.0,0.0,1.0023,1.0614,1.1194,1.1701,1.2143,1.2597,1.2557,1.2643,1.2854,1.2643,1.2265,1.1907,1.1803,1.1413,1.0729,1.0623,1.02,0.9462,0.903,0.8498,0.7666,0.7639,0.7163,0.6383,0.6383,0.5822,0.4815,0.4929,0.4482,0.381,0.0,0.0,0.0,0.0,0.0,0.0,0.0,0.0,0.0,0.0,0.0,0.0,0.0,0.0,-1.5042,-1.4958,-1.4835,-1.4842,-1.4697,-1.4287,-1.395,-1.3784,-1.3675,-1.3595,-1.34,-1.3323,0.0,0.0,0.0,0.0,0.0,0.0,0.0,0.0,0.0,0.0,0.0,0.0,0.0,0.0,-0.4,0.0,0.0,-0.4247,-0.4735,0.0,0.0,0.0,-0.5445,-0.5576,-0.5686,0.0,0.0,0.0,0.0,0.0,0.0,0.0,0.0,0.0,0.0,0.0,0.0,0.0,-0.7343,-0.7267,0.0,0.0,0.0,0.0,0.0,0.0,0.0,0.0,0.0,0.0,0.0,0.0,0.0,0.0,0.0,0.0,0.0,0.7932,0.8832,1.0134,1.0717,1.1203,1.178,1.2501,1.287,1.3057,1.2998,1.3073,1.3173,1.2873,1.2612,1.2297,1.1996,1.1531,1.0889,1.0677,1.016,0.9328,0.901,0.8486,0.7765,0.76,0.7013,0.6146,0.6191,0.5654,0.477,0.4918,0.4482,0.4033,0.0,0.0,0.0,0.0,0.0,0.0,0.0,0.0,0.0,0.0,0.0,0.0,0.0,0.0,0.0,-1.515,-1.4617,-1.441,-1.4757,-1.4106,-1.395,-1.4406,-1.409,-1.3912,-1.4119,-1.3893,0.0,0.0,0.0,0.0,0.0,0.0,0.0,0.0,0.0,0.0,0.0,0.0,0.0,-0.5063,-0.5466,-0.5464,0.0,0.0,-0.5958,-0.6271,-0.5768,-0.5708,-0.5851,-0.6004,-0.5956,0.0,0.0,0.0,0.0,0.0,-0.6153,0.0,0.0,0.0,0.0,0.0,0.0,0.0,-0.7579,-0.7647,-0.7741,0.0,0.0,0.0,0.0,0.0,0.0,0.0,0.0,0.0,0.0,0.0,0.0,0.0,0.0,0.0,0.7226,0.8226,0.9529,1.1039,1.1311,1.1785,1.2759,1.3249,1.3539,1.3539,1.3539,1.3539,1.3539,1.3055,1.2959,1.3066,1.2279,1.1779,1.1339,1.0824,1.0103,0.9272,0.9068,0.8543,0.8017,0.7706,0.6987,0.6071,0.606,0.5669,0.5035,0.489,0.4697,0.4369,-0.6132,0.0,0.0,0.0,0.0,0.0,0.0,0.0,0.0,0.0,0.0,0.0,0.0,0.0,0.0,0.0,-1.5178,-1.5057,-1.5256,-1.5065,-1.4911,-1.4784,-1.4801,-1.4631,-1.454,-1.4365,0.0,0.0,0.0,0.0,0.0,0.0,0.0,0.0,0.0,0.0,0.0,0.0,0.0,-0.9005,-0.7995,0.0,-0.7091,-0.7031,-0.7011,-0.6917,-0.6384,-0.6238,-0.6351,-0.6027,-0.5709,-0.551,0.0,0.0,0.0,-0.6332,0.0,0.0,0.0,0.0,0.0,0.0,0.0,0.0,-0.7304,-0.7502,-0.7601,0.0,0.0,0.0,0.0,0.0,0.0,0.0,0.0,0.0,0.0,0.0,0.0,0.0,0.0,0.0,0.7739,0.8844,0.9937,1.1124,1.1991,1.2662,1.305,1.3346,1.3539,1.3539,1.3539,1.3539,1.3539,1.3443,1.3175,1.2829,1.2438,1.1968,1.1217,1.0721,1.0129,0.9534,0.9026,0.8524,0.7925,0.7519,0.693,0.627,0.6083,0.5394,0.4484,0.4715,0.4429,0.3811,-0.4642,0.0,0.0,0.0,0.0,0.0,0.0,0.0,0.0,0.0,0.0,0.0,0.0,0.0,0.0,0.0,0.0,0.0,0.0,-1.5846,-1.5749,-1.5819,-1.5508,-1.5158,-1.4734,-1.4482,0.0,0.0,0.0,0.0,0.0,0.0,0.0,0.0,0.0,0.0,0.0,0.0,-1.1188,-1.1119,-0.9569,0.0,-0.8906,-0.8539,-0.8231,-0.7948,-0.7258,-0.6732,-0.6381,-0.6239,-0.6025,0.0,0.0,-0.5983,-0.6102,0.0,-0.6446,-0.6639,0.0,0.0,0.0,-0.7341,0.0,0.0,0.0,-0.7839,-0.7939,0.0,0.0,0.0,0.0,0.0,0.0,0.0,0.0,0.0,0.0,0.0,0.0,0.0,0.0,0.0,0.703,0.8432,1.0122,1.2222,1.2878,1.3397,1.39,1.4113,1.4406,1.4503,1.4509,1.4443,1.431,1.4016,1.3721,1.3335,1.2856,1.2175,1.1389,1.0801,1.0216,0.9529,0.9027,0.8531,0.8137,0.7437,0.6914,0.6521,0.6063,0.5413,0.4751,0.479,0.4526,0.4033,-0.3423,0.0,0.0,0.0,0.0,0.0,0.0,0.0,0.0,0.0,0.0,0.0,0.0,0.0,0.0,0.0,0.0,0.0,0.0,0.0,0.0,-1.6896,-1.6305,-1.5793,-1.5366,-1.4949,-1.4457,0.0,0.0,0.0,0.0,0.0,0.0,0.0,0.0,0.0,0.0,0.0,0.0,-1.2324,0.0,-1.0369,-1.0541,-0.9956,-0.941,-0.8882,-0.8125,-0.7223,-0.6482,-0.657,-0.6495,-0.6364,-0.6136,-0.6168,0.0,0.0,0.0,0.0,0.0,0.0,0.0,0.0,0.0,-0.7543,0.0,0.0,0.0,0.0,0.0,0.0,0.0,0.0,0.0,0.0,0.0,0.0,0.0,0.0,0.0,0.0,0.0,0.0,0.0,0.797,1.0168,1.3019,1.3482,1.3934,1.4606,1.506,1.536,1.5511,1.566,1.5557,1.5274,1.4777,1.4364,1.3927,1.3267,1.2475,1.1559,1.0979,1.0299,0.962,0.8928,0.855,0.8287,0.7496,0.6918,0.6553,0.6037,0.5518,0.4986,0.4751,0.4505,0.435,-0.2647,-0.292,0.0,0.0,0.0,0.0,0.0,0.0,0.0,0.0,0.0,0.0,0.0,0.0,0.0,0.0,0.0,0.0,-1.8845,0.0,0.0,0.0,-1.709,-1.6885,-1.6835,-1.6272,-1.5682,0.0,0.0,0.0,0.0,0.0,0.0,0.0,-1.3347,0.0,0.0,0.0,-1.2982,0.0,-1.2332,-1.1952,0.0,-1.1006,-1.0307,-0.951,-0.8417,-0.7504,-0.6968,0.0,-0.677,-0.6453,0.0,-0.6447,-0.6086,-0.6286,0.0,0.0,0.0,0.0,0.0,0.0,-0.7042,0.0,0.0,0.0,-0.7743,-0.7942,0.0,0.0,0.0,0.0,0.0,0.0,0.0,0.0,0.0,0.0,0.0,0.0,0.0,0.0,0.0,0.8218,1.0435,1.2201,1.3522,1.4213,1.4346,1.5246,1.5758,1.5797,1.6036,1.6036,1.5737,1.5439,1.4937,1.4241,1.3479,1.2609,1.1662,1.0734,1.0086,0.9712,0.8769,0.8284,0.8122,0.7356,0.6645,0.6042,0.5751,0.5313,0.4894,0.4455,0.4105,0.3955,-0.1587,-0.209,0.0,0.0,0.0,0.0,0.0,0.0,0.0,0.0,0.0,0.0,0.0,0.0,0.0,0.0,0.0,-1.8891,0.0,0.0,0.0,0.0,0.0,0.0,-1.6641,-1.6296,-1.5779,-1.5286,-1.4959,0.0,0.0,0.0,0.0,0.0,-1.3067,0.0,-1.2933,0.0,-1.2934,0.0,0.0,0.0,0.0,-1.1365,-1.0503,-0.9595,-0.8677,-0.8108,-0.7718,0.0,-0.7371,0.0,0.0,0.0,0.0,0.0,0.0,0.0,0.0,0.0,0.0,0.0,0.0,0.0,-0.7637,0.0,-0.8333,0.0,0.0,0.0,0.0,0.0,0.0,0.0,-0.6334,0.0,0.0,0.0,0.0,0.0,0.0,0.0,0.0,0.0,0.0,0.0,1.1996,1.3774,1.5226,1.5882,1.6662,1.7495,1.7258,1.6992,1.6676,1.6096,1.5383,1.4272,1.3713,1.2741,1.1492,1.0847,1.0292,0.974,0.8897,0.8374,0.8065,0.7213,0.662,0.6145,0.5748,0.5251,0.4669,0.4287,0.403,0.3885,-0.0246,0.0,0.0,0.0,0.0,0.0,0.0,0.0,0.0,0.0,0.0,0.0,-1.5666,-1.6982,0.0,0.0,-1.9129,-1.9011,0.0,0.0,-1.8229,0.0,0.0,0.0,0.0,0.0,-1.6062,-1.5604,0.0,0.0,0.0,0.0,0.0,0.0,0.0,-1.3028,-1.3297,0.0,0.0,-1.2799,-1.2005,-1.1819,-1.1879,-1.1307,-1.0574,-0.9716,-0.9116,-0.8711,-0.8535,-0.8174,-0.7939,0.0,-0.7545,0.0,0.0,0.0,0.0,0.0,-0.6353,0.0,0.0,0.0,0.0,0.0,0.0,0.0,0.0,0.0,0.0,0.0,0.0,0.0,0.0,0.0,0.0,0.0,0.0,0.0,0.0,0.0,0.0,0.0,0.0,0.0,0.0,0.8898,1.099,1.3219,1.563,1.6319,1.7147,1.8371,1.8044,1.7675,1.7261,1.6415,1.5424,1.4214,1.3585,1.2539,1.1121,1.0673,1.0127,0.9396,0.8658,0.8044,0.7622,0.6876,0.6392,0.6029,0.5574,0.4984,0.4398,0.4131,0.3985,0.3842,0.1606,0.1853,0.0,0.0,0.0,0.0,0.0,0.0,0.0,0.0,0.0,0.0,0.0,0.0,0.0,0.0,0.0,-2.0281,-1.8851,0.0,-1.869,0.0,0.0,-1.7404,0.0,0.0,0.0,0.0,0.0,0.0,0.0,0.0,0.0,0.0,0.0,-1.3548,-1.3267,-1.2808,-1.2054,-1.1283,-1.0991,-1.0959,-1.1128,0.0,-1.0582,-1.0143,-0.97,0.0,0.0,-0.8764,-0.851,0.0,0.0,0.0,0.0,0.0,0.0,0.0,0.0,0.0,0.0,-0.7167,0.0,0.0,0.0,0.0,-0.8038,0.0,0.0,0.0,0.0,0.0,0.0,0.0,0.0,0.0,0.0,0.0,0.0,0.0,0.0,0.0,0.0,0.0,0.0,0.9307,1.101,1.2953,1.4975,1.6106,1.6947,1.7538,1.7827,1.7682,1.7045,1.6138,1.5178,1.4167,1.3033,1.1844,1.0569,0.9708,0.9099,0.8564,0.7595,0.7145,0.7002,0.6273,0.5701,0.5344,0.5153,0.4608,0.3944,0.4092,0.3984,0.3735,0.0,0.0,0.0,0.0,0.0,0.0,0.0,-0.6883,0.0,0.0,0.0,0.0,0.0,-1.8199,-1.8758,0.0,0.0,-1.8933,-1.7822,-1.7808,0.0,0.0,0.0,-1.738,0.0,0.0,0.0,0.0,0.0,0.0,0.0,0.0,0.0,0.0,0.0,-1.3297,0.0,0.0,0.0,0.0,0.0,-1.1168,-1.1754,0.0,0.0,-1.1453,-1.1071,-1.0926,0.0,-0.9947,-0.9464,-0.9161,-0.8732,-0.8067,-0.7474,-0.751,-0.7413,0.0,0.0,0.0,-0.7872,-0.724,0.0,0.0,0.0,0.0,0.0,0.0,0.0,0.0,0.0,0.0,0.0,0.0,0.0,0.0,0.0,0.0,0.0,0.0,0.0,0.0,0.0,0.0,0.0,0.8204,0.8676,0.9926,1.2471,1.3872,1.5307,1.6854,1.7249,1.73,1.7079,1.5987,1.4856,1.3683,1.2577,1.1348,0.9957,0.9507,0.8819,0.8046,0.7403,0.676,0.6198,0.557,0.5127,0.4957,0.4866,0.4458,0.3932,0.4034,0.3781,0.3407,0.1729,0.0,0.0,0.0,0.0,0.0,0.0,0.0,0.0,0.0,-1.4351,0.0,-1.7429,0.0,-1.7782,0.0,-1.8311,-1.8079,-1.6961,-1.7419,0.0,-1.7114,-1.7207,0.0,0.0,0.0,0.0,0.0,0.0,-1.6469,0.0,0.0,0.0,0.0,0.0,0.0,-1.2506,0.0,-1.057,0.0,0.0,-1.1439,0.0,0.0,-1.2802,-1.2815,0.0,-1.216,-1.204,-1.0977,-1.0459,-1.012,-0.934,-0.8732,-0.8204,-0.8113,-0.7915,-0.7643,-0.7406,-0.7791,0.0,-0.7437,-0.7825,0.0,-0.7913,0.0,0.0,0.0,0.0,0.0,0.0,0.0,0.0,0.0,0.0,0.0,0.0,-0.2027,0.0,0.0,0.0,0.0,0.0,0.0,0.3705,0.5761,0.7537,0.9092,0.0,0.0,1.2988,1.4912,1.5369,1.5597,1.5665,1.4537,1.351,1.2492,1.1332,1.0197,0.9082,0.8542,0.7871,0.7123,0.6557,0.6007,0.5462,0.484,0.4574,0.4491,0.4336,0.4032,0.3699,0.3896,0.3662,0.3309,0.0,0.0,0.0,0.0,0.072,0.0,0.0,0.0,-1.1029,0.0,-1.3891,-1.5123,-1.6166,-1.6775,-1.6941,-1.6633,-1.7862,-1.7981,-1.6319,-1.7517,0.0,0.0,-1.7041,-1.7262,-1.7547,0.0,0.0,0.0,0.0,0.0,0.0,0.0,0.0,0.0,-1.4002,0.0,-1.202,-1.0742,-0.9761,-0.9165,-1.0513,-1.1874,-1.3167,-1.4698,-1.4877,-1.4109,-1.3588,-1.3213,-1.2896,-1.1744,-1.1313,-1.1149,-1.0033,-0.9345,-0.8911,-0.864,-0.8434,-0.8199,-0.777,-0.7879,-0.7895,-0.7553,0.0,0.0,0.0,0.0,-0.7039,0.0,0.0,0.0,0.0,0.0,0.0,0.0,0.0,0.0,0.0,0.0,0.0,0.0,0.0,0.0,0.0,0.0963,0.1806,0.2455,0.7567,0.0,0.0,0.0,1.0101,1.1694,1.2374,1.2768,1.2837,1.2007,1.1204,1.0579,0.9342,0.8449,0.7963,0.6912,0.6255,0.5924,0.5113,0.4758,0.4758,0.4165,0.3869,0.3864,0.3748,0.3621,0.3451,0.3781,0.3719,0.3421,0.037,-0.0247,-0.0985,0.0,-0.1439,-0.3519,0.0,0.0,0.0,0.0,-1.4627,-1.5597,-1.6722,-1.6857,-1.6717,-1.6356,-1.6514,0.0,0.0,0.0,0.0,-1.652,-1.7128,-1.7569,-1.7888,-1.7984,0.0,-1.7848,0.0,0.0,-1.6759,0.0,0.0,0.0,0.0,0.0,-1.1673,-1.0299,-0.9824,-1.0009,-1.157,-1.3578,0.0,0.0,-1.6936,-1.677,-1.5116,-1.4342,-1.3858,-1.2681,-1.2049,-1.1413,-1.0636,-0.9946,-0.9345,-0.8907,-0.8625,-0.8333,-0.7829,-0.79,-0.8035,-0.74,-0.7748,-0.8107,0.0,0.0,0.0,0.0,0.0,0.0,0.0,0.0,0.0,0.0,0.0,0.0,0.0,0.0,0.0,-0.4008,0.0,0.0,-0.0289,0.0678,0.1836,0.3221,0.3864,0.0,0.0,0.0,0.0,0.7967,0.9457,1.0353,1.0701,1.0068,0.9448,0.8976,0.7851,0.6904,0.6091,0.5783,0.5277,0.4511,0.4349,0.4042,0.3729,0.3449,0.3252,0.3144,0.3229,0.3132,0.3028,0.3302,0.3411,0.3414,-0.1234,0.0,0.0,-0.4676,0.0,0.0,-0.7087,0.0,0.0,-1.3458,-1.4401,0.0,-1.6369,-1.601,-1.5681,-1.5698,-1.5731,0.0,-1.5651,0.0,0.0,-1.6278,-1.7101,-1.7687,-1.7799,-1.8115,0.0,-1.7661,0.0,0.0,-1.5973,0.0,0.0,0.0,0.0,-1.2286,0.0,-1.0509,-1.0709,-1.1823,-1.3231,0.0,0.0,-1.7962,-1.8138,-1.7803,-1.6217,-1.5147,-1.4398,-1.347,-1.2619,-1.1849,-1.1154,-1.0381,-0.9689,-0.9174,-0.8686,-0.8284,-0.7916,-0.7962,-0.7894,-0.7518,-0.7717,-0.7838,-0.7331,-0.7095,-0.6787,0.0,0.0,0.0,0.0,0.0,0.0,0.0,0.0,0.0,0.0,0.0,0.0,0.0,-0.3872,0.0,-0.1549,-0.0195,0.0875,0.1521,0.1201,0.0,0.0,0.0,0.0,0.457,0.6525,0.7717,0.8119,0.785,0.7407,0.687,0.6257,0.5636,0.5003,0.4152,0.3819,0.3865,0.327,0.3033,0.2902,0.2714,0.2601,0.2575,0.2677,0.2674,0.2654,0.2806,0.2997,0.3199,-0.2837,0.0,0.0,0.0,0.0,0.0,0.0,-0.8479,0.0,-1.2584,0.0,-1.4505,-1.5058,-1.4612,-1.4482,-1.478,0.0,-1.5389,-1.5499,-1.6232,-1.6548,-1.6262,-1.7041,-1.7589,-1.7589,-1.7765,-1.7617,0.0,0.0,0.0,0.0,0.0,0.0,0.0,0.0,0.0,0.0,-1.14,-1.2371,-1.4294,-1.5382,-1.6904,-1.8558,-1.9042,-1.8777,-1.7932,-1.7067,-1.5893,-1.4628,-1.3959,-1.3187,-1.2318,-1.1505,-1.0722,-0.9864,-0.9432,-0.867,-0.8072,-0.8072,-0.7934,-0.7784,-0.7784,-0.7621,-0.7394,-0.6918,-0.6279,-0.5774,-0.5586,-0.5107,-0.4808,0.0,0.0,0.0,0.0,0.0,0.0,0.0,0.0,0.0,0.0,0.0,0.0,-0.2865,-0.1282,-0.0586,-0.115,0.0,0.0,0.0,0.0,0.0,0.2365,0.4053,0.5206,0.5565,0.0,0.529,0.4561,0.4502,0.4299,0.3907,0.216,0.2041,0.3185,0.2017,0.1751,0.2126,0.2001,0.1962,0.2108,0.2145,0.2216,0.2253,0.2302,0.2583,0.2984,0.0,0.0,0.0,0.0,0.0,-0.7583,-0.743,-1.0621,-1.2704,-1.1322,-1.2763,-1.3523,-1.2619,-1.3356,-1.4051,-1.4151,-1.4702,0.0,0.0,0.0,0.0,-1.5995,-1.6839,-1.7279,-1.7279,-1.7049,-1.7001,0.0,0.0,0.0,0.0,0.0,0.0,0.0,0.0,0.0,-1.34,-1.4066,0.0,-1.7273,-1.8073,-1.9079,-2.003,-1.9701,-1.9046,-1.8081,-1.714,-1.6031,-1.4947,-1.4082,-1.3293,-1.2552,-1.1559,-1.0636,-0.9777,-0.917,-0.8576,-0.8159,-0.7986,-0.7953,-0.7914,-0.7914,-0.7721,-0.7515,-0.7235,-0.6702,-0.6182,-0.5705,-0.5246,-0.4824,-0.4301,0.0,0.0,0.0,0.0,0.0,0.0,0.0,0.0,0.0,0.0,-0.2115,0.0,-0.1708,0.0,0.0,0.0,0.0,0.0,0.0,0.0,0.0,0.3645,0.0,0.0,0.0,0.3676,0.256,0.1974,0.1444,0.0917,0.0444,0.0227,0.0303,0.031,0.0321,0.0501,0.1174,0.1636,0.1883,0.1688,0.1625,0.1637,0.1695,0.1964,0.2451,0.0,0.0,0.0,0.0,0.0,0.0,0.0,-0.9647,0.0,-1.0288,-1.1549,-1.2302,-1.1837,-1.2596,-1.3364,-1.3938,-1.4159,-1.4605,-1.5276,-1.5676,-1.5873,-1.5909,-1.6567,0.0,-1.6537,-1.6469,-1.615,-1.5692,0.0,0.0,0.0,0.0,0.0,0.0,0.0,-1.4084,0.0,0.0,0.0,-1.9233,-1.9494,-1.9937,-2.0356,-1.9912,-1.8969,-1.7854,-1.7137,-1.6209,-1.5068,-1.4002,-1.325,-1.261,-1.1489,-1.0636,-0.9864,-0.9257,-0.8709,-0.8337,-0.8072,-0.7978,-0.7893,-0.7875,-0.7468,-0.7171,-0.7208,-0.6637,-0.5961,-0.5574,-0.5189,-0.4634,-0.3922,-0.3534,0.0,0.0,0.0,0.0,0.0,0.0,0.0,0.0,0.0,0.0,0.0,0.0,0.0,0.0,0.0,0.0,0.0,0.0,0.0,0.0,0.0,0.0,0.0,0.0,0.0,0.0593,-0.0074,-0.0585,-0.1001,-0.1707,-0.1963,-0.1744,-0.1336,-0.089,-0.0414,0.0508,0.0872,0.0991,0.1315,0.1335,0.1246,0.1495,0.1861,0.2237,0.0,-0.4843,0.0,0.0,-0.6815,0.0,-0.8111,-0.8108,-0.8427,-0.9615,-1.045,-1.1185,-1.1651,-1.216,-1.2831,-1.3521,-1.3733,-1.4294,-1.5137,-1.5282,-1.5463,-1.5672,-1.6099,-1.6068,-1.5707,-1.5646,-1.5276,0.0,0.0,0.0,0.0,0.0,0.0,0.0,0.0,0.0,0.0,0.0,-1.8964,-2.0939,-2.05,-2.0412,-2.0404,-1.9665,-1.8605,-1.7439,-1.6901,-1.6192,-1.5167,-1.3837,-1.3106,-1.2597,-1.1418,-1.0467,-0.9864,-0.9345,-0.8864,-0.8465,-0.8197,-0.8062,-0.8051,-0.788,-0.7363,-0.6885,-0.7093,-0.6371,-0.5548,-0.5363,-0.485,-0.4239,-0.3704,-0.3525,0.0,0.0,0.0,0.0,0.0,0.0,0.0,0.0,0.0,0.0,0.1515,0.0,0.0,0.0,0.0,0.0,0.0,0.0,0.0,0.0,0.0,0.2397,0.2309,0.0,-0.0,-0.1358,-0.2209,-0.2569,-0.2662,-0.3661,-0.3791,-0.3258,-0.2739,-0.1971,-0.0994,-0.0259,-0.0,0.009,0.1126,0.1431,0.1246,0.1594,0.1959,0.2332,0.0,0.0,0.0,0.0,0.0,0.0,-0.7258,-0.7875,-0.8729,-0.969,-1.029,-1.0653,-1.1137,-1.2013,-1.2483,-1.2598,-1.3537,-1.425,-1.4277,-1.4798,-1.5013,-1.5035,-1.5143,-1.5039,-1.4821,-1.455,-1.4292,0.0,0.0,-1.3465,0.0,0.0,0.0,0.0,0.0,0.0,0.0,-1.9337,-2.1054,-2.2972,-2.1421,-2.0749,-2.0644,-1.9129,-1.7978,-1.7152,-1.6253,-1.5858,-1.5503,-1.3707,-1.3001,-1.2666,-1.139,-1.0381,-0.9515,-0.9087,-0.8686,-0.8371,-0.8193,-0.8146,-0.8093,-0.7907,-0.7511,-0.7108,-0.6936,-0.6147,-0.5472,-0.5178,-0.4307,-0.3633,-0.3543,-0.3194,-0.2725,0.0,0.0,0.0,0.0,0.0,-0.192,-0.0808,0.0,0.0,0.0,0.1921,0.0,0.0,0.1687,0.0,0.0,0.0,0.0,0.3749,0.0,0.1173,0.05,-0.0798,-0.2006,-0.3165,-0.4894,-0.5252,-0.4351,-0.4801,-0.4651,-0.3991,-0.3762,-0.2796,-0.1384,-0.124,-0.0716,0.009,0.122,0.1717,0.2014,0.2093,0.2251,0.2501,0.0,0.0,0.0,0.0,0.0,0.0,0.0,-0.7266,-0.7755,-0.8607,-0.9457,-1.0186,-1.055,-1.1418,-1.2039,-1.2267,-1.2907,-1.3561,-1.418,-1.4147,-1.4237,-1.4708,-1.4534,-1.419,-1.3925,-1.3755,-1.3501,0.0,0.0,0.0,0.0,0.0,0.0,0.0,0.0,-1.6721,-1.8032,-1.876,-1.9774,-2.0834,-1.9905,-1.9392,-1.9036,-1.8205,-1.7414,-1.6595,-1.598,-1.5536,-1.4893,-1.351,-1.2968,-1.2638,-1.1216,-1.0231,-0.9538,-0.8953,-0.875,-0.8425,-0.7973,-0.7848,-0.7911,-0.7521,-0.7076,-0.6825,-0.6533,-0.6007,-0.5373,-0.4925,-0.4087,-0.3448,-0.3387,-0.3013,-0.2724,0.0,0.0,0.0,0.0,0.0,0.0,-0.0202,0.0,0.1111,0.0,0.0,0.0,0.0,0.0,0.0,0.0,0.0,0.0,0.278,0.0,-0.0509,-0.1339,-0.2871,-0.4371,-0.5793,-0.6309,-0.6247,-0.5705,-0.5732,-0.5152,-0.411,-0.3514,-0.2779,-0.2042,-0.154,-0.0823,0.0092,0.086,0.1553,0.2144,0.2102,0.2248,0.26,-0.4004,0.0,-0.4943,0.0,-0.5667,-0.6231,-0.6447,-0.6712,-0.7094,-0.7696,-0.8699,-0.9454,-1.0061,-1.084,-1.1362,-1.1808,-1.2257,-1.2908,-1.3547,-1.3381,-1.3546,-1.4066,-1.3746,0.0,-1.3091,-1.2983,-1.2778,-1.2506,-1.2351,0.0,0.0,0.0,0.0,0.0,-1.566,-1.6555,-1.7218,-1.7323,-1.7711,-1.8218,-1.7949,-1.7707,-1.7327,-1.7227,-1.6696,-1.6069,-1.5655,-1.5064,-1.4423,-1.313,-1.2659,-1.2274,-1.089,-1.0074,-0.9371,-0.8792,-0.85,-0.8266,-0.7626,-0.7478,-0.7511,-0.6891,-0.6623,-0.6449,-0.6026,-0.5635,-0.514,-0.4428,-0.3791,-0.3357,-0.3119,-0.2826,-0.2523,-0.2119,0.0,0.0,0.0,-0.0707,0.0,0.0,0.101,0.1718,0.2425,0.2527,0.0,0.0,0.0,0.0,0.0,0.0,0.0,0.0,0.0,0.0,0.0,-0.4949,-0.6385,-0.7774,-0.7506,-0.7246,-0.6908,-0.6323,-0.5518,-0.4376,-0.3332,-0.2842,-0.2539,-0.1564,-0.0557,0.0281,0.0969,0.1767,0.2462,0.2308,0.2444,0.2891,-0.4318,-0.4439,-0.4539,-0.5192,-0.554,-0.5873,-0.6018,-0.6558,-0.698,-0.757,-0.7796,-0.8358,-0.9697,-1.038,-1.0878,-1.122,-1.1899,-1.2356,-1.2157,-1.2659,-1.288,0.0,0.0,-1.2552,-1.2334,-1.2329,-1.2208,-1.198,0.0,0.0,-1.2473,0.0,-1.4307,-1.4801,-1.5532,-1.614,-1.6434,-1.5519,-1.5388,-1.5793,-1.5862,-1.5862,-1.5835,-1.6089,-1.6028,-1.5668,-1.4981,-1.4496,-1.4064,-1.2847,-1.2138,-1.1506,-1.0353,-0.9694,-0.917,-0.8464,-0.7968,-0.764,-0.7103,-0.7026,-0.6906,-0.6306,-0.6179,-0.6042,-0.5256,-0.4761,-0.4407,-0.3713,-0.3336,-0.306,-0.2816,-0.2623,-0.2119,-0.1313,0.0,0.0,0.0,0.0,0.0,0.101,0.1718,0.2324,0.2725,0.2826,0.0,0.0,0.0,0.0,0.0,0.0,0.0,-0.2565,-0.3163,0.0,-0.5962,-0.7098,-0.8002,-0.8627,-0.8815,-0.8727,-0.8105,-0.6697,-0.5722,-0.4919,-0.376,-0.3083,-0.2772,-0.1109,-0.0,0.0668,0.1754,0.2553,0.3147,0.2907,0.313,0.3655,-0.4254,-0.4409,-0.4555,-0.5142,-0.5577,-0.5772,-0.5501,-0.5947,-0.628,-0.6393,-0.6894,-0.7625,-0.8455,-0.9402,-1.0186,0.0,-1.1239,-1.152,0.0,-1.1677,-1.1784,-1.2137,-1.1851,-1.1734,-1.1716,-1.1969,-1.1953,-1.1688,0.0,0.0,0.0,-1.3236,-1.3642,-1.3802,-1.4267,-1.4698,-1.4996,-1.488,-1.4977,-1.5274,-1.53,-1.5371,-1.5466,-1.5484,-1.5057,-1.4472,-1.4706,-1.4322,-1.3567,-1.2406,-1.1847,-1.1232,-0.9734,-0.917,-0.8958,-0.839,-0.7944,-0.7429,-0.6867,-0.662,-0.641,-0.5639,-0.5583,-0.5561,-0.5142,-0.4518,-0.3988,-0.3332,-0.3041,-0.2861,-0.2816,-0.2498,-0.209,-0.1815,-0.1617,0.0,0.0,0.0,0.1414,0.212,0.2625,0.3029,0.3327,0.3428,0.0,0.0,0.0,0.0,0.0,0.0,0.0,0.0,-0.3912,0.0,-0.57,-0.7289,-0.8167,-0.8559,-0.8436,-0.7997,-0.7111,-0.6119,-0.5304,-0.4576,-0.3716,-0.2885,-0.2036,-0.0857,0.0193,0.117,0.2385,0.3003,0.3203,0.3321,0.353,0.3854,-0.4303,-0.4598,-0.4759,-0.5333,-0.5526,-0.5481,-0.5092,-0.5397,-0.5714,-0.571,-0.6439,-0.7163,-0.7863,-0.8592,0.0,-1.0333,-1.0739,-1.1038,-1.1296,-1.1159,-1.1232,-1.1494,-1.1335,-1.1358,-1.1492,-1.1658,0.0,-1.1585,-1.1785,-1.1975,-1.237,-1.2667,-1.2845,-1.3011,-1.3307,-1.3601,-1.3896,-1.4106,-1.4496,-1.479,-1.479,-1.4829,-1.4754,-1.4752,-1.4266,-1.3531,-1.3743,-1.3233,-1.2225,-1.1508,-1.1106,-1.0668,-0.9265,-0.8732,-0.8524,-0.8165,-0.7691,-0.7134,-0.6479,-0.6197,-0.595,-0.5165,-0.5007,-0.4904,-0.4464,-0.3962,-0.3537,-0.3169,-0.3057,-0.2953,-0.2791,-0.2165,-0.1662,-0.1595,-0.1299,-0.0802,0.0202,0.0,0.2122,0.0,0.0,0.0,0.0,0.3729,0.3729,0.0,0.0,0.0,0.0,0.0,0.0,-0.2696,-0.4651,0.0,-0.6236,-0.7622,-0.8265,-0.8368,-0.7989,-0.7356,-0.6343,-0.5694,-0.4951,-0.4113,-0.36,-0.2755,-0.1515,-0.0486,0.0591,0.1688,0.2813,0.3331,0.3531,0.3831,0.4151,0.4398,-0.4581,-0.476,0.0,0.0,-0.5409,0.0,-0.5067,-0.5051,-0.5161,-0.5498,-0.6152,-0.6905,-0.7826,-0.8067,-0.8671,-0.9792,0.0,0.0,0.0,-1.098,-1.111,-1.082,-1.0998,-1.1292,-1.1585,-1.1389,-1.1389,-1.1585,-1.1585,-1.1585,-1.159,-1.1883,-1.2078,-1.237,-1.2662,-1.2856,-1.305,-1.3329,-1.3698,-1.4172,-1.4154,-1.3998,-1.3812,-1.4052,-1.3673,-1.2843,-1.2384,-1.1548,-1.0402,-1.0234,-1.0083,-0.9772,-0.887,-0.8372,-0.8059,-0.7771,-0.736,-0.6813,-0.6084,-0.5797,-0.5543,-0.4797,-0.4557,-0.4281,-0.3607,-0.3293,-0.3162,-0.3118,-0.3179,-0.3038,-0.2751,-0.1835,-0.1054,-0.0783,-0.0491,-0.0099,0.0705,0.0,0.2628,0.0,0.0,0.0,0.0,0.3729,0.3729,0.0,0.0,0.0,0.0,0.0,-0.27,-0.3824,-0.518,-0.6291,-0.7218,-0.7944,-0.8117,-0.7923,-0.7282,-0.6638,-0.5894,-0.5334,-0.4575,-0.3624,-0.3446,-0.2612,-0.1277,0.0197,0.1294,0.2122,0.2928,0.3531,0.4034,0.4343,0.4698,0.5089,0.0,0.0,-0.5202,-0.5301,-0.5244,-0.4964,-0.4486,-0.4662,-0.4847,-0.4732,-0.5654,-0.6539,-0.6782,-0.7517,-0.8112,-0.8759,-0.9463,-0.9858,-0.9859,-1.0343,-1.0567,-1.052,-1.0703,-1.1096,-1.1585,-1.159,-1.159,-1.1585,-1.1389,-1.1389,-1.1585,-1.1477,-1.177,-1.237,-1.2068,-1.2262,-1.2851,-1.2762,-1.2775,-1.2836,-1.3031,-1.3015,-1.2877,-1.3026,-1.2796,-1.2242,-1.1523,-1.1046,-1.0707,-0.9393,-0.9251,-0.9328,-0.8516,-0.8028,-0.7624,-0.7507,-0.7093,-0.6545,-0.5815,-0.5465,-0.5175,-0.4508,-0.4328,-0.4165,-0.3523,-0.3328,-0.3112,-0.2924,-0.2655,-0.2316,-0.2351,-0.1814,-0.1037,-0.0,0.0687,0.1186,0.1409,0.2119,0.0,0.0,0.3533,0.3533,0.3729,0.3629,0.3225,0.0,0.0,0.0,0.0,-0.1716,-0.27,-0.3528,-0.5113,-0.6111,-0.6646,-0.6813,-0.6703,-0.6253,-0.5619,-0.5057,-0.4569,-0.4446,-0.3992,-0.3219,-0.241,-0.1517,-0.0502,0.0916,0.1847,0.247,0.3448,0.3932,0.414,0.4918,0.5265,0.5413,-0.4374,-0.4697,-0.489,-0.489,-0.474,-0.4598,-0.4254,-0.442,-0.447,-0.4436,-0.5316,-0.6158,-0.6588,-0.7324,-0.7934,-0.8489,-0.9086,-0.9489,-0.9633,-1.0153,-1.0423,-1.0422,-1.0806,-1.1198,-1.1585,-1.1487,-1.1394,-1.1394,-1.1292,-1.1292,-1.1389,-1.1287,-1.1482,-1.2073,-1.1676,-1.1727,-1.2097,-1.1968,-1.2056,-1.2314,-1.2373,-1.2348,-1.2174,-1.2376,-1.2004,-1.1199,-1.1026,-1.0548,-0.9908,-0.8885,-0.8593,-0.8597,-0.8059,-0.768,-0.7432,-0.7062,-0.6769,-0.6453,-0.5631,-0.5356,-0.4961,-0.4143,-0.3948,-0.3852,-0.329,-0.308,-0.295,-0.2753,-0.2419,-0.21,-0.1913,-0.1315,-0.0374,0.0771,0.1346,0.1642,0.1887,0.2392,0.0,0.3185,0.3288,0.3288,0.3086,0.2886,0.2388,0.1692,0.0602,0.0,-0.1817,-0.2724,-0.3199,-0.3433,-0.4655,-0.547,-0.5797,-0.5763,-0.5542,-0.5222,-0.4814,-0.4218,-0.3322,-0.3062,-0.2593,-0.1813,-0.1336,-0.0621,0.0311,0.1451,0.2177,0.2588,0.3354,0.3751,0.3987,0.4852,0.5339,0.564,-0.4368,-0.4474,-0.4562,-0.4574,-0.4351,-0.4124,-0.4124,-0.4065,-0.4112,-0.4382,-0.512,-0.5938,-0.6682,-0.7302,-0.7817,-0.8314,-0.8938,-0.9305,-0.9388,-1.0171,-1.0588,-1.0417,-1.09,-1.1292,-1.1585,-1.1394,-1.1194,-1.11,-1.11,-1.1096,-1.1096,-1.1068,-1.1249,-1.1536,-1.1225,-1.1218,-1.1288,-1.1261,-1.1446,-1.1812,-1.186,-1.1732,-1.1488,-1.1775,-1.1148,-1.0236,-1.0627,-0.9948,-0.8736,-0.8548,-0.8197,-0.7768,-0.7595,-0.7507,-0.7326,-0.6609,-0.6511,-0.633,-0.5512,-0.5146,-0.4851,-0.3871,-0.3645,-0.3607,-0.3144,-0.2817,-0.2667,-0.2667,-0.2379,-0.1986,-0.1678,-0.0742,0.0373,0.1331,0.1508,0.17,0.2338,0.0,0.2357,0.2452,0.2648,0.2552,0.2066,0.1575,0.1181,0.1083,-0.0599,-0.2017,-0.2724,-0.3531,-0.3806,-0.3551,-0.4224,-0.4758,-0.4851,-0.4851,-0.4699,-0.4388,-0.4208,-0.3359,-0.2107,-0.151,-0.0815,-0.0104,-0.0104,0.042,0.117,0.1886,0.2183,0.2382,0.2856,0.3274,0.3733,0.4584,0.5214,0.5676,-0.4669,-0.4715,-0.4645,-0.4155,-0.4052,-0.3941,-0.3715,-0.3995,-0.4385,-0.4589,-0.539,-0.615,-0.6556,-0.7061,-0.7533,-0.772,-0.8407,-0.8952,-0.9173,-0.975,-1.0246,-1.0413,-1.09,-1.1292,-1.1585,-1.1585,-1.1292,-1.09,-1.09,-1.0703,-1.0507,-1.0334,-1.0546,-1.1029,-1.0533,-1.0622,-1.1071,-1.0859,-1.0675,-1.0576,-1.0828,-1.0727,-1.0522,-1.0819,-1.044,-0.9781,-1.0008,-0.938,-0.8285,-0.7918,-0.7665,-0.7595,-0.7507,-0.7323,-0.7051,-0.652,-0.6447,-0.6284,-0.5576,-0.5039,-0.4589,-0.3769,-0.3645,-0.3607,-0.3144,-0.2632,-0.2385,-0.2385,-0.1977,-0.1587,-0.161,-0.0374,0.0745,0.0856,0.1254,0.1843,0.2497,0.0,0.0687,0.1274,0.0882,0.0296,-0.02,-0.0401,-0.0702,-0.1405,-0.1711,-0.2219,-0.2725,-0.3331,-0.363,-0.362,-0.4548,-0.4854,-0.4571,-0.4474,-0.4197,-0.3542,-0.2431,-0.1472,-0.069,0.0301,0.0816,0.1037,0.1686,0.2231,0.2344,0.2018,0.1894,0.1869,0.2172,0.2793,0.3436,0.4179,0.4781,0.5364,-0.4867,-0.471,-0.443,-0.3921,-0.3928,-0.3817,-0.3708,-0.4116,-0.4616,-0.4998,-0.5586,-0.6246,-0.6839,-0.7434,-0.7811,-0.8045,-0.8528,-0.8858,-0.9145,-0.9673,-1.0117,-1.0413,-1.0806,-1.1096,-1.1394,-1.1194,-1.1096,-1.0801,-1.0708,-1.0453,-1.0246,-1.0258,-1.0351,-1.0332,-1.0315,-1.0318,-1.0481,-1.0361,-1.0274,-1.0353,-1.0425,-1.0381,-1.012,-1.0299,-0.996,-0.9533,-0.9078,-0.8732,-0.8304,-0.758,-0.7316,-0.7323,-0.7323,-0.7143,-0.6877,-0.67,-0.6257,-0.5725,-0.528,-0.4926,-0.4572,-0.3946,-0.3794,-0.3639,-0.3182,-0.275,-0.2402,-0.2309,-0.1849,-0.1485,-0.1499,-0.0939,-0.0095,0.0966,0.0484,0.0,0.0,0.0195,-0.0393,-0.0098,-0.0589,-0.0984,-0.119,-0.1391,-0.169,-0.1988,-0.2108,-0.2221,-0.2522,-0.2927,-0.3331,-0.3737,-0.4301,-0.4261,-0.3243,-0.3636,-0.3442,-0.2756,-0.2482,-0.1495,0.01,0.1006,0.1429,0.1454,0.1885,0.1902,0.1705,0.116,0.1052,0.1263,0.1562,0.1993,0.2568,0.3366,0.3954,0.4654,-0.5072,-0.4611,-0.424,-0.3937,-0.3939,-0.4045,-0.4045,-0.4557,-0.5049,-0.5498,-0.5982,-0.6545,-0.725,-0.7611,-0.7987,-0.8283,-0.8539,-0.883,-0.917,-0.9661,-1.007,-1.0408,-1.0703,-1.0998,-1.1194,-1.0998,-1.0779,-1.0635,-1.044,-1.0145,-0.9858,-1.0103,-1.0099,-0.9841,-1.0016,-1.0103,-0.9995,-1.0022,-1.0038,-1.012,-1.0125,-1.0038,-0.9864,-0.9777,-0.9529,-0.9099,-0.8456,-0.8288,-0.8224,-0.7499,-0.7139,-0.7051,-0.7054,-0.6877,-0.6704,-0.6615,-0.6083,-0.5371,-0.5013,-0.4837,-0.4572,-0.4036,-0.3859,-0.3767,-0.3317,-0.2869,-0.2512,-0.2243,-0.1909,-0.1564,-0.1294,-0.1317,-0.0862,0.0973,0.0,0.0,0.0,-0.0587,-0.1277,-0.1375,-0.1669,-0.1868,-0.1973,-0.2074,-0.2076,-0.1878,-0.2004,-0.212,-0.2219,-0.232,-0.2523,-0.3029,-0.3633,-0.3531,-0.232,-0.2928,-0.2828,-0.2022,-0.2326,-0.1415,0.0404,0.1212,0.1531,0.1454,0.1869,0.1675,0.1059,0.0315,0.021,0.0424,0.0943,0.138,0.1739,0.2498,0.3175,0.3766,-0.5265,-0.4878,-0.4387,-0.4249,-0.4363,-0.4574,-0.4894,-0.5348,-0.5803,-0.631,-0.6625,-0.6954,-0.7547,-0.7524,-0.7641,-0.8129,-0.8277,-0.8536,-0.8983,-0.9468,-1.0031,-1.0404,-1.0904,-1.1198,-1.1194,-1.1194,-1.0807,-1.0132,-1.0132,-0.9754,-0.9206,-0.9213,-0.9397,-0.9565,-0.9632,-0.98,-0.9975,-0.9975,-0.9878,-0.9602,-0.9611,-0.9441,-0.9345,-0.9087,-0.8732,-0.8288,-0.846,-0.8116,-0.7595,-0.7584,-0.7316,-0.7051,-0.6881,-0.6612,-0.6432,-0.6169,-0.5816,-0.5282,-0.4839,-0.475,-0.4572,-0.4036,-0.3859,-0.3767,-0.3317,-0.3047,-0.2778,-0.2333,-0.2066,-0.1628,-0.0922,-0.0753,-0.0572,-0.0,0.0,0.0,0.1344,-0.0388,-0.1768,-0.226,-0.2454,-0.2666,-0.3017,-0.2517,-0.2013,-0.161,-0.1612,-0.1613,-0.1613,-0.1411,-0.1009,-0.0707,-0.2322,-0.313,-0.2623,-0.3033,-0.263,-0.1617,-0.0707,-0.0101,0.0101,0.1111,0.1224,0.0726,0.2389,0.2599,0.1665,0.0529,-0.0528,-0.1251,0.0212,0.1172,0.1707,0.2135,0.2565,0.3109,-0.5795,-0.5298,-0.4902,-0.4834,-0.5041,-0.5244,-0.5346,-0.6129,-0.6707,-0.6911,-0.7469,-0.7836,-0.8038,-0.8297,-0.849,-0.8687,-0.8725,-0.8839,-0.9095,-0.9382,-0.9897,-1.0395,-1.0687,-1.0817,-1.0817,-1.0591,-1.0485,-1.0126,-1.0032,-0.9753,-0.9387,-0.9582,-0.9575,-0.954,-0.9726,-0.9864,-0.9951,-0.9781,-0.9694,-0.9602,-0.9437,-0.917,-0.8903,-0.8907,-0.856,-0.812,-0.8288,-0.7845,-0.7234,-0.7316,-0.7051,-0.6697,-0.6609,-0.6435,-0.608,-0.5544,-0.5144,-0.4757,-0.4289,-0.4302,-0.4391,-0.4036,-0.3767,-0.3587,-0.3317,-0.2959,-0.2602,-0.2243,-0.1885,-0.1451,-0.0843,-0.0474,-0.0192,-0.0,0.0,0.1001,0.0585,-0.0494,-0.1294,-0.118,-0.1487,-0.1701,-0.1713,-0.121,-0.0806,-0.0605,-0.0202,-0.0101,-0.0303,-0.0,0.0101,-0.0101,-0.0202,-0.0606,-0.1312,-0.1212,-0.1314,-0.1617,-0.0505,-0.0202,-0.0505,0.0303,0.0608,0.0714,0.1736,0.1634,0.0714,0.0514,0.0414,0.0416,0.0733,0.1372,0.2024,0.1917,0.2237,0.2774,-0.6139,-0.5741,-0.5441,-0.5539,-0.5839,-0.6037,-0.6137,-0.6839,-0.7338,-0.7437,-0.7895,-0.8259,-0.8361,-0.8464,-0.8623,-0.8812,-0.8842,-0.8858,-0.9007,-0.925,-0.9678,-1.0219,-1.0391,-1.0418,-1.0418,-1.0277,-1.0172,-1.0113,-0.9833,-0.9644,-0.9464,-0.9727,-0.9739,-0.9602,-0.9777,-0.9864,-0.9864,-0.9611,-0.9524,-0.9345,-0.9174,-0.8907,-0.864,-0.8556,-0.8348,-0.7952,-0.7948,-0.7476,-0.701,-0.7058,-0.6721,-0.6377,-0.6239,-0.5963,-0.5582,-0.5051,-0.4628,-0.4312,-0.394,-0.3868,-0.3879,-0.3755,-0.3587,-0.3408,-0.305,-0.2691,-0.2424,-0.2154,-0.1884,-0.1448,-0.0651,0.0095,0.048,0.0294,0.0497,0.0696,0.0488,-0.0099,-0.0498,-0.0197,-0.0399,-0.0504,-0.0202,0.0303,0.0706,0.0806,0.131,0.1412,0.1111,0.1212,0.1111,0.0808,0.1414,0.1313,0.0202,0.0202,-0.0101,-0.0901,-0.01,-0.0,-0.0298,-0.0499,-0.01,0.0701,0.1008,0.0707,0.0101,0.0712,0.1335,0.1766,0.1454,0.1778,0.2323,0.1994,0.2096,0.2413,-0.6434,-0.6237,-0.6139,-0.6334,-0.6639,-0.6942,-0.7135,-0.7441,-0.7743,-0.7939,-0.7906,-0.7911,-0.8208,-0.7919,-0.7909,-0.8371,-0.8302,-0.8359,-0.8808,-0.8991,-0.9372,-0.9833,-1.0107,-1.02,-1.02,-1.02,-1.0104,-0.9912,-0.9723,-0.9531,-0.9349,-0.9519,-0.9602,-0.9602,-0.9602,-0.9602,-0.9607,-0.9542,-0.9279,-0.8911,-0.8652,-0.8568,-0.8568,-0.812,-0.7748,-0.7603,-0.735,-0.708,-0.6722,-0.6875,-0.6586,-0.626,-0.5857,-0.529,-0.486,-0.4599,-0.4274,-0.4034,-0.3783,-0.3364,-0.306,-0.3192,-0.3226,-0.3047,-0.2602,-0.2513,-0.2423,-0.1974,-0.2064,-0.1705,-0.0269,0.0835,0.1421,0.0836,0.067,0.0878,0.1434,0.097,0.0491,0.0491,0.0499,0.0707,0.1111,0.1819,0.2324,0.2725,0.2724,0.2724,0.2724,0.202,0.1818,0.2422,0.2222,0.2022,0.1617,0.1111,0.08,0.0687,0.0687,0.068,0.0668,-0.0876,-0.0785,0.0492,0.02,-0.0,0.0101,0.1134,0.1974,0.2389,0.2283,0.2385,0.2691,0.2438,0.2221,0.2026,-0.669,-0.6649,-0.6712,-0.681,-0.7003,-0.7296,-0.7296,-0.7601,-0.7825,-0.7729,-0.816,-0.8411,-0.832,-0.8406,-0.8548,-0.8639,-0.8573,-0.8496,-0.8637,-0.8694,-0.8816,-0.8991,-0.9474,-0.9731,-0.9731,-0.9947,-1.0018,-0.9962,-0.987,-0.9837,-0.9777,-0.9689,-0.9602,-0.9602,-0.9432,-0.9345,-0.9345,-0.9178,-0.8911,-0.864,-0.8652,-0.8304,-0.7848,-0.7903,-0.7741,-0.7336,-0.7224,-0.6899,-0.6453,-0.6331,-0.6011,-0.5597,-0.5373,-0.4939,-0.4493,-0.4493,-0.4006,-0.354,-0.3514,-0.3074,-0.273,-0.2811,-0.2745,-0.2583,-0.2273,-0.2107,-0.2027,-0.1968,-0.1256,-0.054,-0.0091,0.0833,0.1405,0.1322,0.1241,0.1338,0.1405,0.133,0.1251,0.1251,0.1469,0.1693,0.1716,0.2222,0.2624,0.2725,0.2725,0.2725,0.2725,0.2523,0.2423,0.2422,0.2322,0.2222,0.1921,0.1516,0.1301,0.1277,0.1178,0.1069,0.0858,0.0575,0.0484,0.0589,0.1383,0.1497,0.1211,0.2031,0.2443,0.2546,0.2442,0.2544,0.2746,0.2528,0.2321,0.2223,-0.696,-0.7,-0.7158,-0.7254,-0.735,-0.7446,-0.7446,-0.7655,-0.7785,-0.7597,-0.8005,-0.824,-0.8244,-0.8461,-0.8625,-0.8723,-0.8625,-0.8568,-0.8568,-0.8568,-0.8568,-0.8568,-0.9021,-0.9263,-0.9263,-0.9495,-0.9607,-0.9694,-0.9607,-0.9607,-0.9694,-0.9519,-0.9519,-0.9432,-0.917,-0.899,-0.8995,-0.8644,-0.8468,-0.8281,-0.8218,-0.7929,-0.7567,-0.7576,-0.7388,-0.7072,-0.6808,-0.6491,-0.6044,-0.594,-0.5496,-0.5118,-0.4949,-0.4587,-0.406,-0.406,-0.3589,-0.3134,-0.3179,-0.2835,-0.2574,-0.2529,-0.2407,-0.2279,-0.1967,-0.1899,-0.1745,-0.1503,-0.0981,-0.036,0.0456,0.1012,0.139,0.1489,0.15,0.1498,0.1375,0.1489,0.1603,0.1697,0.1919,0.2146,0.2269,0.2584,0.2803,0.2925,0.2927,0.2927,0.2927,0.2826,0.2725,0.2725,0.2623,0.2523,0.2323,0.202,0.1801,0.1571,0.156,0.1538,0.1225,0.1603,0.1619,0.1456,0.235,0.2581,0.2219,0.2725,0.2925,0.3026,0.2924,0.3026,0.3228,0.2927,0.2826,0.2624,-0.7299,-0.7279,-0.7289,-0.7577,-0.758,-0.758,-0.758,-0.757,-0.756,-0.756,-0.771,-0.78,-0.808,-0.8209,-0.8292,-0.8568,-0.8568,-0.8568,-0.8568,-0.8568,-0.8568,-0.8568,-0.8828,-0.8911,-0.8911,-0.8911,-0.9087,-0.9262,-0.9087,-0.9087,-0.9345,-0.9349,-0.9262,-0.9257,-0.8815,-0.8636,-0.8552,-0.8116,-0.7937,-0.7906,-0.7666,-0.7591,-0.7473,-0.7231,-0.6923,-0.6722,-0.6304,-0.5899,-0.5578,-0.5459,-0.5086,-0.4675,-0.4675,-0.4196,-0.3641,-0.3561,-0.3192,-0.2826,-0.2826,-0.2668,-0.2431,-0.2275,-0.2269,-0.2175,-0.1759,-0.1703,-0.1557,-0.087,-0.0972,-0.0716,0.0986,0.1367,0.1376,0.144,0.1459,0.1467,0.1439,0.1642,0.1847,0.185,0.207,0.2285,0.2571,0.271,0.286,0.3218,0.3222,0.3225,0.323,0.3027,0.3027,0.323,0.3022,0.2819,0.2819,0.2512,0.2192,0.1669,0.1926,0.1982,0.1851,0.2221,0.2526,0.2765,0.3119,0.3278,0.323,0.323,0.343,0.3629,0.3629,0.383,0.4034,0.3736,0.3433,0.313,-0.7545,-0.7517,-0.7597,-0.7421,-0.7421,-0.7421,-0.7421,-0.7504,-0.7517,-0.7517,-0.7838,-0.8078,-0.8167,-0.8408,-0.8564,-0.8568,-0.8568,-0.8568,-0.8568,-0.8568,-0.8568,-0.8568,-0.8828,-0.8823,-0.8656,-0.8999,-0.9257,-0.9262,-0.9432,-0.9519,-0.9515,-0.9345,-0.9262,-0.9262,-0.8823,-0.8564,-0.8564,-0.8476,-0.8222,-0.792,-0.7881,-0.7612,-0.7141,-0.6909,-0.6669,-0.6304,-0.5877,-0.5584,-0.5326,-0.5202,-0.4833,-0.4453,-0.4453,-0.4121,-0.3712,-0.3553,-0.3308,-0.2982,-0.2826,-0.2511,-0.2275,-0.2196,-0.2057,-0.1925,-0.1715,-0.1481,-0.1251,-0.0778,-0.0437,-0.0088,0.0268,0.09,0.1443,0.1436,0.1441,0.1533,0.1706,0.1801,0.1909,0.2125,0.2324,0.2531,0.2568,0.2869,0.2996,0.3155,0.3357,0.3479,0.3531,0.3632,0.3731,0.3831,0.3482,0.3258,0.306,0.2722,0.233,0.1866,0.2119,0.2172,0.213,0.2405,0.2805,0.3339,0.3505,0.3671,0.3831,0.3831,0.4034,0.4236,0.4033,0.4034,0.4236,0.4034,0.3632,0.313,-0.7801,-0.7656,-0.7534,-0.7444,-0.7355,-0.7261,-0.7444,-0.7467,-0.7507,-0.768,-0.8028,-0.8201,-0.8201,-0.8396,-0.8398,-0.8312,-0.8304,-0.8304,-0.8304,-0.8304,-0.8304,-0.8304,-0.8385,-0.8385,-0.8304,-0.8645,-0.8905,-0.9087,-0.9087,-0.9122,-0.9117,-0.8944,-0.8811,-0.8636,-0.8304,-0.8138,-0.8138,-0.8052,-0.7828,-0.7571,-0.7492,-0.7241,-0.6901,-0.6669,-0.6373,-0.6044,-0.574,-0.5404,-0.5168,-0.5015,-0.4701,-0.4384,-0.4384,-0.4073,-0.3604,-0.3526,-0.3215,-0.2904,-0.2826,-0.2511,-0.2196,-0.2196,-0.1962,-0.1735,-0.1597,-0.1615,-0.1481,-0.1107,-0.0086,0.0613,0.0357,0.0897,0.1436,0.1436,0.1525,0.1615,0.1794,0.1974,0.2163,0.237,0.2555,0.2759,0.2812,0.2912,0.3031,0.3091,0.329,0.3515,0.3583,0.3783,0.3995,0.4033,0.3764,0.3629,0.3529,0.2982,0.2682,0.2517,0.2587,0.2466,0.2255,0.2815,0.3223,0.3673,0.3907,0.4063,0.4433,0.4535,0.4638,0.4738,0.4638,0.4638,0.474,0.4336,0.3732,0.313,-0.797,-0.768,-0.7595,-0.7507,-0.7323,-0.7231,-0.7591,-0.7595,-0.768,-0.794,-0.8089,-0.8158,-0.8245,-0.8263,-0.8182,-0.8024,-0.8012,-0.8012,-0.8012,-0.8012,-0.8012,-0.8012,-0.8016,-0.8016,-0.8012,-0.8185,-0.8422,-0.8727,-0.8645,-0.8566,-0.8577,-0.8412,-0.8246,-0.8098,-0.7855,-0.7773,-0.7773,-0.7525,-0.7432,-0.7394,-0.7013,-0.6784,-0.6748,-0.6383,-0.6022,-0.5786,-0.5634,-0.5326,-0.4937,-0.4937,-0.4701,-0.4384,-0.4384,-0.3995,-0.3526,-0.3448,-0.3137,-0.2826,-0.2746,-0.2433,-0.2118,-0.2118,-0.1806,-0.1572,-0.1572,-0.1676,-0.1713,-0.1341,-0.0,0.1134,0.0893,0.1166,0.1436,0.1436,0.1705,0.1794,0.1885,0.2243,0.2513,0.2603,0.2784,0.2892,0.2939,0.2943,0.3061,0.3123,0.332,0.3539,0.361,0.3913,0.4146,0.4112,0.4137,0.4096,0.3997,0.3433,0.3112,0.3018,0.3038,0.2764,0.2385,0.3157,0.367,0.392,0.423,0.4569,0.4935,0.514,0.524,0.524,0.524,0.524,0.514,0.4539,0.3835,0.3229,-0.7948,-0.7856,-0.7768,-0.7507,-0.7323,-0.7316,-0.8025,-0.794,-0.8028,-0.846,-0.8249,-0.8072,-0.8239,-0.8162,-0.804,-0.8016,-0.8012,-0.8012,-0.8012,-0.8012,-0.8012,-0.8012,-0.8189,-0.8271,-0.8012,-0.8271,-0.8296,-0.8089,-0.8508,-0.8582,-0.8395,-0.8395,-0.8383,-0.8357,-0.8102,-0.793,-0.793,-0.793,-0.7849,-0.7713,-0.7205,-0.6874,-0.6592,-0.6103,-0.5709,-0.5398,-0.5321,-0.5087,-0.4779,-0.4779,-0.4467,-0.4157,-0.4157,-0.3999,-0.3684,-0.3295,-0.3139,-0.2982,-0.2431,-0.2119,-0.1886,-0.1729,-0.1492,-0.1335,-0.1335,-0.1339,-0.1359,-0.1336,-0.0422,0.0514,0.1158,0.1345,0.1525,0.1794,0.1794,0.1974,0.2334,0.2424,0.2603,0.2784,0.2873,0.2877,0.2884,0.2886,0.3,0.3245,0.3529,0.3747,0.4107,0.4661,0.4808,0.4628,0.4923,0.4778,0.4206,0.4143,0.3704,0.2892,0.2999,0.2858,0.2573,0.3488,0.391,0.3924,0.4485,0.4924,0.514,0.514,0.5338,0.5536,0.534,0.524,0.514,0.4336,0.3831,0.3528,-0.7944,-0.7768,-0.768,-0.768,-0.7503,-0.7471,-0.7989,-0.7978,-0.8025,-0.8264,-0.8098,-0.8054,-0.8138,-0.8057,-0.799,-0.789,-0.7882,-0.7878,-0.7715,-0.7715,-0.7715,-0.7715,-0.7799,-0.7878,-0.7715,-0.7965,-0.7965,-0.7715,-0.8081,-0.8294,-0.8197,-0.812,-0.7932,-0.7737,-0.7573,-0.7516,-0.7427,-0.7529,-0.7395,-0.7171,-0.6885,-0.6594,-0.6311,-0.594,-0.5594,-0.5302,-0.5063,-0.4854,-0.4698,-0.4543,-0.4309,-0.4079,-0.4079,-0.3921,-0.3597,-0.3244,-0.2923,-0.2683,-0.227,-0.1981,-0.1694,-0.1617,-0.1478,-0.1335,-0.1335,-0.0943,-0.0555,-0.0574,0.0165,0.0918,0.1292,0.1386,0.1479,0.1759,0.1939,0.2124,0.2419,0.2604,0.2784,0.3051,0.305,0.3139,0.332,0.332,0.3332,0.3453,0.3817,0.4055,0.4182,0.4746,0.4981,0.4706,0.495,0.4775,0.4118,0.4093,0.3674,0.3048,0.2991,0.2858,0.267,0.3442,0.3688,0.3789,0.4321,0.4638,0.4738,0.5041,0.5138,0.5135,0.5037,0.4836,0.4435,0.3932,0.3731,0.3633]},{"header":{"parameterUnit":"m.s-1","parameterCategory":1,"la1":30.6,"la2":28.766,"lo1":-90.7593,"lo2":-88.6598,"dy":0.0162,"dx":0.0183,"nx":116,"ny":114,"refTime":"2023-08-06T12:00:00:Z","depth":0,"parameterNumber":3,"parameterNumberName":"V-component_of_WINDS"},"data":[0.0,0.0,0.0,0.0,0.0,0.0,0.0,0.0,0.0,0.0,0.0,0.0,0.0,0.0,0.0,0.0,0.0,0.0,0.0,0.0,0.0,0.0,0.0,0.0,0.0,0.0,0.0,0.0,0.0,0.0,0.0,0.0,0.0,0.0,0.0,0.0,0.0,0.0,0.0,0.0,0.0,0.0,0.0,0.0,0.0,0.0,0.0,0.0,0.0,0.0,0.0,0.0,0.0,0.0,0.0,0.0,0.0,0.0,0.0,0.0,0.0,0.0,0.0,0.0,0.0,0.0,0.0,0.0,0.0,0.0,0.0,0.0,0.0,0.0,0.0,0.0,0.0,0.0,0.0,0.0,0.0,0.0,0.0,0.0,0.0,0.0,0.0,0.0,0.0,0.0,0.0,0.0,0.0,0.0,0.0,0.0,0.0,0.0,0.0,0.0,0.0,0.0,0.0,0.0,0.0,0.0,0.0,0.0,0.0,0.0,0.0,0.0,0.0,0.0,0.0,0.0,0.0,0.0,0.0,0.0,0.0,0.0,0.0,0.0,0.0,0.0,0.0,0.0,0.0,0.0,0.0,0.0,0.0,0.0,0.0,0.0,0.0,0.0,0.0,0.0,0.0,0.0,0.0,0.0,0.0,0.0,0.0,0.0,0.0,0.0,0.0,0.0,0.0,0.0,0.0,0.0,0.0,0.0,0.0,0.0,0.0,0.0,0.0,0.0,0.0,0.0,0.0,0.0,0.0,0.0,0.0,0.0,0.0,0.0,0.0,0.0,0.0,0.0,0.0,0.0,0.0,0.0,0.0,0.0,0.0,0.0,0.0,0.0,0.0,0.0,0.0,0.0,0.0,0.0,0.0,0.0,0.0,0.0,0.0,0.0,0.0,0.0,0.0,0.0,0.0,0.0,0.0,0.0,0.0,0.0,0.0,0.0,0.0,0.0,0.0,0.0,0.0,0.0,0.0,0.0,0.0,0.0,0.0,0.0,0.0,0.0,0.0,0.0,0.0,0.0,0.0,0.0,0.0,0.0,0.0,0.0,0.0,0.0,0.0,0.0,0.0,0.0,0.0,0.0,0.0,0.0,0.0,0.0,0.0,0.0,0.0,0.0,0.0,0.0,0.0,0.0,0.0,0.0,0.0,0.0,0.0,0.0,0.0,0.0,0.0,0.0,0.0,0.0,0.0,0.0,0.0,0.0,0.0,0.0,0.0,0.0,0.0,0.0,0.0,0.0,0.0,0.0,0.0,0.0,0.0,0.0,0.0,0.0,0.0,0.0,0.0,0.0,0.0,0.0,0.0,0.0,0.0,0.0,0.0,0.0,0.0,0.0,0.0,0.0,0.0,0.0,0.0,0.0,0.0,0.0,0.0,0.0,0.0,0.0,0.0,0.0,0.0,0.0,0.0,0.0,0.0,0.0,0.0,0.0,0.0,0.0,0.0,0.0,0.0,0.0,0.0,0.0,0.0,0.0,0.0,0.0,0.0,0.0,0.0,0.0,0.0,0.0,0.0,0.0,0.0,0.0,0.0,0.0,0.0,0.0,0.0,0.0,0.0,0.0,0.0,0.0,0.0,0.0,0.0,0.0,0.0,0.0,0.0,0.0,0.0,0.0,0.0,0.0,0.0,0.0,0.0,0.0,0.0,0.0,0.0,0.0,0.0,0.0,0.0,0.0,0.0,0.0,0.0,0.0,0.0,0.0,0.0,0.0,0.0,0.0,0.0,0.0,0.0,0.0,0.0,0.0,0.0,0.0,0.0,0.0,0.0,0.0,0.0,0.0,0.0,0.0,0.0,0.0,0.0,0.0,0.0,0.0,0.0,0.0,0.0,0.0,0.0,0.0,0.0,0.0,0.0,0.0,0.0,0.0,0.0,0.0,0.0,0.0,0.0,0.0,0.0,0.0,0.0,0.0,0.0,0.0,0.0,0.0,0.0,0.0,0.0,0.0,0.0,0.0,0.0,0.0,0.0,0.0,0.0,0.0,0.0,0.0,0.0,0.0,0.0,0.0,0.0,0.0,0.0,0.0,0.0,0.0,0.0,0.0,0.0,0.0,0.0,0.0,0.0,0.0,0.0,0.0,0.0,0.0,0.0,0.0,0.0,0.0,0.0,0.0,0.0,0.0,0.0,0.0,0.0,0.0,0.0,0.0,0.0,0.0,0.0,0.0,0.0,0.0,0.0,0.0,0.0,0.0,0.0,0.0,0.0,0.0,0.0,0.0,0.0,0.0,0.0,0.0,0.0,0.0,0.0,0.0,0.0,0.0,0.0,0.0,0.0,0.0,0.0,0.0,0.0,0.0,0.0,0.0,0.0,0.0,0.0,0.0,0.0,0.0,0.0,0.0,0.0,0.0,0.0,0.0,0.0,0.0,0.0,0.0,0.0,0.0,0.0,0.0,0.0,0.0,0.0,0.0,0.0,0.0,0.0,0.0,0.0,0.0,0.0,0.0,0.0,0.0,0.0,0.0,0.0,0.0,0.0,0.0,0.0,0.0,0.0,0.0,0.0,0.0,0.0,0.0,0.0,0.0,0.0,0.0,0.0,0.0,0.0,0.0,0.0,0.0,0.0,0.0,0.0,0.0,0.0,0.0,0.0,0.0,0.0,0.0,0.0,0.0,0.0,0.0,0.0,0.0,0.0,0.0,0.0,0.0,0.0,0.0,0.0,0.0,0.0,0.0,0.0,0.0,0.0,0.0,0.0,0.0,0.0,0.0,0.0,0.0,0.0,0.0,0.0,0.0,0.0,0.0,0.0,0.0,0.0,0.0,0.0,0.0,0.0,0.0,0.0,0.0,0.0,0.0,0.0,0.0,0.0,0.0,0.0,0.0,0.0,0.0,0.0,0.0,0.0,0.0,0.0,0.0,0.0,0.0,0.0,0.0,0.0,0.0,0.0,0.0,0.0,0.0,0.0,0.0,0.0,0.0,0.0,0.0,0.0,0.0,0.0,0.0,0.0,0.0,0.0,0.0,0.0,0.0,0.0,0.0,0.0,0.0,0.0,0.0,0.0,0.0,0.0,0.0,0.0,0.0,0.0,0.0,0.0,0.0,0.0,0.0,0.0,0.0,0.0,0.0,0.0,0.0,0.0,0.0,0.0,0.0,0.0,0.0,0.0,0.0,0.0,0.0,0.0,0.0,0.0,0.0,0.0,0.0,0.0,0.0,0.0,0.0,0.0,0.0,0.0,0.0,0.0,0.0,0.0,0.0,0.0,0.0,0.0,0.0,0.0,0.0,0.0,0.0,0.0,0.0,0.0,0.0,0.0,0.0,0.0,0.0,0.0,0.0,0.0,0.0,0.0,0.0,0.0,0.0,0.0,0.0,0.0,0.0,0.0,0.0,0.0,0.0,0.0,0.0,0.0,0.0,0.0,0.0,0.0,0.0,0.0,0.0,0.0,0.0,0.0,0.0,0.0,0.0,0.0,0.0,0.0,0.0,0.0,0.0,0.0,0.0,0.0,0.0,0.0,0.0,0.0,0.0,0.0,0.0,0.0,0.0,0.0,0.0,0.0,0.0,0.0,0.0,0.0,0.0,0.0,0.0,0.0,0.0,0.0,0.0,0.0,0.0,0.0,0.0,0.0,0.0,0.0,0.0,0.0,0.0,0.0,0.0,0.0,0.0,0.0,0.0,0.0,0.0,0.0,0.0,0.0,0.0,0.0,0.0,0.0,0.0,0.0,0.0,0.0,0.0,0.0,0.0,0.0,0.0,0.0,0.0,0.0,0.0,0.0,0.0,0.0,0.0,0.0,0.0,0.0,0.0,0.0,0.0,0.0,0.0,0.0,0.0,0.0,0.0,0.0,0.0,0.0,0.0,0.0,0.0,0.0,0.0,0.0,0.0,0.0,0.0,0.0,0.0,0.0,0.0,0.0,0.0,0.0,0.0,0.0,0.0,0.0,0.0,0.0,0.0,0.0,0.0,0.0,0.0,0.0,0.0,0.0,0.0,0.0,0.0,0.0,0.0,0.0,0.0,0.0,0.0,0.0,0.0,0.0,0.0,0.0,0.0,0.0,0.0,0.0,0.0,0.0,0.0,0.0,0.0,0.0,0.0,0.0,0.0,0.0,0.0,0.0,0.0,0.0,0.0,0.0,0.0,0.0,0.0,0.0,0.0,0.0,0.0,0.0,0.0,0.0,0.0,0.0,0.0,0.0,0.0,0.0,0.0,0.0,0.0,0.0,0.0,0.0,0.0,0.0,0.0,0.0,0.0,0.0,0.0,0.0,0.0,0.0,0.0,0.0,0.0,0.0,0.0,0.0,0.0,0.0,0.0,0.0,0.0,0.0,0.0,0.0,0.0,0.0,0.0,0.0,0.0,0.0,0.0,0.0,0.0,0.0,0.0,0.0,0.0,0.0,0.0,0.0,0.0,0.0,0.0,0.0,0.0,0.0,0.0,0.0,0.0,0.0,0.0,0.0,0.0,0.0,0.0,0.0,0.0,0.0,0.0,0.0,0.0,0.0,0.0,0.0,0.0,0.0,0.0,0.0,0.0,0.0,0.0,0.0,0.0,0.0,0.0,0.0,0.0,0.0,0.0,0.0,0.0,0.0,0.0,0.0,0.0,0.0,0.0,0.0,0.0,0.0,0.0,0.0,0.0,0.0,0.0,0.0,0.0,0.0,0.0,0.0,0.0,0.0,0.0,0.0,0.0,0.0,0.0,0.0,0.0,0.0,0.0,0.0,0.0,0.0,0.0,0.0,0.0,0.0,0.0,0.0,0.0,0.0,0.0,0.0,0.0,0.0,0.0,0.0,0.0,0.0,0.0,0.0,0.0,0.0,0.0,0.0,0.0,0.0,0.0,0.0,0.0,0.0,0.0,0.0,0.0,0.0,0.0,0.0,0.0,0.0,0.0,0.0,0.0,0.0,0.0,0.0,0.0,0.0,0.0,0.0,0.0,0.0,0.0,0.0,0.0,0.0,0.0,0.0,0.0,0.0,0.0,0.0,0.0,0.0,0.0,0.0,0.0,0.0,0.0,0.0,0.0,0.0,0.0,0.0,0.0,0.0,0.0,0.0,0.0,0.0,0.0,0.0,0.0,0.0,0.0,0.0,0.0,0.0,0.0,0.0,0.0,0.0,0.0,0.0,0.0,0.0,0.0,0.0,0.0,0.0,0.0,0.0,0.0,0.0,0.0,0.0,0.0,0.0,0.0,0.0,0.0,0.0,0.0,0.0,0.0,0.0,0.0,0.0,0.0,0.0,0.0,0.0,0.0,0.0,0.0,0.0,0.0,0.0,0.0,0.0,0.0,0.0,0.0,0.0,0.0,0.0,0.0,0.0,0.0,0.0,0.0,0.0,0.0,0.0,0.0,0.0,0.0,0.0,0.0,0.0,0.0,0.0,0.0,0.0,0.0,0.0,0.0,0.0,0.0,0.0,0.0,0.0,0.0,0.0,0.0,0.0,0.0,0.0,0.0,0.0,0.0,0.0,0.0,0.0,0.0,0.0,0.0,0.0,0.0,0.0,0.0,0.0,0.0,0.0,0.0,0.0,0.0,0.0,0.0,0.0,0.0,0.0,0.0,0.0,0.0,0.0,0.0,0.0,0.0,0.0,0.0,0.0,0.0,0.0,0.0,0.0,0.0,0.0,0.0,0.0,0.0,0.0,0.0,0.0,0.0,0.0,0.0,0.0,0.0,0.0,0.0,0.0,0.0,0.0,0.0,0.0,0.0,0.0,0.0,0.0,0.0,0.0,0.0,0.0,0.0,0.0,0.0,0.0,0.0,0.0,0.0,0.0,0.0,0.0,0.0,0.0,0.0,0.0,0.0,0.0,0.0,0.0,0.0,0.0,0.0,0.0,0.0,0.0,0.0,0.0,0.0,0.0,0.0,0.0,0.0,0.0,0.0,0.0,0.0,0.0,0.0,0.0,0.0,0.0,0.0,0.0,0.0,0.0,0.0,0.0,0.0,0.0,0.0,0.0,0.0,0.0,0.0,0.0,0.0,0.0,0.0,0.0,0.0,0.0,0.0,0.0,0.0,0.0,0.0,0.0,0.0,0.0,0.0,0.0,0.0,0.0,0.0,0.0,0.0,0.0,0.0,0.0,0.0,0.0,0.0,0.0,0.0,0.0,0.0,-0.327,0.0,0.0,0.0,0.0,0.0,0.0,0.0,0.0,0.0,0.0,0.0,0.0,0.0,0.0,0.0,0.0,0.0,0.0,0.0,0.0,0.0,0.0,0.0,0.0,0.0,0.0,0.0,0.0,0.0,0.0,0.0,0.0,0.0,0.0,0.0,0.0,0.0,0.0,0.0,0.0,0.0,0.0,0.0,0.0,0.0,0.0,0.0,0.0,0.0,0.0,0.0,0.0,0.0,0.0,0.0,0.0,0.0,0.0,0.0,0.0,0.0,0.0,0.0,0.0,0.0,0.0,0.0,0.0,0.0,0.0,0.0,0.0,0.0,0.0,0.0,0.0,0.0,0.0,0.0,0.0,0.0,0.0,0.0,0.0,0.0,0.0,0.0,0.0,0.0,0.0,0.0,0.0,0.0,0.0,0.0,0.0,0.0,0.0,0.0,0.0,0.0,0.0,0.0,0.0,0.0,0.0,0.0,0.0,0.0,0.0,0.0,0.0,0.0,0.0,0.0,0.0,-0.6151,0.0,0.0,0.0,0.0,0.0,0.0,0.0,0.0,0.0,0.0,0.0,0.0,0.0,0.0,0.0,0.0,0.0,0.0,0.0,0.0,0.0,0.0,0.0,0.0,0.0,0.0,0.0,0.0,0.0,0.0,0.0,0.0,0.0,0.0,0.0,0.0,0.0,0.0,0.0,0.0,0.0,0.0,0.0,0.0,0.0,0.0,0.0,0.0,0.0,0.0,0.0,0.0,0.0,0.0,0.0,0.0,0.0,0.0,0.0,0.0,0.0,0.0,0.0,0.0,0.0,0.0,0.0,0.0,0.0,0.0,0.0,0.0,0.0,0.0,0.0,0.0,0.0,0.0,0.0,0.0,0.0,0.0,0.0,0.0,0.0,0.0,0.0,0.0,0.0,0.0,0.0,0.0,0.0,0.0,0.0,0.0,0.0,0.0,0.0,0.0,0.0,0.0,0.0,0.0,0.0,0.0,0.0,0.0,-2.3093,-2.0607,-1.8293,-1.4999,-1.3066,-1.214,-0.9572,-0.9565,-1.1525,0.0,0.0,0.0,0.0,0.0,0.0,0.0,0.0,0.0,0.0,0.0,0.0,0.0,0.0,0.0,0.0,0.0,0.0,0.0,0.0,0.0,0.0,0.0,0.0,0.0,0.0,0.0,0.0,0.0,0.0,0.0,0.0,0.0,0.0,0.0,0.0,0.0,0.0,0.0,0.0,0.0,0.0,0.0,0.0,0.0,0.0,0.0,0.0,0.0,0.0,0.0,0.0,0.0,0.0,0.0,0.0,0.0,0.0,0.0,0.0,0.0,0.0,0.0,0.0,0.0,0.0,0.0,0.0,0.0,0.0,0.0,0.0,0.0,0.0,0.0,0.0,0.0,0.0,0.0,0.0,0.0,0.0,0.0,0.0,0.0,0.0,0.0,-3.6879,-3.5994,0.0,0.0,0.0,0.0,0.0,0.0,0.0,0.0,0.0,0.0,0.0,0.0,0.0,-2.8976,-2.8297,-2.8413,-2.7714,-2.6197,-2.4594,-2.2892,-2.1114,-1.9173,-1.7821,-1.7027,-1.7354,0.0,-1.4566,-1.6363,0.0,0.0,0.0,0.0,0.0,0.0,0.0,0.0,0.0,0.0,0.0,0.0,0.0,0.0,0.0,0.0,0.0,0.0,0.0,0.0,0.0,0.0,0.0,0.0,0.0,0.0,0.0,0.0,0.0,0.0,0.0,0.0,0.0,0.0,0.0,0.0,0.0,0.0,0.0,0.0,0.0,0.0,0.0,0.0,0.0,0.0,0.0,0.0,0.0,0.0,0.0,0.0,0.0,0.0,0.0,0.0,0.0,0.0,0.0,0.0,0.0,0.0,0.0,0.0,0.0,0.0,0.0,0.0,0.0,0.0,0.0,0.0,0.0,0.0,0.0,0.0,0.0,0.0,0.0,0.0,0.0,0.0,0.0,0.0,0.0,-3.7733,-3.688,-3.5995,-3.5229,-3.4491,0.0,0.0,0.0,0.0,0.0,0.0,0.0,0.0,0.0,-3.0991,-3.12,-3.0977,-3.0219,-3.0308,-2.9553,-2.7969,-2.6895,-2.5776,-2.4554,-2.2843,-2.1854,-2.1519,-2.1893,-2.1904,-2.159,-2.0878,-2.206,-2.4409,0.0,0.0,0.0,0.0,-3.1111,-3.2199,0.0,0.0,0.0,0.0,0.0,0.0,0.0,0.0,0.0,0.0,0.0,0.0,0.0,0.0,0.0,0.0,0.0,0.0,0.0,0.0,0.0,0.0,0.0,0.0,0.0,0.0,0.0,0.0,0.0,0.0,0.0,0.0,0.0,0.0,0.0,0.0,0.0,0.0,0.0,0.0,0.0,0.0,0.0,0.0,0.0,0.0,0.0,0.0,0.0,0.0,0.0,0.0,0.0,0.0,0.0,0.0,0.0,0.0,0.0,0.0,0.0,0.0,0.0,0.0,0.0,0.0,0.0,0.0,0.0,0.0,0.0,0.0,0.0,0.0,0.0,0.0,0.0,-3.7927,-3.7107,-3.6007,-3.5802,-3.5236,0.0,0.0,0.0,0.0,0.0,0.0,-3.2175,-3.203,-3.2071,-3.2349,-3.2714,-3.2674,-3.219,-3.2201,-3.1573,-3.0307,-2.9499,-2.878,-2.8133,-2.6615,-2.5929,-2.5945,-2.5945,-2.6638,-2.7581,-2.5185,-2.5553,-2.772,-2.8656,-2.9826,-3.1258,-3.3355,-3.4589,-3.5579,0.0,0.0,0.0,0.0,0.0,0.0,0.0,0.0,0.0,0.0,0.0,0.0,0.0,0.0,0.0,0.0,0.0,0.0,0.0,0.0,0.0,0.0,0.0,0.0,0.0,0.0,0.0,0.0,0.0,0.0,0.0,0.0,0.0,0.0,0.0,0.0,0.0,0.0,0.0,0.0,0.0,0.0,0.0,0.0,0.0,0.0,0.0,0.0,0.0,0.0,0.0,0.0,0.0,0.0,0.0,0.0,0.0,0.0,0.0,0.0,0.0,0.0,0.0,0.0,0.0,0.0,0.0,0.0,0.0,0.0,0.0,0.0,0.0,0.0,0.0,0.0,0.0,0.0,0.0,-3.6012,-3.5689,0.0,0.0,0.0,0.0,-3.5696,-3.3933,-3.3105,-3.3647,-3.2502,-3.1917,-3.2205,-3.266,-3.3002,-3.3219,-3.33,-3.3253,-3.3089,-3.2214,-3.1746,-3.1623,-3.0766,-3.0372,-3.0379,-3.0385,-3.0393,-3.0266,-2.8489,-2.878,-3.0539,-3.2047,-3.273,-3.3256,-3.6526,-3.7805,-3.826,0.0,0.0,0.0,0.0,0.0,0.0,0.0,0.0,0.0,0.0,0.0,0.0,0.0,0.0,0.0,0.0,0.0,0.0,0.0,0.0,0.0,0.0,0.0,0.0,0.0,0.0,0.0,0.0,0.0,0.0,0.0,0.0,0.0,0.0,0.0,0.0,0.0,0.0,0.0,0.0,0.0,0.0,0.0,0.0,0.0,0.0,0.0,0.0,0.0,0.0,0.0,0.0,0.0,0.0,0.0,0.0,0.0,0.0,0.0,0.0,0.0,0.0,0.0,0.0,0.0,0.0,0.0,0.0,0.0,0.0,0.0,0.0,0.0,0.0,0.0,0.0,0.0,0.0,0.0,-3.748,-3.7237,0.0,-3.7079,-3.6875,-3.6748,-3.6734,-3.601,-3.56,-3.5721,-3.5435,-3.5418,-3.5717,-3.6075,-3.6086,-3.5755,-3.5257,-3.5003,-3.4957,-3.4088,-3.3925,-3.4389,-3.4109,-3.3984,-3.3976,-3.3943,-3.4197,-3.4612,-3.397,-3.3407,-3.3076,-3.4706,-3.6012,-3.719,-3.8969,-4.0327,-4.162,0.0,0.0,0.0,0.0,0.0,0.0,0.0,0.0,0.0,0.0,0.0,0.0,0.0,0.0,0.0,0.0,0.0,0.0,0.0,0.0,0.0,0.0,0.0,0.0,0.0,0.0,0.0,0.0,0.0,0.0,0.0,0.0,0.0,0.0,0.0,0.0,0.0,0.0,0.0,0.0,0.0,0.0,-3.0471,0.0,0.0,0.0,0.0,0.0,0.0,0.0,0.0,0.0,0.0,0.0,0.0,0.0,0.0,0.0,0.0,0.0,0.0,0.0,0.0,0.0,0.0,0.0,0.0,0.0,0.0,0.0,0.0,0.0,0.0,0.0,0.0,0.0,0.0,0.0,-3.9993,-3.9154,-3.9167,-3.9012,-3.842,-3.8716,-3.8613,-3.7788,-3.7646,-3.7543,-3.7483,-3.7449,-3.7543,-3.7839,-3.8074,-3.8002,-3.7574,-3.7033,-3.6776,-3.6735,-3.6156,-3.6297,-3.707,-3.7072,-3.7229,-3.7511,-3.7443,-3.771,-3.8206,-3.8485,-3.7887,-3.6883,-3.7676,-3.8854,-4.0296,-4.1732,-4.2996,-4.4349,0.0,0.0,0.0,0.0,0.0,0.0,0.0,0.0,0.0,0.0,0.0,0.0,0.0,0.0,0.0,0.0,0.0,0.0,0.0,0.0,0.0,0.0,0.0,0.0,0.0,0.0,0.0,0.0,0.0,0.0,0.0,0.0,0.0,0.0,0.0,0.0,0.0,0.0,0.0,0.0,0.0,0.0,-2.9298,0.0,0.0,0.0,0.0,0.0,0.0,0.0,0.0,0.0,0.0,0.0,0.0,0.0,0.0,0.0,0.0,0.0,0.0,0.0,0.0,0.0,0.0,0.0,0.0,0.0,0.0,0.0,0.0,0.0,0.0,0.0,0.0,0.0,-4.2479,-4.2086,-4.1667,-4.0862,-4.1347,-4.1135,-3.9572,-4.0649,-4.0769,-3.9051,-3.888,-3.888,-3.8936,-3.8323,-3.807,-3.8247,-3.843,-3.8556,-3.8612,-3.8587,-3.8558,-3.8525,-3.8517,-3.8933,-3.9723,-3.9713,-4.0179,-4.0974,-4.0909,-4.0861,-4.0894,-4.1663,-4.2001,-4.1962,-4.0981,-4.117,-4.2309,-4.4781,-4.5812,-4.6448,0.0,0.0,0.0,0.0,0.0,0.0,0.0,0.0,0.0,0.0,0.0,0.0,0.0,0.0,0.0,0.0,0.0,0.0,0.0,0.0,0.0,0.0,0.0,0.0,0.0,0.0,0.0,0.0,0.0,0.0,0.0,0.0,0.0,0.0,0.0,0.0,0.0,0.0,0.0,0.0,0.0,0.0,-2.7633,0.0,0.0,0.0,0.0,0.0,0.0,0.0,0.0,0.0,0.0,0.0,0.0,0.0,0.0,0.0,0.0,0.0,0.0,0.0,0.0,0.0,0.0,0.0,0.0,0.0,0.0,0.0,0.0,0.0,0.0,0.0,0.0,-4.5143,-4.3326,-4.347,-4.3452,-4.2555,-4.2591,-4.2537,-4.2106,-4.246,-4.2486,-4.197,-4.1893,-4.1921,-4.1996,-4.1861,-4.1862,-4.2005,-4.1512,-4.1253,-4.1327,-4.0695,-4.0669,-4.1229,-4.1174,-4.1604,-4.2442,-4.2373,-4.2488,-4.2701,-4.264,-4.2924,-4.3477,-4.3704,-4.4534,-4.5437,-4.3243,-4.332,-4.4751,-4.5505,-4.7409,-5.0061,0.0,0.0,0.0,0.0,0.0,0.0,0.0,0.0,0.0,0.0,0.0,0.0,0.0,0.0,0.0,0.0,0.0,0.0,0.0,0.0,0.0,0.0,0.0,0.0,0.0,0.0,0.0,0.0,0.0,0.0,0.0,0.0,0.0,0.0,0.0,0.0,0.0,0.0,0.0,0.0,0.0,0.0,-2.7549,-2.2588,-1.8592,-1.5264,-1.2761,-1.1857,-1.2197,-1.4452,0.0,0.0,0.0,0.0,0.0,0.0,0.0,0.0,0.0,0.0,0.0,0.0,0.0,0.0,0.0,0.0,0.0,0.0,0.0,0.0,0.0,0.0,0.0,0.0,-4.728,-4.7222,-4.5813,-4.5929,-4.58,-4.4877,-4.4785,-4.451,-4.3805,-4.3761,-4.362,-4.3254,-4.3241,-4.3254,-4.3327,-4.3393,-4.3469,-4.3578,-4.3138,-4.291,-4.2946,-4.2417,-4.2383,-4.2844,-4.3138,-4.3723,-4.4559,-4.4866,-4.518,0.0,-4.5427,-4.5675,-4.609,-4.6094,-4.6708,0.0,0.0,0.0,0.0,0.0,-5.0047,-5.3001,0.0,0.0,0.0,0.0,0.0,0.0,0.0,0.0,0.0,0.0,0.0,0.0,0.0,0.0,0.0,0.0,0.0,0.0,0.0,0.0,0.0,0.0,0.0,0.0,0.0,0.0,0.0,0.0,0.0,0.0,0.0,0.0,0.0,0.0,0.0,0.0,0.0,0.0,0.0,0.0,0.0,0.0,-2.8403,-2.3596,-1.9373,-1.5824,-1.4183,-1.3327,-1.3359,-1.558,0.0,0.0,0.0,0.0,0.0,0.0,0.0,0.0,0.0,0.0,0.0,0.0,0.0,0.0,0.0,0.0,0.0,0.0,0.0,0.0,0.0,0.0,0.0,0.0,-4.898,-4.9732,-4.9196,-4.8899,-4.836,-4.739,-4.726,-4.6687,-4.52,-4.5052,-4.4727,-4.3918,-4.3956,-4.3947,-4.3819,0.0,0.0,0.0,0.0,-4.403,-4.4136,-4.4052,-4.4026,-4.405,-4.4848,-4.56,-4.631,-4.7023,-4.7721,-4.8396,-4.8357,-4.8365,-4.8462,-4.8462,-4.8628,-4.8774,-4.7889,-4.8028,-4.8935,-5.0918,-5.3122,-5.5314,0.0,0.0,0.0,0.0,0.0,0.0,0.0,0.0,0.0,0.0,0.0,0.0,0.0,0.0,0.0,0.0,0.0,0.0,0.0,0.0,0.0,0.0,0.0,0.0,0.0,0.0,0.0,0.0,0.0,0.0,0.0,0.0,0.0,0.0,0.0,0.0,0.0,0.0,0.0,0.0,0.0,0.0,-2.8689,-2.5281,-2.1802,-1.85,-1.6568,-1.5736,-1.5937,-1.8186,-2.1078,-2.4388,-2.8229,0.0,0.0,0.0,0.0,0.0,0.0,0.0,0.0,0.0,0.0,0.0,0.0,0.0,0.0,0.0,0.0,0.0,0.0,0.0,0.0,-4.941,-4.9773,-5.0399,-5.1598,-5.1161,-5.014,-4.851,-4.8305,-4.818,-4.7863,-4.7884,-4.7544,-4.6688,-4.7326,-4.7148,-4.5746,-4.6368,0.0,-4.6757,-4.6083,-4.6045,-4.675,-4.6699,-4.6675,-4.6659,0.0,0.0,-4.8017,-4.8186,-4.8302,-4.841,-4.8435,-4.8842,-4.9422,-4.9489,-5.035,-5.1554,-5.0726,-5.0511,-5.0953,-5.3429,-5.5093,-5.6358,0.0,0.0,0.0,0.0,0.0,0.0,0.0,0.0,0.0,0.0,0.0,0.0,0.0,0.0,0.0,0.0,0.0,0.0,0.0,0.0,0.0,0.0,0.0,0.0,0.0,0.0,0.0,0.0,0.0,0.0,0.0,0.0,0.0,0.0,0.0,0.0,0.0,0.0,0.0,0.0,0.0,0.0,-3.3054,-2.8566,-2.5213,-2.2699,-2.1119,-2.0282,-2.027,-2.268,-2.5205,-2.7874,-3.1166,-3.4326,-3.7319,0.0,0.0,0.0,0.0,0.0,0.0,0.0,0.0,0.0,0.0,0.0,0.0,0.0,0.0,-5.0894,0.0,0.0,-5.1483,-5.1932,-5.1971,-5.2263,-5.3136,-5.25,-5.1444,-5.0111,-4.9576,-4.9138,-4.8747,-4.8736,-4.8565,-4.8119,-4.8548,-4.8414,-4.7558,-4.7904,-4.8145,-4.8157,-4.7702,-4.7664,-4.8104,-4.8076,-4.8039,-4.802,-4.8854,-4.9229,-4.9168,-4.9588,-4.9755,-4.9708,-4.9761,-5.0026,-5.0433,-5.092,-5.1632,-5.2488,-5.2935,-5.2838,-5.2714,-5.4897,-5.6269,-5.735,0.0,0.0,0.0,0.0,0.0,0.0,0.0,0.0,0.0,0.0,0.0,0.0,0.0,0.0,0.0,0.0,0.0,0.0,0.0,0.0,0.0,0.0,0.0,0.0,0.0,0.0,0.0,0.0,0.0,0.0,0.0,0.0,0.0,0.0,0.0,0.0,0.0,0.0,0.0,0.0,0.0,0.0,-3.8054,-3.2942,-2.949,-2.7211,-2.5964,-2.5139,-2.5014,-2.7417,-2.9518,-3.1626,-3.4398,-3.7491,-4.0472,-4.2373,-4.4512,0.0,0.0,0.0,0.0,0.0,0.0,0.0,0.0,0.0,-5.189,-5.1893,-5.2435,-5.3147,-5.3858,-5.3949,-5.3852,-5.3754,-5.3676,-5.3721,-5.3943,-5.3195,-5.2419,-5.1876,-5.1057,-5.0206,-4.9387,-4.9457,-4.9425,-4.9072,-4.9219,-4.9231,-4.9032,-4.9181,-4.9283,-4.9278,-4.9205,-4.9177,-4.9177,-4.9177,-4.9128,-4.9088,-4.9804,-5.0098,-5.006,-5.0771,-5.1048,-5.1,-5.1075,-5.1108,-5.1186,-5.2046,-5.2535,-5.2883,-5.4416,-5.4781,-5.4633,-5.6049,-5.7153,-5.8284,0.0,0.0,0.0,0.0,0.0,0.0,0.0,0.0,0.0,0.0,0.0,0.0,0.0,0.0,0.0,0.0,0.0,0.0,0.0,0.0,0.0,0.0,0.0,0.0,0.0,0.0,0.0,0.0,0.0,0.0,0.0,0.0,0.0,0.0,0.0,0.0,0.0,0.0,0.0,0.0,0.0,0.0,-4.0616,-3.858,-3.5049,-3.096,-2.9353,-2.8769,-2.9023,-3.0852,-3.265,-3.4707,-3.8023,-4.0374,-4.2393,-4.486,0.0,-4.7343,-4.822,-4.9687,-5.1183,-5.2201,-5.2921,-5.3393,0.0,0.0,-5.3624,-5.3611,-5.3692,-5.3796,-5.3887,-5.3906,-5.3652,-5.2871,-5.2754,-5.3027,-5.3808,-5.3203,-5.2929,-5.3535,-5.2884,-5.2052,-5.119,-5.181,-5.162,-5.0078,-5.0674,-5.0757,-4.9905,-5.0602,-5.0989,-5.0938,-5.0908,-5.0886,-5.0825,-5.0841,-5.0836,-5.0817,-5.0918,-5.094,-5.0865,-5.103,-5.105,-5.1023,-5.1132,-5.1197,-5.1256,-5.213,-5.2916,-5.3662,-5.4633,-5.5883,-5.7178,-5.7448,-5.8061,-5.9035,0.0,0.0,0.0,0.0,0.0,0.0,0.0,0.0,0.0,0.0,0.0,0.0,0.0,0.0,0.0,0.0,0.0,0.0,0.0,0.0,0.0,0.0,0.0,0.0,0.0,0.0,0.0,0.0,0.0,0.0,0.0,0.0,0.0,0.0,0.0,0.0,0.0,0.0,0.0,0.0,0.0,0.0,-4.3183,-4.1267,-3.9432,-3.753,-3.4695,-3.3426,0.0,0.0,-3.6555,-3.7974,-4.0346,-4.228,-4.3942,-4.5444,-4.6824,0.0,-5.0142,-5.1522,0.0,0.0,-5.3375,-5.3646,-5.3704,-5.4134,-5.4471,-5.4479,-5.4899,-5.5266,-5.534,-5.5354,-5.5074,0.0,-5.4059,-5.417,-5.4489,-5.3837,-5.3638,-5.4431,-5.3802,-5.2966,-5.2181,-5.2433,-5.253,-5.2259,-5.2582,-5.26,-5.2183,-5.2057,-5.1959,-5.1913,-5.1416,-5.1139,-5.1102,-5.1108,-5.1108,-5.1108,-5.1102,-5.1075,-5.1053,-5.1095,-5.1125,-5.1189,-5.122,-5.1269,-5.1317,-5.2154,-5.2999,-5.3846,-5.4719,-5.5808,-5.7014,-5.8029,-5.8935,-5.9988,0.0,0.0,0.0,0.0,0.0,0.0,0.0,0.0,0.0,0.0,0.0,0.0,0.0,0.0,0.0,0.0,0.0,0.0,0.0,0.0,0.0,0.0,0.0,0.0,0.0,0.0,0.0,0.0,0.0,0.0,0.0,0.0,0.0,0.0,0.0,0.0,0.0,0.0,0.0,0.0,0.0,0.0,-4.5231,-4.3682,-4.3259,-4.3019,-3.9153,-3.7501,0.0,0.0,-3.9894,-4.0703,-4.2299,-4.3843,-4.5207,-4.5938,-4.7486,-4.9436,-5.1489,0.0,0.0,-5.3774,-5.3925,-5.4103,-5.4243,-5.4745,-5.5203,-5.5234,-5.5724,-5.6187,-5.6309,-5.6321,-5.6037,-5.5152,-5.5009,-5.4995,-5.4949,-5.4446,-5.4297,-5.4866,-5.4391,-5.3708,-5.2925,-5.2857,-5.312,-5.3705,-5.3763,-5.3829,-5.3999,-5.3468,-5.3035,-5.2737,-5.2117,-5.156,-5.1087,-5.1053,-5.1053,-5.1101,-5.1114,-5.1095,-5.1089,-5.1136,-5.1211,-5.1312,-5.1312,-5.1456,-5.1717,-5.2542,-5.338,-5.4246,-5.5122,-5.5988,-5.6911,-5.8379,-5.9324,-6.028,0.0,0.0,0.0,0.0,0.0,0.0,0.0,0.0,0.0,0.0,0.0,0.0,0.0,0.0,0.0,0.0,0.0,0.0,0.0,0.0,0.0,0.0,0.0,0.0,0.0,0.0,0.0,0.0,0.0,0.0,0.0,0.0,0.0,0.0,0.0,0.0,0.0,0.0,0.0,0.0,0.0,0.0,-4.639,-4.6576,-4.6588,-4.6026,-4.1724,0.0,0.0,0.0,-4.2194,-4.2505,-4.4103,-4.5237,0.0,-4.6848,-4.881,0.0,0.0,0.0,-5.424,-5.4503,-5.5055,-5.5611,-5.5866,-5.594,-5.599,-5.6048,-5.6033,-5.6036,-5.6102,-5.6102,-5.5811,-5.4958,-5.4813,-5.4807,-5.4803,-5.4793,-5.4788,-5.4803,-5.4769,-5.4439,0.0,-5.3521,-5.3584,-5.3598,-5.3657,-5.4,-5.4726,-5.4813,-5.4444,-5.3596,-5.3538,-5.2724,-5.1024,-5.0941,-5.0971,-5.1101,-5.1102,-5.1088,-5.1105,-5.1239,-5.1308,-5.1291,-5.1369,-5.183,-5.2636,-5.3494,-5.4329,-5.5142,-5.6018,-5.6855,-5.769,-5.8636,-5.9017,-5.9533,0.0,0.0,0.0,0.0,0.0,0.0,0.0,0.0,0.0,0.0,0.0,0.0,0.0,0.0,0.0,0.0,0.0,0.0,0.0,0.0,0.0,0.0,0.0,0.0,0.0,0.0,0.0,0.0,0.0,0.0,0.0,0.0,0.0,0.0,0.0,0.0,0.0,0.0,0.0,0.0,0.0,0.0,-4.7707,-4.7751,-4.7803,-4.7658,0.0,0.0,0.0,0.0,0.0,0.0,-4.5911,-4.6189,0.0,-4.6868,-4.9161,-5.1423,-5.1155,0.0,-5.3556,-5.4237,-5.4571,-5.4921,-5.5585,-5.5724,-5.5767,-5.5885,-5.5885,-5.5865,-5.5901,-5.59,-5.5631,-5.4727,-5.461,-5.4572,-5.4477,-5.4497,-5.4728,-5.5267,-5.4863,0.0,0.0,0.0,0.0,-5.4405,-5.4992,-5.5191,-5.4823,-5.4312,-5.3615,-5.2698,-5.2152,-5.1586,-5.1005,-5.1029,-5.1069,-5.1108,-5.115,-5.1181,-5.1245,-5.1323,-5.1681,-5.2225,-5.2244,-5.2732,-5.3551,-5.3793,-5.4404,-5.5209,-5.5486,-5.6492,-5.7847,-5.8694,-5.9367,-6.0204,0.0,0.0,0.0,0.0,0.0,0.0,0.0,0.0,0.0,0.0,0.0,0.0,0.0,0.0,0.0,0.0,0.0,0.0,0.0,0.0,0.0,0.0,0.0,0.0,0.0,0.0,0.0,0.0,0.0,0.0,0.0,0.0,0.0,0.0,0.0,0.0,0.0,0.0,0.0,0.0,0.0,0.0,-4.9047,-4.9167,-4.9409,0.0,0.0,0.0,0.0,0.0,0.0,0.0,-4.7008,-4.7116,-4.6954,-4.7395,-4.9404,-5.1356,-5.0847,-5.1817,-5.3158,-5.3719,-5.3862,-5.4085,-5.4981,-5.5198,-5.5318,-5.5729,-5.5787,-5.5766,-5.5729,-5.5708,-5.5493,-5.491,-5.4583,-5.4444,-5.4641,-5.4476,-5.4633,-5.5431,-5.4847,-5.4318,0.0,0.0,0.0,-5.4293,-5.4878,-5.4971,-5.4365,-5.3581,-5.2724,-5.1838,-5.0995,-5.0428,-5.0151,-5.0183,-5.0386,-5.0722,-5.0761,-5.0991,-5.1349,-5.1698,-5.2177,-5.2713,-5.3021,-5.3669,-5.447,-5.4396,-5.4872,-5.5666,-5.5665,-5.6508,-5.7853,-5.8691,-5.956,-6.0584,0.0,0.0,0.0,0.0,0.0,0.0,0.0,0.0,0.0,0.0,0.0,0.0,0.0,0.0,0.0,0.0,0.0,0.0,0.0,0.0,0.0,0.0,0.0,0.0,0.0,0.0,0.0,0.0,0.0,0.0,0.0,0.0,0.0,0.0,0.0,0.0,0.0,0.0,0.0,0.0,0.0,0.0,-5.0159,-5.0858,0.0,0.0,0.0,0.0,0.0,0.0,0.0,0.0,0.0,-4.789,-4.8496,-4.8257,-4.944,-5.0811,-5.0626,-5.1702,-5.2914,-5.3025,-5.3037,-5.3245,-5.4143,-5.4456,-5.4784,-5.5575,-5.5726,-5.5682,0.0,0.0,-5.5456,-5.5408,-5.4733,-5.4459,-5.5135,-5.4631,-5.4446,0.0,0.0,0.0,0.0,0.0,0.0,-5.3275,0.0,-5.3484,-5.3445,-5.2681,-5.187,-5.1056,-5.019,-4.938,-4.8608,-4.8602,-4.9071,-5.0012,-5.0063,-5.0561,-5.143,-5.2269,-5.2663,-5.2741,-5.362,-5.4498,-5.5298,-5.5265,-5.5756,-5.6498,-5.6542,-5.7065,-5.7866,-5.8743,-5.962,-6.074,0.0,0.0,0.0,0.0,0.0,0.0,0.0,0.0,0.0,0.0,0.0,0.0,0.0,0.0,0.0,0.0,0.0,0.0,0.0,0.0,0.0,0.0,0.0,0.0,0.0,0.0,0.0,0.0,0.0,0.0,0.0,0.0,0.0,0.0,0.0,0.0,0.0,0.0,0.0,0.0,0.0,0.0,-5.025,0.0,0.0,0.0,0.0,0.0,0.0,0.0,0.0,0.0,0.0,-4.7067,-4.7573,-4.6873,-4.825,-4.9867,-4.9171,-5.0113,-5.1433,-5.205,-5.2642,-5.3135,-5.3432,-5.4451,-5.5218,-5.4833,-5.5174,-5.5527,0.0,0.0,0.0,-5.5203,-5.5004,0.0,-5.4229,-5.4063,0.0,-5.3365,0.0,-5.2905,-5.2154,-5.2223,0.0,0.0,-5.2756,-5.3247,-5.2704,-5.1871,-5.1042,-5.0223,-4.9407,-4.8874,-4.869,-4.8716,-4.9191,-5.0062,-5.0084,-5.0566,-5.141,-5.1629,-5.2093,-5.2747,-5.3615,-5.447,-5.5268,-5.5918,-5.6302,-5.6556,-5.7205,-5.7958,-5.8769,-5.9646,-6.0515,-6.1558,0.0,0.0,0.0,0.0,0.0,0.0,0.0,0.0,0.0,0.0,0.0,0.0,0.0,0.0,0.0,0.0,0.0,0.0,0.0,0.0,0.0,0.0,0.0,0.0,0.0,0.0,0.0,0.0,0.0,0.0,0.0,0.0,0.0,0.0,0.0,0.0,0.0,0.0,0.0,0.0,0.0,0.0,0.0,0.0,0.0,0.0,0.0,0.0,0.0,0.0,0.0,-4.8453,-4.8005,-4.8439,-4.8931,-4.8066,0.0,-5.0157,-4.9232,-4.9853,-5.0931,-5.1722,-5.2221,-5.2735,-5.3443,-5.4326,-5.4978,-5.481,-5.5107,0.0,0.0,0.0,0.0,0.0,0.0,0.0,-5.361,-5.3006,-5.2418,0.0,-5.1732,0.0,-5.0673,-5.0394,-5.0119,0.0,-5.1426,-5.2111,-5.135,-5.0495,-4.9681,-4.8876,-4.8048,-4.7793,-4.8164,-4.8203,-4.8855,-5.0094,-5.0102,-5.0551,-5.1406,-5.1796,-5.2435,-5.3278,0.0,-5.5001,-5.5802,-5.629,-5.6498,-5.6549,-5.7034,-5.795,-5.9053,-5.9551,-6.0487,-6.1812,0.0,0.0,0.0,0.0,0.0,0.0,0.0,0.0,0.0,0.0,0.0,0.0,0.0,0.0,0.0,0.0,0.0,0.0,0.0,0.0,0.0,0.0,0.0,0.0,0.0,0.0,0.0,0.0,0.0,0.0,0.0,0.0,0.0,0.0,0.0,0.0,0.0,0.0,0.0,0.0,0.0,0.0,0.0,0.0,0.0,0.0,0.0,0.0,0.0,0.0,-4.9269,-4.9794,-4.9822,-5.0359,-5.0803,-5.0049,-5.0363,-5.079,-4.9916,-5.0185,-5.0855,-5.1509,-5.1773,-5.2187,-5.3302,-5.3981,-5.4484,-5.4849,0.0,-5.5229,-5.5176,-5.5038,-5.4903,-5.472,0.0,-5.2416,-5.2868,-5.1744,-5.0805,-5.0648,-5.0199,-4.9649,-4.9037,-4.8374,-4.8103,-4.8342,-4.9854,-5.0448,-4.9761,-4.8964,-4.8154,-4.7359,-4.6599,-4.663,-4.7506,-4.7506,-4.8388,-5.0106,-5.0102,-5.0562,-5.1425,-5.2289,-5.3064,-5.3774,-5.4768,0.0,-5.6335,-5.6437,-5.6488,-5.6508,-5.6628,-5.7555,-5.8851,-5.9085,-6.0087,-6.1587,0.0,0.0,0.0,0.0,0.0,0.0,0.0,0.0,0.0,0.0,-1.9446,0.0,0.0,0.0,0.0,0.0,0.0,0.0,0.0,0.0,0.0,0.0,0.0,0.0,0.0,0.0,0.0,0.0,0.0,0.0,0.0,0.0,0.0,0.0,0.0,0.0,0.0,0.0,0.0,0.0,0.0,0.0,0.0,0.0,0.0,0.0,0.0,0.0,0.0,0.0,-4.9814,-4.8774,-4.8892,-4.9036,-4.9104,-4.8893,-4.9336,-4.9823,-4.9517,-4.9875,-5.0325,-5.039,-5.1356,-5.2011,-5.0939,-5.2817,0.0,0.0,0.0,-5.496,-5.4871,-5.4799,0.0,-5.3717,0.0,0.0,0.0,0.0,-5.0259,0.0,0.0,0.0,0.0,0.0,0.0,0.0,0.0,-4.8918,-4.8837,-4.8057,-4.7275,-4.6524,-4.6358,-4.6702,-4.7565,-4.7584,-4.8439,-5.0104,-5.0108,-5.0552,-5.1433,-5.2252,-5.2695,-5.2916,-5.4509,0.0,-5.5478,-5.6196,-5.6508,-5.6569,-5.7223,-5.7663,-5.8092,-5.9542,-6.0233,-6.0678,0.0,0.0,0.0,0.0,0.0,0.0,0.0,0.0,0.0,-1.8988,-1.9481,-2.0509,0.0,0.0,0.0,0.0,0.0,0.0,0.0,0.0,0.0,0.0,0.0,0.0,0.0,0.0,0.0,0.0,0.0,0.0,0.0,0.0,0.0,0.0,0.0,0.0,0.0,0.0,0.0,0.0,0.0,0.0,0.0,0.0,0.0,0.0,0.0,0.0,0.0,0.0,-4.9518,-4.9313,-4.9833,-5.0296,-5.0496,-4.9926,-5.0426,-5.1062,-5.0459,-5.0364,-5.065,-5.1461,-5.1897,-5.21,-5.2175,0.0,0.0,0.0,-5.4069,-5.4535,-5.4107,0.0,0.0,0.0,0.0,0.0,0.0,0.0,0.0,0.0,0.0,0.0,0.0,0.0,0.0,0.0,0.0,-4.6867,-4.7913,-4.7255,-4.6679,-4.6301,-4.6297,-4.6697,-4.7537,-4.7557,-4.8406,-5.0093,-5.0098,-5.0536,-5.1369,-5.1759,-5.2146,-5.2628,-5.3903,0.0,-5.522,-5.6086,-5.6456,-5.6485,-5.6875,-5.7566,-5.8431,-5.9266,-6.0091,-6.1012,0.0,0.0,0.0,0.0,0.0,0.0,0.0,-1.9489,-1.9485,-1.9509,-1.987,-2.0714,-2.2193,-2.4288,-2.574,0.0,0.0,0.0,0.0,0.0,0.0,0.0,0.0,0.0,0.0,0.0,0.0,0.0,0.0,0.0,0.0,0.0,0.0,0.0,0.0,0.0,0.0,0.0,0.0,0.0,0.0,0.0,0.0,0.0,0.0,0.0,0.0,0.0,0.0,0.0,-4.9165,-5.0011,-5.0504,-5.1191,-5.1668,-5.0945,-5.1197,-5.1591,-5.0806,-5.035,-5.0408,-5.169,-5.1588,-5.1572,-5.2916,-5.3566,0.0,0.0,-5.4059,-5.4138,-5.316,0.0,0.0,0.0,0.0,0.0,0.0,0.0,0.0,0.0,0.0,0.0,0.0,0.0,0.0,0.0,0.0,0.0,-4.6774,-4.6493,-4.6284,-4.6276,-4.6295,-4.6694,-4.7484,-4.7694,-4.8449,-4.9809,-5.0173,-5.0589,-5.1031,-5.1382,-5.2007,-5.2825,-5.3701,0.0,0.0,-5.6114,-5.6406,-5.6406,-5.6397,-5.7301,-5.8632,-5.8842,-5.984,-6.1246,0.0,0.0,0.0,0.0,0.0,0.0,0.0,-1.9416,-1.942,-1.9497,-2.0881,-2.1962,-2.219,-2.3172,-2.4445,0.0,0.0,0.0,0.0,0.0,0.0,0.0,0.0,0.0,0.0,0.0,0.0,0.0,0.0,0.0,0.0,0.0,0.0,0.0,0.0,0.0,0.0,0.0,0.0,0.0,0.0,0.0,0.0,0.0,0.0,0.0,0.0,0.0,0.0,0.0,0.0,-4.9863,-4.9158,-4.9391,-4.9998,-5.0349,0.0,0.0,-4.8894,-4.8586,-4.8267,-4.8373,-4.8802,-4.9391,-4.9912,0.0,0.0,-5.186,-5.3136,-5.3837,-5.2225,-5.263,0.0,0.0,0.0,0.0,0.0,0.0,0.0,0.0,0.0,0.0,0.0,0.0,0.0,0.0,0.0,0.0,-4.5068,-4.5819,-4.6201,-4.6201,-4.6275,-4.6694,-4.7501,-4.8295,-4.8737,-4.8853,-5.0431,-5.0817,-5.0169,-5.1707,-5.2864,-5.372,-5.4596,0.0,0.0,-5.6367,-5.6406,-5.6386,-5.6407,-5.6942,-5.7823,-5.8608,-5.9458,-6.0332,0.0,0.0,0.0,0.0,0.0,0.0,0.0,-1.9525,-1.9625,-2.0776,-2.1154,-2.1732,-2.2867,-2.4312,-2.5693,0.0,0.0,0.0,0.0,0.0,0.0,0.0,0.0,0.0,0.0,0.0,0.0,-2.6871,-2.6564,0.0,0.0,0.0,0.0,0.0,0.0,0.0,0.0,0.0,0.0,0.0,0.0,0.0,0.0,0.0,0.0,0.0,0.0,0.0,0.0,0.0,0.0,0.0,-4.822,-4.8406,0.0,0.0,-4.9131,-4.9302,-4.8494,-4.8291,-4.8363,-4.8782,-4.8782,-4.9057,-5.0386,0.0,0.0,-5.199,-5.2679,-5.2858,-5.123,-5.1345,-5.1142,0.0,0.0,0.0,0.0,0.0,0.0,0.0,0.0,0.0,0.0,0.0,0.0,0.0,0.0,0.0,-4.3279,-4.465,-4.5415,-4.5411,-4.5958,-4.6396,-4.6716,-4.7587,-4.8263,-4.8768,-4.9956,-5.0603,-5.081,-5.1434,-5.2193,-5.3047,-5.3891,0.0,0.0,-5.6115,-5.6309,-5.6271,-5.6283,-5.7094,-5.8311,-5.8694,-5.9691,-6.0886,0.0,0.0,0.0,0.0,0.0,0.0,-2.0173,-1.9845,-1.9996,-2.1393,-2.1604,-2.2107,-2.3439,-2.526,-2.66,-2.7124,0.0,0.0,0.0,0.0,0.0,0.0,0.0,0.0,0.0,0.0,0.0,-2.725,-2.6995,-2.6924,0.0,0.0,-2.7805,-2.89,0.0,0.0,0.0,0.0,0.0,0.0,0.0,0.0,0.0,0.0,0.0,0.0,0.0,0.0,0.0,0.0,0.0,0.0,0.0,0.0,0.0,0.0,-4.8263,-4.8693,-4.783,-4.7669,-4.7878,-4.8483,-4.8493,-4.8685,0.0,0.0,0.0,-5.1574,-5.2159,-5.2099,-5.0042,-5.0071,-4.9821,0.0,0.0,0.0,0.0,0.0,0.0,0.0,0.0,0.0,0.0,0.0,0.0,0.0,0.0,0.0,0.0,-4.3715,-4.4624,-4.4894,-4.5499,-4.5942,-4.6196,-4.7327,-4.8061,-4.8409,-4.9734,-5.0575,-5.0918,-5.1123,-5.1677,-5.2539,-5.3351,0.0,0.0,-5.5942,-5.6272,-5.6201,-5.6193,-5.7072,-5.8343,-5.8663,-5.9677,-6.0942,0.0,0.0,0.0,0.0,0.0,0.0,0.0,-2.0352,-2.0486,-2.0769,-2.2361,-2.3553,-2.3771,-2.5474,-2.6554,-2.6416,0.0,0.0,0.0,0.0,0.0,0.0,0.0,0.0,0.0,0.0,0.0,-2.8075,-2.7554,-2.7578,-2.807,-2.7622,-2.8006,-2.9105,0.0,0.0,0.0,0.0,0.0,0.0,0.0,0.0,0.0,0.0,0.0,0.0,0.0,0.0,0.0,0.0,0.0,0.0,0.0,0.0,0.0,0.0,-4.6692,-4.5712,-4.6507,-4.6336,-4.6025,-4.6507,-4.7209,-4.7986,0.0,0.0,-5.111,-5.0043,-5.1362,-5.1728,-4.8586,-4.8821,-4.9025,-4.7457,0.0,0.0,0.0,0.0,0.0,0.0,0.0,0.0,0.0,0.0,0.0,0.0,0.0,0.0,0.0,-4.3178,-4.4005,-4.4877,-4.4916,-4.5339,-4.6196,-4.791,-4.8312,-4.7451,-5.0051,-5.0831,-5.0043,-5.0831,-5.1686,0.0,0.0,0.0,0.0,-5.5942,-5.6259,-5.6199,-5.6203,-5.6691,-5.7521,-5.8396,-5.9268,-6.0157,0.0,0.0,0.0,0.0,0.0,0.0,0.0,-2.1098,-2.1713,-2.307,-2.3359,-2.3714,-2.4458,-2.5608,-2.6483,-2.6908,0.0,0.0,0.0,0.0,0.0,0.0,0.0,0.0,0.0,0.0,0.0,-2.8856,-2.882,-2.8951,-2.9265,-2.9336,-2.9601,-3.0025,-3.0801,0.0,0.0,0.0,0.0,0.0,0.0,0.0,0.0,0.0,0.0,0.0,0.0,0.0,0.0,0.0,0.0,0.0,0.0,0.0,0.0,0.0,0.0,0.0,-4.6706,-4.7002,-4.7565,-4.7649,-4.7733,-4.8025,-4.9021,0.0,-5.0202,-5.0047,-5.0631,-5.0572,-4.8558,-4.851,-4.8268,-4.6825,-4.6157,0.0,0.0,0.0,0.0,0.0,0.0,0.0,0.0,0.0,0.0,0.0,0.0,0.0,0.0,-4.2968,-4.3435,-4.4865,-4.5487,-4.6209,-4.7072,-4.8236,-4.8931,-4.9189,-5.0622,-5.1167,-5.0906,-5.1102,-5.1677,0.0,0.0,0.0,0.0,-5.5253,-5.5685,-5.6194,-5.6156,-5.6626,-5.7439,-5.8312,-5.9179,-6.0048,0.0,0.0,0.0,0.0,0.0,0.0,0.0,-2.1855,-2.2447,-2.3674,-2.407,-2.4351,-2.4716,-2.5812,-2.655,-2.6573,0.0,0.0,0.0,0.0,0.0,0.0,0.0,0.0,0.0,-2.881,-2.9322,-2.9476,-2.9638,-2.9826,-2.9984,-3.0215,-3.0392,-3.0511,-3.1535,0.0,0.0,0.0,0.0,0.0,0.0,0.0,-4.3332,0.0,0.0,0.0,0.0,0.0,0.0,0.0,0.0,0.0,0.0,0.0,0.0,0.0,-4.803,0.0,0.0,-4.7635,-4.815,-4.8198,-4.8346,0.0,0.0,0.0,-5.012,-4.9527,-4.9795,-4.9713,-4.8249,-4.781,-4.7283,-4.6116,-4.5572,0.0,0.0,0.0,0.0,0.0,0.0,0.0,0.0,0.0,0.0,0.0,0.0,0.0,0.0,-4.369,-4.4006,-4.5377,-4.564,-4.615,-4.7008,-4.8211,-4.9042,-4.9566,-5.0739,-5.1295,-5.1304,-5.124,-5.1481,0.0,0.0,0.0,0.0,-5.5147,-5.5714,-5.6199,-5.612,-5.6397,-5.6921,-5.7773,-5.8605,-5.9492,0.0,0.0,0.0,0.0,0.0,0.0,0.0,0.0,0.0,0.0,-2.458,-2.5411,-2.4721,-2.6112,-2.6728,0.0,0.0,0.0,0.0,0.0,0.0,0.0,0.0,0.0,0.0,-2.9261,-2.9791,-2.9928,-3.0004,-3.0125,-3.0263,-3.0295,-3.0395,-3.0577,-3.1599,0.0,0.0,0.0,0.0,0.0,0.0,0.0,0.0,0.0,0.0,0.0,0.0,0.0,0.0,0.0,0.0,0.0,0.0,0.0,0.0,0.0,0.0,0.0,0.0,0.0,0.0,0.0,0.0,0.0,0.0,0.0,0.0,-4.8641,-4.8909,-4.904,-4.7593,-4.6862,-4.6192,-4.5457,-4.5339,0.0,0.0,0.0,0.0,0.0,0.0,0.0,0.0,0.0,0.0,0.0,0.0,0.0,0.0,-4.5039,-4.5426,-4.636,-4.5542,-4.5487,-4.6281,-4.7963,-4.8834,-4.8896,-5.0529,-5.1298,-5.1288,-5.1217,-5.1166,0.0,0.0,0.0,0.0,-5.5365,-5.6083,-5.6184,-5.6133,-5.6046,-5.6091,-5.6906,-5.7718,-5.853,0.0,0.0,0.0,0.0,0.0,0.0,0.0,0.0,0.0,0.0,-2.5476,-2.6172,-2.6029,-2.6482,-2.6948,0.0,0.0,0.0,0.0,0.0,0.0,0.0,0.0,0.0,0.0,-2.9608,-3.0131,-3.0209,-2.9836,-2.9706,-2.984,-2.9477,-2.9585,-3.0143,-3.1794,0.0,0.0,0.0,0.0,0.0,0.0,0.0,0.0,0.0,0.0,0.0,-4.6959,-4.7497,0.0,0.0,0.0,0.0,0.0,0.0,0.0,0.0,-4.8632,-4.9528,-4.9386,0.0,-4.9962,-5.0054,-5.0006,0.0,0.0,0.0,0.0,0.0,0.0,0.0,0.0,-4.6781,-4.6485,0.0,0.0,0.0,0.0,0.0,0.0,0.0,0.0,0.0,0.0,0.0,0.0,0.0,0.0,0.0,0.0,-4.5366,-4.5719,-4.7243,-4.644,-4.6382,-4.7184,-4.825,-4.9099,-4.9722,-5.0801,-5.1259,-5.1225,-5.1159,-5.1102,0.0,0.0,0.0,-5.364,-5.3998,-5.4932,-5.6133,-5.6046,-5.6014,-5.6076,-5.685,-5.7294,-5.7622,0.0,0.0,0.0,0.0,0.0,0.0,0.0,0.0,0.0,0.0,0.0,0.0,0.0,0.0,0.0,0.0,0.0,0.0,0.0,0.0,0.0,0.0,0.0,0.0,0.0,-2.996,-3.0196,-3.0215,-2.9918,-2.9741,-2.9658,-2.958,-2.9713,-3.0086,-3.2461,0.0,0.0,0.0,0.0,0.0,-4.2151,0.0,0.0,0.0,0.0,0.0,-4.7278,-4.7817,0.0,-4.8202,-4.7529,-4.6913,0.0,0.0,0.0,0.0,-4.8435,-4.9146,-4.9543,-5.0119,-5.0584,-5.0486,-5.0339,-5.013,0.0,0.0,0.0,0.0,0.0,0.0,0.0,0.0,0.0,0.0,0.0,0.0,0.0,0.0,0.0,0.0,0.0,0.0,0.0,0.0,0.0,0.0,0.0,0.0,0.0,-4.5859,-4.62,-4.7518,-4.7094,-4.724,-4.8098,-4.8522,-4.9161,-4.9965,-5.084,-5.1217,-5.1139,-5.1114,-5.1089,0.0,0.0,0.0,-5.3049,-5.3797,-5.4633,-5.5484,-5.5857,-5.5979,-5.6001,-5.6406,-5.6811,-5.7215,0.0,0.0,0.0,0.0,0.0,0.0,0.0,0.0,0.0,0.0,0.0,0.0,0.0,0.0,0.0,0.0,0.0,0.0,0.0,0.0,0.0,0.0,0.0,-3.0241,-3.0273,-3.0254,-3.0216,-3.0132,-3.0004,-2.9813,-2.9588,-2.9823,-3.0196,-3.0794,-3.335,0.0,0.0,0.0,0.0,0.0,-4.2293,0.0,0.0,0.0,0.0,0.0,0.0,0.0,0.0,-4.7932,-4.7242,-4.6724,-4.6645,0.0,0.0,0.0,0.0,0.0,-4.9272,-5.0023,-5.0563,-5.0404,-5.0402,-5.0227,0.0,0.0,0.0,0.0,0.0,0.0,0.0,0.0,0.0,0.0,0.0,0.0,0.0,0.0,0.0,0.0,0.0,0.0,0.0,0.0,0.0,0.0,0.0,0.0,0.0,-4.6297,-4.6647,-4.7465,-4.7482,-4.7963,-4.8937,-4.8911,-4.9147,-4.9701,-5.0697,-5.1159,-5.1114,-5.1082,-5.1042,-5.1044,0.0,0.0,-5.2597,-5.4136,-5.4815,-5.497,-5.5705,-5.5923,-5.5885,-5.5885,-5.6308,-5.6883,0.0,0.0,0.0,0.0,0.0,0.0,0.0,0.0,0.0,0.0,0.0,0.0,0.0,0.0,0.0,0.0,0.0,0.0,0.0,0.0,0.0,0.0,0.0,-3.026,-3.0228,-3.0316,-3.0328,-3.0273,-2.9544,-2.9289,-2.9512,-2.8931,-3.0357,-3.3344,-3.4081,-3.5776,-3.8098,-3.8766,-3.9905,-4.135,-4.2071,0.0,0.0,0.0,0.0,0.0,0.0,0.0,0.0,-4.6472,-4.6373,-4.6656,-4.538,0.0,0.0,0.0,0.0,0.0,-4.8411,-4.9489,-5.0604,-5.0701,-5.072,-5.07,0.0,0.0,0.0,0.0,0.0,0.0,0.0,0.0,0.0,0.0,0.0,0.0,0.0,0.0,0.0,0.0,0.0,0.0,0.0,0.0,0.0,0.0,0.0,0.0,0.0,-4.6249,-4.6577,-4.7396,-4.7416,-4.8135,-4.9634,-4.9702,-4.9373,-4.8722,-5.0345,-5.1102,-5.1101,-5.1034,-5.102,-5.1044,0.0,-5.2539,-5.3293,-5.4244,-5.5055,-5.5731,-5.5866,-5.5866,-5.5826,-5.5826,-5.5862,-5.5917,0.0,0.0,0.0,0.0,0.0,0.0,0.0,0.0,0.0,0.0,0.0,0.0,0.0,0.0,0.0,0.0,0.0,0.0,0.0,0.0,0.0,0.0,-3.0502,-3.0138,-3.0147,-3.0095,-2.976,-2.9117,-2.9157,-2.8962,-2.8612,-2.9574,-3.1479,-3.4107,-3.521,-3.6772,-3.8625,-3.9759,-4.0839,-4.185,0.0,0.0,0.0,0.0,0.0,0.0,0.0,0.0,0.0,0.0,-4.5868,-4.6097,-4.5443,0.0,0.0,0.0,0.0,0.0,-4.9329,-5.0067,-5.0623,-5.0683,-5.0702,-5.0587,0.0,0.0,0.0,0.0,0.0,0.0,0.0,0.0,0.0,0.0,0.0,0.0,0.0,0.0,0.0,0.0,0.0,0.0,0.0,0.0,0.0,0.0,0.0,0.0,0.0,0.0,-4.6541,-4.7365,-4.7796,-4.8349,-4.9093,-5.0041,-5.0284,-4.9853,-5.0699,-5.1062,-5.099,-5.0956,-5.1173,-5.1606,0.0,-5.2566,-5.3359,-5.4227,-5.4786,-5.5151,-5.5692,-5.5806,-5.5684,-5.5684,-5.5703,-5.5703,0.0,0.0,0.0,0.0,0.0,0.0,0.0,0.0,0.0,0.0,0.0,0.0,0.0,0.0,0.0,0.0,0.0,0.0,0.0,0.0,-3.0301,-3.1033,-3.0551,-3.0181,-3.0034,-2.9902,-2.9317,-2.8241,-2.9007,-2.912,-2.8647,-3.0762,-3.2843,-3.4878,-3.6403,-3.7891,-3.9356,-4.0533,-4.1402,-4.2054,0.0,0.0,0.0,0.0,0.0,0.0,0.0,0.0,0.0,0.0,0.0,0.0,0.0,0.0,0.0,-4.7561,-4.8186,-4.8717,-4.9952,-5.0411,-5.0483,-5.0229,0.0,0.0,-4.9509,0.0,0.0,0.0,0.0,0.0,0.0,0.0,0.0,0.0,0.0,0.0,0.0,0.0,0.0,0.0,0.0,0.0,0.0,0.0,0.0,0.0,0.0,0.0,0.0,0.0,-4.6399,-4.7038,-4.7803,-4.8289,-4.8457,-4.9935,-5.0677,-5.0712,-5.0947,-5.099,-5.0909,-5.0909,-5.1341,-5.2119,-5.2279,-5.2762,-5.3532,-5.4437,-5.4764,-5.4718,-5.5495,-5.5703,-5.5573,-5.5573,-5.5596,-5.564,0.0,0.0,0.0,0.0,0.0,0.0,0.0,0.0,0.0,0.0,0.0,0.0,0.0,0.0,0.0,0.0,0.0,0.0,0.0,0.0,-3.0809,-3.0998,-3.1014,-3.0634,-2.9844,-2.9924,-2.9558,-2.8657,-2.933,-3.0114,-3.0989,-3.2229,-3.417,-3.6658,-3.7514,-3.8716,-4.0125,-4.0165,-4.0561,-4.1196,-4.1317,0.0,0.0,0.0,0.0,0.0,0.0,0.0,0.0,0.0,0.0,0.0,0.0,0.0,-4.674,-4.6928,-4.8009,-4.9122,-4.9127,-4.9713,-5.0068,-4.908,0.0,0.0,-4.9277,0.0,0.0,0.0,0.0,0.0,0.0,0.0,0.0,0.0,0.0,0.0,0.0,0.0,0.0,0.0,0.0,0.0,0.0,0.0,0.0,0.0,0.0,0.0,0.0,0.0,0.0,-4.6108,-4.6887,-4.7649,-4.8411,-4.9254,-4.9734,-4.9803,-5.0558,-5.0909,-5.0899,-5.0899,-5.1346,-5.2143,-5.282,-5.3568,-5.4376,-5.5132,-5.5431,-5.5451,-5.5508,-5.5527,-5.5504,-5.5504,-5.5504,-5.5504,0.0,0.0,0.0,0.0,0.0,0.0,0.0,0.0,0.0,0.0,0.0,0.0,0.0,0.0,0.0,0.0,0.0,0.0,0.0,0.0,-3.1651,-3.2341,-3.1467,-3.1073,-3.1299,-3.0368,-2.9437,-2.8588,-2.9545,-3.053,-3.1565,-3.3652,-3.5416,-3.6831,-3.7643,-3.8524,-3.949,-4.0005,-4.0043,-3.9872,-4.1495,-4.203,0.0,0.0,0.0,0.0,0.0,0.0,0.0,0.0,-4.4751,-4.5591,0.0,-4.5528,-4.6033,-4.6628,-4.7126,-4.7731,-4.8728,-4.8506,-4.8152,-4.8743,0.0,0.0,0.0,0.0,0.0,0.0,0.0,0.0,0.0,0.0,0.0,0.0,0.0,0.0,0.0,0.0,0.0,0.0,0.0,0.0,0.0,0.0,0.0,0.0,0.0,0.0,0.0,0.0,0.0,-4.6726,-4.7527,-4.8324,-4.9138,-4.9992,-5.0397,-5.0381,-5.069,-5.0844,-5.0899,-5.0775,-5.1472,-5.2781,-5.2986,-5.3824,-5.5044,-5.537,-5.548,-5.5432,-5.5432,-5.5456,-5.5504,-5.5456,-5.548,-5.5551,0.0,0.0,0.0,0.0,0.0,0.0,0.0,0.0,0.0,0.0,0.0,0.0,0.0,0.0,0.0,0.0,0.0,0.0,0.0,0.0,-3.2122,-3.2337,-3.1869,-3.1672,-3.1807,-3.0804,-2.9864,-2.9023,-2.989,-3.1094,-3.259,-3.4715,-3.5938,-3.6427,-3.7261,-3.7858,-3.8308,-3.8926,-3.897,-3.8843,-4.0881,-4.1358,0.0,0.0,0.0,0.0,0.0,0.0,0.0,0.0,0.0,0.0,0.0,0.0,0.0,0.0,-4.6816,-4.7214,-4.8353,-4.7867,-4.7164,0.0,0.0,0.0,0.0,0.0,0.0,0.0,0.0,0.0,0.0,0.0,0.0,0.0,0.0,0.0,0.0,0.0,0.0,0.0,0.0,0.0,0.0,0.0,0.0,0.0,0.0,0.0,0.0,0.0,-4.662,-4.7191,-4.797,-4.8763,-4.9586,-5.0135,-5.0542,-5.0775,-5.072,-5.0739,-5.0829,-5.0663,-5.1395,-5.2758,-5.2919,-5.3752,-5.5044,-5.5336,-5.5427,-5.5421,-5.5421,-5.5446,-5.5451,-5.5408,-5.5456,-5.5527,0.0,0.0,0.0,0.0,0.0,0.0,0.0,0.0,0.0,0.0,0.0,0.0,0.0,0.0,0.0,0.0,0.0,0.0,0.0,-3.264,-3.2072,-3.0587,-3.2169,-3.2449,-3.1073,-3.1231,-3.0929,-3.0119,-3.0461,-3.1932,-3.4431,-3.5291,-3.563,-3.5538,-3.6411,-3.6751,-3.6701,-3.6783,-3.7311,-3.8156,-3.9122,-3.951,-3.9578,0.0,0.0,0.0,0.0,0.0,0.0,0.0,-4.4925,0.0,0.0,0.0,0.0,0.0,-4.724,-4.7972,-4.7893,-4.7914,0.0,0.0,0.0,0.0,0.0,0.0,0.0,0.0,0.0,0.0,0.0,0.0,0.0,0.0,0.0,0.0,0.0,0.0,0.0,0.0,0.0,0.0,0.0,0.0,0.0,0.0,0.0,0.0,0.0,-4.6719,-4.7191,-4.7209,-4.7913,-4.8723,-4.9586,-4.9469,-4.9836,-5.0701,-5.0565,-5.0565,-5.0701,-5.0625,-5.1048,-5.1851,-5.2564,-5.3379,-5.4259,-5.5065,-5.5403,-5.5403,-5.5403,-5.5403,-5.5403,-5.5402,-5.5408,-5.5408,0.0,0.0,0.0,0.0,0.0,0.0,0.0,0.0,0.0,0.0,0.0,0.0,0.0,0.0,0.0,0.0,0.0,0.0,0.0,-3.2931,-3.3238,-3.2976,-3.3022,-3.322,-3.3665,-3.3446,-3.2697,-3.1379,-3.2682,-3.3743,-3.4552,-3.5378,-3.6057,-3.6534,-3.6188,-3.6355,-3.6914,-3.7019,-3.6874,-3.6729,-3.8871,-3.9325,-3.8887,0.0,0.0,0.0,0.0,0.0,0.0,0.0,0.0,0.0,0.0,0.0,0.0,-4.5916,-4.6069,-4.6242,-4.6224,-4.5423,0.0,0.0,0.0,0.0,0.0,0.0,0.0,0.0,0.0,0.0,0.0,0.0,0.0,0.0,0.0,0.0,0.0,0.0,0.0,0.0,0.0,0.0,0.0,0.0,0.0,0.0,0.0,0.0,0.0,-4.61,-4.6496,-4.7094,-4.7886,-4.8668,-4.9449,-4.9971,-5.0336,-5.0565,-5.0521,-5.0542,-5.0624,-5.0502,-5.0919,-5.174,-5.192,-5.2447,-5.3269,-5.4123,-5.4486,-5.4543,-5.5154,-5.5409,-5.5402,-5.5383,-5.5432,-5.548,0.0,0.0,0.0,0.0,0.0,0.0,0.0,0.0,0.0,0.0,0.0,0.0,0.0,0.0,0.0,0.0,0.0,0.0,0.0,0.0,-3.357,-3.3486,-3.3493,-3.3807,-3.4429,-3.4604,-3.4079,-3.2899,-3.3996,-3.4722,-3.5093,-3.5554,-3.5669,-3.5485,-3.5282,-3.5321,-3.5552,-3.6018,-3.6096,-3.6114,-3.8034,-3.8658,-3.8597,0.0,0.0,0.0,0.0,0.0,0.0,0.0,0.0,0.0,0.0,0.0,0.0,-4.5684,-4.5696,-4.563,-4.5295,0.0,0.0,0.0,0.0,0.0,0.0,0.0,0.0,0.0,0.0,0.0,0.0,0.0,0.0,0.0,0.0,0.0,0.0,0.0,0.0,0.0,0.0,0.0,0.0,0.0,0.0,0.0,0.0,0.0,0.0,-4.6462,-4.704,-4.7557,-4.8634,-4.9428,-4.9875,-5.0276,-5.0462,-5.0416,-5.0393,-5.0393,-5.0457,-5.0412,-5.0699,-5.1197,-5.1472,-5.2059,-5.293,-5.3741,-5.4104,-5.418,-5.5065,-5.5396,-5.5408,-5.5456,-5.5504,-5.5551,0.0,0.0,0.0,0.0,0.0,0.0,0.0,0.0,0.0,0.0,0.0,0.0,0.0,0.0,0.0,0.0,0.0,0.0,0.0,0.0,-3.3342,-3.282,-3.3807,-3.4242,-3.4017,-3.4928,-3.5091,-3.4494,-3.4633,-3.5077,-3.5798,0.0,-3.4801,-3.3454,0.0,-3.407,-3.3592,-3.4449,-3.5273,-3.6081,-3.6944,-3.7788,-3.859,-3.946,0.0,0.0,0.0,0.0,0.0,0.0,0.0,0.0,0.0,0.0,-4.5808,-4.5814,-4.5854,-4.57,0.0,0.0,0.0,0.0,0.0,0.0,0.0,0.0,0.0,0.0,0.0,0.0,0.0,0.0,0.0,0.0,0.0,0.0,0.0,0.0,0.0,0.0,0.0,0.0,0.0,0.0,0.0,0.0,0.0,0.0,0.0,-4.7342,-4.8212,-4.8293,-4.9721,-5.0471,-5.0452,-5.0358,-5.0302,-5.0278,-5.0231,-5.0188,-5.0188,-5.0325,-5.039,-5.0428,-5.1166,-5.1931,-5.2724,-5.3536,-5.3913,-5.409,-5.4943,-5.5331,-5.5413,-5.5474,-5.5481,-5.5481,0.0,0.0,0.0,0.0,0.0,0.0,0.0,0.0,0.0,0.0,0.0,0.0,0.0,0.0,0.0,0.0,0.0,0.0,0.0,0.0,-3.3514,-3.355,-3.4236,-3.4716,-3.4905,-3.5244,-3.5374,-3.5258,-3.541,0.0,0.0,0.0,0.0,-3.5138,0.0,-3.4807,-3.5349,-3.5561,-3.5781,-3.6072,-3.6895,-3.7737,-3.86,-3.9409,-4.0253,0.0,0.0,0.0,0.0,0.0,0.0,0.0,-4.5986,-4.5977,-4.5949,-4.5951,-4.5528,-4.4869,0.0,0.0,0.0,0.0,0.0,0.0,0.0,0.0,0.0,0.0,0.0,0.0,0.0,0.0,0.0,0.0,0.0,0.0,0.0,0.0,0.0,0.0,0.0,0.0,0.0,0.0,0.0,0.0,0.0,0.0,-4.6786,-4.7009,-4.7453,-4.8126,-4.9026,-4.9444,-4.9357,-4.9981,-5.0255,0.0,-5.0163,-5.0188,-5.0188,-5.0278,-5.0325,-5.0344,-5.0493,-5.0684,-5.0937,-5.1773,-5.2523,-5.3245,-5.4125,-5.4925,-5.5474,-5.4885,-5.4655,-5.4581,0.0,0.0,0.0,0.0,0.0,0.0,0.0,0.0,0.0,0.0,0.0,0.0,0.0,0.0,0.0,0.0,0.0,0.0,0.0,0.0,0.0,0.0,-3.4348,-3.4693,-3.4946,-3.504,-3.5113,-3.5205,0.0,0.0,0.0,0.0,0.0,-3.5027,0.0,-3.5152,-3.5301,-3.5717,-3.5933,-3.6067,-3.6882,-3.7722,-3.8585,-3.9384,-4.0253,-4.1156,-4.1965,0.0,0.0,0.0,0.0,0.0,0.0,0.0,-4.6016,-4.5599,-4.5184,-4.4592,0.0,0.0,0.0,0.0,0.0,0.0,0.0,0.0,0.0,0.0,0.0,0.0,0.0,0.0,0.0,0.0,0.0,0.0,0.0,0.0,0.0,0.0,0.0,0.0,0.0,0.0,0.0,0.0,0.0,-4.6039,-4.6913,-4.7223,-4.7757,-4.8603,-4.9386,-4.9743,-4.9633,-5.0002,-5.0158,-5.0057,-5.0133,-5.0182,-5.0255,-5.0278,-5.0325,-5.0367,-5.0302,-5.0325,-5.0425,-5.1238,-5.1873,-5.2379,-5.3269,-5.3932,-5.4303,-5.3966,-5.3855,-5.3818,0.0,0.0,0.0,0.0,0.0,0.0,0.0,0.0,0.0,0.0,0.0,0.0,0.0,0.0,0.0,0.0,0.0,0.0,0.0,0.0,0.0,0.0,-3.4346,-3.4591,-3.4819,-3.4982,-3.5135,-3.5267,0.0,0.0,0.0,0.0,0.0,-3.453,0.0,-3.5329,-3.4841,-3.5578,-3.5938,-3.6074,-3.6875,-3.7726,-3.8595,-3.9415,-4.0286,-4.1188,-4.1851,-4.2214,-4.2499,-4.3231,0.0,0.0,0.0,0.0,-4.5857,-4.5124,-4.4802,-4.4391,0.0,0.0,0.0,0.0,0.0,0.0,0.0,0.0,0.0,0.0,0.0,0.0,0.0,0.0,0.0,0.0,0.0,0.0,0.0,0.0,0.0,0.0,0.0,0.0,0.0,0.0,0.0,0.0,0.0,-4.5953,-4.6762,-4.7566,-4.8367,-4.9135,-4.9953,-5.0325,-5.0278,-5.0182,-5.0082,-5.0005,-5.0057,-5.0158,-5.0278,-5.0278,-5.0325,-5.039,-5.0325,-5.0325,-5.0447,-5.1109,-5.1467,-5.1725,-5.2487,-5.2877,-5.3015,-5.3009,-5.3031,-5.307,0.0,0.0,0.0,0.0,0.0,0.0,0.0,0.0,0.0,0.0,0.0,0.0,0.0,0.0,0.0,0.0,0.0,0.0,-3.3316,0.0,0.0,-3.3771,-3.4513,-3.5055,-3.5291,-3.6104,-3.6592,0.0,0.0,0.0,0.0,0.0,0.0,-3.5262,0.0,0.0,-3.556,-3.5791,-3.5942,-3.6062,-3.6887,-3.7721,-3.858,-3.9472,-4.0324,-4.1109,-4.1156,-4.1707,-4.2421,-4.2526,-4.3144,0.0,0.0,0.0,-4.5138,-4.5013,-4.4445,-4.3821,0.0,0.0,0.0,0.0,0.0,0.0,0.0,0.0,0.0,0.0,0.0,0.0,0.0,0.0,0.0,0.0,0.0,0.0,0.0,0.0,0.0,0.0,0.0,0.0,0.0,0.0,0.0,0.0,-4.5275,-4.6005,-4.676,-4.7568,-4.8309,-4.8987,-4.9866,-5.0255,-5.0133,-5.0182,-5.0114,-5.0005,-5.0005,-5.0063,-5.0212,-5.0212,-5.0255,-5.0302,-5.0302,-5.0325,-5.039,-5.0459,-5.0983,-5.1782,-5.19,-5.2423,-5.3003,-5.2396,-5.2203,-5.2162,0.0,0.0,0.0,0.0,0.0,0.0,0.0,0.0,0.0,0.0,0.0,0.0,0.0,0.0,0.0,-3.4831,-3.4755,-3.4285,-3.3096,-3.3503,-3.3857,-3.4027,-3.4927,-3.5542,-3.5846,-3.6361,-3.6694,0.0,0.0,0.0,0.0,-3.6823,-3.6425,0.0,0.0,0.0,0.0,-3.6423,-3.6692,-3.6841,-3.8142,-3.8595,-3.8645,-4.0005,-4.0469,-4.0426,-4.0883,-4.1319,-4.1677,-4.1677,-4.2257,-4.2968,-4.2967,0.0,0.0,0.0,-4.3646,0.0,0.0,0.0,0.0,0.0,0.0,0.0,0.0,0.0,0.0,0.0,0.0,0.0,0.0,0.0,0.0,0.0,0.0,0.0,0.0,0.0,0.0,0.0,0.0,0.0,0.0,0.0,0.0,0.0,-4.5156,-4.5897,-4.6686,-4.7009,-4.7728,-4.9003,-4.9423,-4.9797,-5.0139,-5.0207,-5.0139,-5.0057,-5.0057,-5.0108,-5.0188,-5.0255,-5.0278,-5.0302,-5.0302,-5.0325,-5.0412,-5.0367,-5.0645,-5.1097,-5.1121,-5.1353,-5.1663,-5.1451,-5.1423,-5.1432,0.0,0.0,0.0,0.0,0.0,0.0,0.0,0.0,0.0,0.0,0.0,0.0,0.0,0.0,0.0,0.0,-3.5093,-3.4684,-3.314,-3.3426,-3.3723,-3.3974,-3.5056,-3.5824,-3.6182,-3.6793,0.0,0.0,0.0,0.0,-3.7783,-3.7947,-3.771,0.0,-3.6972,0.0,0.0,0.0,0.0,-3.7109,-3.8574,-3.8784,-3.8352,-3.9893,-4.0068,-3.9619,-4.0465,-4.0761,-4.0801,-4.1015,-4.1517,-4.2075,-4.2051,-4.2642,0.0,0.0,0.0,0.0,0.0,0.0,0.0,0.0,0.0,0.0,0.0,0.0,0.0,0.0,0.0,0.0,0.0,0.0,0.0,0.0,0.0,0.0,0.0,0.0,0.0,0.0,0.0,0.0,0.0,0.0,0.0,0.0,-4.5031,-4.5688,-4.63,-4.6679,-4.7417,-4.8647,-4.9152,-4.9644,-5.0139,-5.0139,-5.0114,-5.0108,-5.0082,-5.0133,-5.0188,-5.0255,-5.0302,-5.0325,-5.0325,-5.0371,-5.0459,-5.0457,-5.05,-5.0565,-5.0625,-5.0644,-5.0663,-5.0863,-5.0975,-5.1029,0.0,0.0,0.0,0.0,0.0,0.0,0.0,0.0,0.0,0.0,0.0,0.0,-3.5522,-3.6075,-3.5576,-3.3237,-3.4316,-3.4693,-3.3739,-3.3032,-3.2798,-3.3072,-3.4684,0.0,-3.6106,-3.7853,0.0,0.0,0.0,0.0,-3.9652,-3.9107,-3.8932,-3.8984,-3.7469,-3.6443,-3.5807,0.0,0.0,0.0,0.0,0.0,0.0,0.0,0.0,0.0,0.0,-3.9875,-3.9988,-4.0743,-4.1085,-4.1149,-4.1096,-4.1707,-4.2479,0.0,0.0,0.0,0.0,0.0,0.0,0.0,0.0,0.0,0.0,0.0,0.0,0.0,0.0,0.0,0.0,0.0,0.0,0.0,0.0,0.0,0.0,0.0,0.0,0.0,0.0,0.0,0.0,0.0,0.0,0.0,-4.5087,-4.5458,-4.5375,-4.6925,-4.7758,-4.7599,-4.9262,-5.01,-5.0005,-5.0005,-5.0057,-5.0108,-5.0031,-5.0063,-5.0188,-5.0188,-5.0278,-5.039,-5.039,-5.0462,-5.0586,-5.0604,-5.0624,-5.0682,-5.0701,-5.072,-5.081,-5.0941,-5.1029,-5.1108,0.0,0.0,0.0,0.0,0.0,0.0,0.0,0.0,0.0,0.0,0.0,0.0,0.0,-3.7241,-3.6101,-3.464,-3.4319,-3.3846,-3.2982,-3.4126,-3.4759,-3.4605,-3.577,-3.6894,-3.7871,-3.8136,0.0,0.0,0.0,-3.9161,-3.9047,-3.9469,-3.8895,-3.7525,-3.7604,-3.7268,-3.6639,-3.6707,0.0,0.0,0.0,0.0,0.0,0.0,0.0,0.0,0.0,0.0,0.0,-4.0062,-4.052,-4.0964,-4.0991,-4.1597,-4.239,-4.2994,-4.3741,0.0,0.0,0.0,0.0,0.0,0.0,0.0,0.0,0.0,0.0,0.0,0.0,0.0,0.0,0.0,0.0,0.0,0.0,0.0,0.0,0.0,0.0,0.0,0.0,0.0,0.0,0.0,0.0,0.0,0.0,-4.5399,-4.5317,-4.5808,-4.6538,-4.7533,-4.8161,-4.8954,-4.9986,-5.0005,-5.0031,-5.0108,-5.0082,-5.0108,-5.0188,-5.0236,-5.0325,-5.0478,-5.05,-5.0565,-5.0587,-5.0664,-5.072,-5.0829,-5.0825,-5.0874,-5.0932,-5.1017,-5.1113,-5.1169,0.0,0.0,0.0,0.0,0.0,0.0,0.0,0.0,0.0,0.0,0.0,0.0,0.0,0.0,-3.6782,-3.574,-3.4146,-3.3248,-3.3371,-3.4458,-3.5241,-3.5639,-3.6352,-3.7287,-3.8496,-3.8377,0.0,0.0,0.0,0.0,0.0,-3.9711,-3.9089,-3.7386,-3.7814,-3.7497,0.0,0.0,0.0,-3.6918,0.0,0.0,-3.6886,0.0,0.0,0.0,0.0,0.0,0.0,0.0,0.0,-4.0576,-4.1185,-4.1952,-4.2758,-4.3386,-4.4137,0.0,0.0,0.0,0.0,0.0,0.0,0.0,0.0,0.0,0.0,0.0,0.0,0.0,0.0,0.0,0.0,0.0,0.0,0.0,0.0,0.0,0.0,0.0,0.0,0.0,0.0,0.0,0.0,0.0,0.0,0.0,-4.517,-4.5369,-4.6121,-4.746,-4.7448,-4.7927,-4.9045,-4.9072,-4.9276,-4.9632,-4.9638,-4.9866,-5.0188,-5.0278,-5.0371,-5.05,-5.0584,-5.0625,-5.0663,-5.0738,-5.0827,-5.0929,-5.0925,-5.0966,-5.105,-5.1113,-5.115,-5.1211,0.0,0.0,0.0,0.0,0.0,0.0,0.0,0.0,0.0,0.0,0.0,0.0,0.0,0.0,0.0,-3.6171,-3.3792,-3.3178,-3.4994,-3.3916,-3.4057,-3.5917,-3.6241,-3.6833,-3.7766,-3.8646,0.0,0.0,0.0,0.0,0.0,0.0,-3.9584,-3.8783,-3.8104,-3.7045,-3.5791,0.0,-3.5919,-3.5958,0.0,-3.5914,-3.5812,0.0,0.0,0.0,-3.5788,-3.6332,0.0,-3.8933,0.0,0.0,0.0,0.0,-4.35,-4.3539,0.0,0.0,0.0,0.0,0.0,0.0,0.0,0.0,0.0,0.0,0.0,0.0,0.0,0.0,0.0,0.0,0.0,0.0,0.0,0.0,0.0,0.0,0.0,0.0,0.0,0.0,0.0,0.0,0.0,0.0,-4.5341,-4.517,-4.4919,-4.5778,-4.6588,-4.7235,-4.7238,-4.7183,-4.7183,-4.7265,-4.7761,-4.8647,-4.8726,-4.9245,-5.013,-5.0202,-5.0294,-5.0423,-5.0509,-5.0586,-5.0752,-5.0844,-5.0929,-5.1005,-5.1005,-5.1042,-5.1108,-5.1167,-5.121,-5.122,0.0,0.0,0.0,0.0,0.0,0.0,0.0,0.0,0.0,0.0,0.0,0.0,0.0,-3.8162,-3.5981,-3.4829,-3.4652,-3.4845,-3.5442,-3.5792,-3.6006,-3.608,-3.6153,-3.6673,-3.7711,-3.7951,0.0,0.0,0.0,0.0,0.0,0.0,0.0,0.0,-3.7483,-3.6891,-3.5512,-3.563,0.0,0.0,-3.5606,-3.5113,0.0,0.0,0.0,0.0,0.0,-3.5718,-3.7112,0.0,-3.8996,-3.9832,0.0,0.0,0.0,0.0,0.0,0.0,-4.5485,0.0,0.0,0.0,0.0,0.0,0.0,0.0,0.0,0.0,0.0,0.0,0.0,0.0,0.0,0.0,0.0,0.0,0.0,0.0,0.0,0.0,0.0,0.0,0.0,0.0,0.0,0.0,-4.5211,-4.5076,-4.4895,-4.5653,-4.6123,-4.6204,-4.6862,-4.7183,-4.7146,-4.7183,-4.7424,-4.7757,-4.7782,-4.7998,-4.8395,-4.8418,-4.8509,-4.8679,-4.8721,-4.8817,-4.9092,-5.0361,-5.0964,-5.1067,-5.1067,-5.1095,-5.118,-5.1189,-5.123,-5.1265,0.0,0.0,0.0,0.0,0.0,0.0,0.0,0.0,0.0,0.0,0.0,0.0,0.0,0.0,-3.5436,-3.5238,-3.5163,-3.5393,-3.615,-3.6503,-3.6821,-3.7113,-3.682,-3.7099,-3.8103,-3.8151,0.0,0.0,0.0,0.0,0.0,0.0,0.0,0.0,0.0,0.0,0.0,0.0,0.0,0.0,-3.5105,0.0,0.0,-3.3383,-3.3692,0.0,0.0,0.0,-3.6984,-3.7873,-3.9219,0.0,0.0,0.0,0.0,0.0,0.0,0.0,0.0,0.0,0.0,0.0,0.0,0.0,-4.4476,-4.4013,0.0,0.0,0.0,0.0,0.0,0.0,0.0,0.0,0.0,0.0,0.0,0.0,0.0,0.0,0.0,0.0,0.0,-4.5565,-4.5438,-4.5246,-4.5071,-4.4933,-4.4745,-4.5076,-4.5256,-4.5162,-4.5707,-4.597,-4.5941,-4.6027,-4.6261,-4.6709,-4.6807,-4.7125,-4.7638,-4.7666,-4.7799,-4.7988,-4.8029,-4.8125,-4.8345,-4.9379,-4.99,-5.0054,-5.0422,-5.0603,-5.0694,-5.1072,-5.123,-5.1248,0.0,0.0,0.0,0.0,0.0,0.0,0.0,0.0,0.0,0.0,0.0,0.0,0.0,0.0,0.0,-3.6576,-3.5507,-3.5444,-3.6989,-3.651,-3.6821,-3.8277,-3.7686,-3.7711,-3.853,-3.8695,0.0,0.0,0.0,0.0,0.0,0.0,0.0,0.0,0.0,0.0,0.0,0.0,0.0,-3.5461,-3.4511,-3.4017,0.0,0.0,-3.2545,-3.3838,-3.3134,-3.4571,-3.6942,-3.7906,-3.985,0.0,0.0,0.0,0.0,0.0,-4.5208,0.0,0.0,0.0,0.0,0.0,0.0,0.0,-4.4694,-4.4504,-4.4468,0.0,0.0,0.0,0.0,0.0,0.0,0.0,0.0,0.0,0.0,0.0,0.0,0.0,0.0,0.0,-4.5623,-4.5493,-4.5317,-4.5114,-4.4946,-4.4764,-4.4496,-4.4373,-4.4285,-4.4285,-4.4285,-4.4285,-4.4285,-4.443,-4.4824,-4.5566,-4.5825,-4.6379,-4.7232,-4.7353,-4.7532,-4.7701,-4.776,-4.7837,-4.7908,-4.7979,-4.8187,-4.8567,-4.9356,-4.9756,-5.0001,-5.0781,-5.1113,-5.122,-5.1806,0.0,0.0,0.0,0.0,0.0,0.0,0.0,0.0,0.0,0.0,0.0,0.0,0.0,0.0,0.0,-3.6417,-3.6805,-3.7525,-3.7054,-3.6906,-3.7293,-3.7098,-3.7144,-3.7389,-3.8167,0.0,0.0,0.0,0.0,0.0,0.0,0.0,0.0,0.0,0.0,0.0,0.0,0.0,-3.4508,-3.3954,0.0,-3.1657,-3.139,-3.1955,-3.2894,-3.2842,-3.4499,-3.6958,-3.8595,-3.9985,-4.1156,0.0,0.0,0.0,-4.4355,0.0,0.0,0.0,0.0,0.0,0.0,0.0,0.0,-4.5472,-4.5439,-4.5423,0.0,0.0,0.0,0.0,0.0,0.0,0.0,0.0,0.0,0.0,0.0,0.0,0.0,0.0,0.0,-4.5637,-4.5496,-4.529,-4.5033,-4.4749,-4.4524,-4.4411,-4.4344,-4.4285,-4.4285,-4.4285,-4.4285,-4.4285,-4.4314,-4.4476,-4.474,-4.485,-4.5059,-4.5412,-4.5532,-4.5687,-4.5835,-4.5898,-4.5994,-4.6121,-4.6169,-4.7071,-4.8443,-4.8664,-4.9256,-4.9995,-5.0111,-5.0627,-5.1284,-5.3059,0.0,0.0,0.0,0.0,0.0,0.0,0.0,0.0,0.0,0.0,0.0,0.0,0.0,0.0,0.0,0.0,0.0,0.0,-3.7789,-3.7787,-3.8667,-3.7907,-3.7754,-3.8382,-3.8478,0.0,0.0,0.0,0.0,0.0,0.0,0.0,0.0,0.0,0.0,0.0,0.0,-3.4952,-3.3969,-3.3098,0.0,-3.1317,-3.1054,-3.1541,-3.2479,-3.308,-3.5043,-3.7627,-3.9392,-4.0314,0.0,0.0,-4.257,-4.3421,0.0,-4.5148,-4.5791,0.0,0.0,0.0,-4.5703,0.0,0.0,0.0,-4.562,-4.5603,0.0,0.0,0.0,0.0,0.0,0.0,0.0,0.0,0.0,0.0,0.0,0.0,0.0,0.0,0.0,-4.5673,-4.5495,-4.5189,-4.4829,-4.4543,-4.4512,-4.4766,-4.4761,-4.4668,-4.4636,-4.4655,-4.4451,-4.4042,-4.4116,-4.4188,-4.4306,-4.4468,-4.4659,-4.4846,-4.4991,-4.5148,-4.5317,-4.538,-4.5476,-4.5568,-4.5668,-4.6263,-4.7149,-4.7663,-4.8448,-4.9342,-4.975,-5.0461,-5.1248,-5.4032,0.0,0.0,0.0,0.0,0.0,0.0,0.0,0.0,0.0,0.0,0.0,0.0,0.0,0.0,0.0,0.0,0.0,0.0,0.0,0.0,-4.0292,-3.9121,-3.8846,-3.9771,-3.9199,-3.8925,0.0,0.0,0.0,0.0,0.0,0.0,0.0,0.0,0.0,0.0,0.0,0.0,-3.3405,0.0,-3.1912,-3.1733,-3.1102,-3.1516,-3.258,-3.3843,-3.5902,-3.8224,-3.9793,-4.0439,-4.0756,-4.168,-4.2543,0.0,0.0,0.0,0.0,0.0,0.0,0.0,0.0,0.0,-4.569,0.0,0.0,0.0,0.0,0.0,0.0,0.0,0.0,0.0,0.0,0.0,0.0,0.0,0.0,0.0,0.0,0.0,0.0,0.0,-4.5201,-4.4938,-4.4665,-4.4445,-4.4531,-4.4952,-4.5008,-4.4927,-4.4731,-4.4844,-4.4549,-4.3738,-4.3846,-4.3881,-4.3837,-4.4082,-4.4231,-4.4298,-4.4445,-4.4608,-4.4779,-4.4882,-4.5035,-4.5263,-4.5401,-4.5611,-4.5902,-4.6642,-4.7513,-4.8455,-4.9342,-5.0228,-5.1006,-5.5112,-5.5724,0.0,0.0,0.0,0.0,0.0,0.0,0.0,0.0,0.0,0.0,0.0,0.0,0.0,0.0,0.0,0.0,-3.9288,0.0,0.0,0.0,-4.0019,-4.0021,-4.0148,-4.0274,-4.0068,0.0,0.0,0.0,0.0,0.0,0.0,0.0,-3.8762,0.0,0.0,0.0,-3.4723,0.0,-3.2338,-3.2397,0.0,-3.174,-3.2199,-3.344,-3.54,-3.6881,-3.8059,0.0,-3.9918,-4.0742,0.0,-4.2502,-4.3305,-4.3355,0.0,0.0,0.0,0.0,0.0,0.0,-4.575,0.0,0.0,0.0,-4.5657,-4.5622,0.0,0.0,0.0,0.0,0.0,0.0,0.0,0.0,0.0,0.0,0.0,0.0,0.0,0.0,0.0,-4.4342,-4.4315,-4.4753,-4.4576,-4.4402,-4.4153,-4.4595,-4.4499,-4.3697,-4.4358,-4.4358,-4.3532,-4.3597,-4.3379,-4.2872,-4.3077,-4.2912,-4.241,-4.2654,-4.2832,-4.2919,-4.3101,-4.3635,-4.436,-4.4553,-4.5138,-4.5893,-4.6009,-4.6632,-4.7561,-4.8487,-4.94,-5.0255,-5.5954,-5.6328,0.0,0.0,0.0,0.0,0.0,0.0,0.0,0.0,0.0,0.0,0.0,0.0,0.0,0.0,0.0,-3.9829,0.0,0.0,0.0,0.0,0.0,0.0,-4.1978,-4.1106,-4.0575,-4.0346,-4.001,0.0,0.0,0.0,0.0,0.0,-3.7681,0.0,-3.5532,0.0,-3.4595,0.0,0.0,0.0,0.0,-3.2545,-3.3059,-3.4308,-3.5799,-3.6953,-3.7934,0.0,-3.9772,0.0,0.0,0.0,0.0,0.0,0.0,0.0,0.0,0.0,0.0,0.0,0.0,0.0,-4.5635,0.0,-4.5513,0.0,0.0,0.0,0.0,0.0,0.0,0.0,-4.6543,0.0,0.0,0.0,0.0,0.0,0.0,0.0,0.0,0.0,0.0,0.0,-4.4384,-4.4703,-4.5179,-4.4849,-4.4565,-4.4413,-4.4379,-4.398,-4.316,-4.3338,-4.314,-4.2656,-4.2839,-4.267,-4.2153,-4.2323,-4.2462,-4.2612,-4.2776,-4.308,-4.3517,-4.3686,-4.4293,-4.515,-4.5183,-4.6088,-4.7407,-4.7796,-4.8505,-4.9359,-5.6484,0.0,0.0,0.0,0.0,0.0,0.0,0.0,0.0,0.0,0.0,0.0,-4.1079,-4.0997,0.0,0.0,-4.0559,-4.1002,0.0,0.0,-4.1676,0.0,0.0,0.0,0.0,0.0,-4.1303,-4.1186,0.0,0.0,0.0,0.0,0.0,0.0,0.0,-3.6536,-3.5564,0.0,0.0,-3.2911,-3.3437,-3.3607,-3.3545,-3.3309,-3.3794,-3.4741,-3.5569,-3.6635,-3.7718,-3.8457,-3.9463,0.0,-4.1209,0.0,0.0,0.0,0.0,0.0,-4.3819,0.0,0.0,0.0,0.0,0.0,0.0,0.0,0.0,0.0,0.0,0.0,0.0,0.0,0.0,0.0,0.0,0.0,0.0,0.0,0.0,0.0,0.0,0.0,0.0,0.0,0.0,-4.3733,-4.408,-4.4626,-4.5392,-4.4837,-4.4381,-4.4079,-4.3833,-4.3204,-4.2192,-4.2486,-4.2378,-4.1872,-4.2121,-4.1996,-4.1505,-4.1642,-4.1778,-4.1949,-4.2087,-4.2368,-4.2684,-4.2811,-4.3419,-4.4299,-4.4594,-4.5509,-4.6747,-4.7222,-4.796,-4.8814,-5.6598,-5.661,0.0,0.0,0.0,0.0,0.0,0.0,0.0,0.0,0.0,0.0,0.0,0.0,0.0,0.0,0.0,-4.3492,-4.2341,0.0,-4.3243,0.0,0.0,-4.2808,0.0,0.0,0.0,0.0,0.0,0.0,0.0,0.0,0.0,0.0,0.0,-3.8258,-3.7466,-3.6676,-3.4518,-3.1642,-3.2612,-3.2993,-3.3019,0.0,-3.4344,-3.4517,-3.4685,0.0,0.0,-3.7585,-3.8784,0.0,0.0,0.0,0.0,0.0,0.0,0.0,0.0,0.0,0.0,-4.4623,0.0,0.0,0.0,0.0,-4.5586,0.0,0.0,0.0,0.0,0.0,0.0,0.0,0.0,0.0,0.0,0.0,0.0,0.0,0.0,0.0,0.0,0.0,0.0,-4.3787,-4.3753,-4.3727,-4.38,-4.425,-4.3579,-4.1569,-4.2253,-4.1911,-4.0399,-4.0707,-4.0595,-4.0007,-4.0411,-4.0308,-3.9792,-4.0051,-4.0214,-4.0291,-4.0485,-4.1043,-4.184,-4.1975,-4.2589,-4.3521,-4.437,-4.4783,-4.5082,-4.6774,-4.794,-4.8822,0.0,0.0,0.0,0.0,0.0,0.0,0.0,-5.1416,0.0,0.0,0.0,0.0,0.0,-4.4762,-4.4191,0.0,0.0,-4.3542,-4.2763,-4.3529,0.0,0.0,0.0,-4.4982,0.0,0.0,0.0,0.0,0.0,0.0,0.0,0.0,0.0,0.0,0.0,-3.8077,0.0,0.0,0.0,0.0,0.0,-3.3376,-3.2739,0.0,0.0,-3.4989,-3.5112,-3.6302,0.0,-3.8118,-3.9045,-4.008,-4.0215,-4.0553,-4.0825,-4.0521,-4.1511,0.0,0.0,0.0,-4.4643,-4.4453,0.0,0.0,0.0,0.0,0.0,0.0,0.0,0.0,0.0,0.0,0.0,0.0,0.0,0.0,0.0,0.0,0.0,0.0,0.0,0.0,0.0,0.0,0.0,-4.3212,-4.2642,-4.2569,-4.3136,-4.2069,-4.1214,-4.069,-4.0885,-4.0757,-4.0236,-4.0073,-3.9735,-3.9183,-3.8998,-3.8621,-3.8156,-3.8854,-3.8976,-3.8684,-3.9945,-4.0395,-4.0268,-4.0931,-4.1757,-4.2682,-4.3557,-4.4268,-4.4945,-4.6113,-4.6742,-4.724,-5.6595,0.0,0.0,0.0,0.0,0.0,0.0,0.0,0.0,0.0,-4.8447,0.0,-4.6927,0.0,-4.5433,0.0,-4.4758,-4.4747,-4.3615,-4.4505,0.0,-4.5772,-4.5717,0.0,0.0,0.0,0.0,0.0,0.0,-4.3469,0.0,0.0,0.0,0.0,0.0,0.0,-3.7377,0.0,-3.6264,0.0,0.0,-3.3697,0.0,0.0,-3.4935,-3.545,0.0,-3.6607,-3.7899,-3.8281,-3.9033,-3.9848,-4.0058,-4.0215,-4.0326,-4.0325,-4.12,-4.2264,-4.2544,-4.3626,0.0,-4.4441,-4.4949,0.0,-4.4874,0.0,0.0,0.0,0.0,0.0,0.0,0.0,0.0,0.0,0.0,0.0,0.0,-4.6421,0.0,0.0,0.0,0.0,0.0,0.0,-4.3436,-4.3034,-4.2203,-4.1876,0.0,0.0,-3.9974,-3.936,-3.9267,-3.9093,-3.8771,-3.8624,-3.8416,-3.8164,-3.7954,-3.7728,-3.747,-3.8137,-3.8261,-3.797,-3.9182,-3.9605,-3.9487,-4.0139,-4.0937,-4.1849,-4.3063,-4.3878,-4.4514,-4.5674,-4.6536,-4.7326,0.0,0.0,0.0,0.0,-5.5034,0.0,0.0,0.0,-5.0269,0.0,-4.8844,-4.7965,-4.7624,-4.7371,-4.6544,-4.4784,-4.6533,-4.6843,-4.4837,-4.5933,0.0,0.0,-4.5883,-4.5863,-4.5713,0.0,0.0,0.0,0.0,0.0,0.0,0.0,0.0,0.0,-4.0954,0.0,-3.9317,-3.8733,-3.7076,-3.481,-3.4386,-3.4002,-3.3858,-3.5051,-3.5696,-3.6048,-3.6102,-3.6801,-3.772,-3.8115,-3.8814,-3.9532,-3.987,-4.0077,-4.0196,-4.0215,-4.1455,-4.2676,-4.1923,-4.3571,-4.5353,-4.454,0.0,0.0,0.0,0.0,-4.5731,0.0,0.0,0.0,0.0,0.0,0.0,0.0,0.0,0.0,0.0,0.0,0.0,0.0,0.0,0.0,0.0,-4.413,-4.3537,-4.3231,-4.2376,0.0,0.0,0.0,-3.9772,-3.766,-3.7524,-3.7082,-3.6251,-3.6411,-3.6646,-3.6892,-3.7124,-3.7337,-3.7464,-3.7751,-3.7885,-3.7939,-3.8194,-3.8752,-3.946,-3.9625,-4.0185,-4.1069,-4.2844,-4.358,-4.3849,-4.5507,-4.7256,-4.8923,-5.66,-5.6523,-5.6437,0.0,-5.4942,-5.3693,0.0,0.0,0.0,0.0,-5.1011,-5.062,-5.0342,-4.9658,-4.855,-4.6836,-4.6635,0.0,0.0,0.0,0.0,-4.6011,-4.7058,-4.7624,-4.7526,-4.7469,0.0,-4.6497,0.0,0.0,-4.4529,0.0,0.0,0.0,0.0,0.0,-4.0378,-3.9823,-3.7988,-3.549,-3.5609,-3.5604,0.0,0.0,-3.7163,-3.7666,-3.6949,-3.7361,-3.8334,-3.8739,-3.9104,-3.9477,-3.9693,-3.9892,-4.0077,-4.0177,-4.1017,-4.1894,-4.1733,-4.315,-4.4435,-4.3635,-4.4506,-4.5395,0.0,0.0,0.0,0.0,0.0,0.0,0.0,0.0,0.0,0.0,0.0,0.0,0.0,0.0,0.0,-4.4684,0.0,0.0,-4.4081,-4.437,-4.4259,-4.3337,-4.2049,0.0,0.0,0.0,0.0,-3.7483,-3.7236,-3.7017,-3.6714,-3.5697,-3.526,-3.5343,-3.4348,-3.3934,-3.4109,-3.5509,-3.5844,-3.5456,-3.7444,-3.846,-3.8727,-3.942,-4.0201,-4.1091,-4.2201,-4.3422,-4.4702,-4.5779,-4.7299,-4.8826,-5.6568,0.0,0.0,-5.6271,0.0,0.0,-5.3832,0.0,0.0,-5.2038,-5.1927,0.0,-5.1525,-5.0778,-4.9735,-4.8314,-4.7358,0.0,-4.6107,0.0,0.0,-4.7276,-4.796,-4.8267,-4.8247,-4.813,0.0,-4.6923,0.0,0.0,-4.4796,0.0,0.0,0.0,0.0,-4.2498,0.0,-4.0272,-3.8945,-3.7497,-3.7106,0.0,0.0,-3.787,-3.8241,-3.8398,-3.8438,-3.8452,-3.851,-3.8844,-3.9129,-3.9369,-3.9551,-3.9781,-3.9975,-4.0137,-4.0864,-4.1645,-4.1696,-4.296,-4.4203,-4.3753,-4.4333,-4.5026,-4.5012,-4.4793,-4.4742,0.0,0.0,0.0,0.0,0.0,0.0,0.0,0.0,0.0,0.0,0.0,0.0,0.0,-4.5401,0.0,-4.4348,-4.4687,-4.4581,-4.3548,-4.2346,0.0,0.0,0.0,0.0,-3.722,-3.7007,-3.6697,-3.625,-3.541,-3.4846,-3.4538,-3.3761,-3.3236,-3.2982,-3.4438,-3.487,-3.4589,-3.6455,-3.7495,-3.7936,-3.8811,-3.968,-4.0641,-4.2259,-4.3727,-4.5,-4.5871,-4.7307,-4.8801,-5.6491,0.0,0.0,0.0,0.0,0.0,0.0,-5.3532,0.0,-5.2417,0.0,-5.2303,-5.2086,-5.1381,-5.0504,-4.9501,0.0,-4.7716,-4.7701,-4.7478,-4.772,-4.8601,-4.8458,-4.8324,-4.8324,-4.8155,-4.7752,0.0,0.0,0.0,0.0,0.0,0.0,0.0,0.0,0.0,0.0,-4.076,-4.0149,-4.0086,-3.88,-3.8418,-3.869,-3.9258,-3.9147,-3.8898,-3.9965,-3.9585,-3.8611,-3.8879,-3.9127,-3.9368,-3.9471,-3.967,-3.9933,-4.0057,-4.0788,-4.1527,-4.1527,-4.2806,-4.4143,-4.4143,-4.435,-4.4784,-4.5611,-4.4678,-4.386,-4.4691,-4.4827,-4.4801,0.0,0.0,0.0,0.0,0.0,0.0,0.0,0.0,0.0,0.0,0.0,0.0,-4.5222,-4.5177,-4.4801,-4.393,0.0,0.0,0.0,0.0,0.0,-3.7327,-3.7005,-3.6466,-3.5642,0.0,-3.4874,-3.4071,-3.4197,-3.379,-3.3012,-3.4092,-3.4608,-3.4659,-3.5529,-3.6462,-3.744,-3.819,-3.9072,-4.0218,-4.272,-4.4124,-4.4865,-4.5841,-4.7312,-4.8795,0.0,0.0,0.0,0.0,0.0,-5.5717,-5.5501,-5.4641,-5.3954,-5.3842,-5.4201,-5.4238,-5.3593,-5.2588,-5.1537,-5.0597,-4.8851,0.0,0.0,0.0,0.0,-4.7805,-4.8218,-4.8457,-4.8457,-4.7813,-4.7353,0.0,0.0,0.0,0.0,0.0,0.0,0.0,0.0,0.0,-4.349,-4.2971,0.0,-4.1701,-4.0592,-4.0453,-4.0841,-4.0393,-4.0382,-4.061,-4.038,-3.9929,-3.9451,-3.9768,-4.0018,-4.0113,-3.9658,-3.9693,-3.9954,-4.0118,-4.0348,-4.0555,-4.0609,-4.1888,-4.3227,-4.3227,-4.4352,-4.5517,-4.568,-4.5525,-4.5421,-4.5641,-4.5165,-4.4957,-4.5716,0.0,0.0,0.0,0.0,0.0,0.0,0.0,0.0,0.0,0.0,-4.6123,0.0,-4.6042,0.0,0.0,0.0,0.0,0.0,0.0,0.0,0.0,-3.7852,0.0,0.0,0.0,-3.4256,-3.3457,-3.3477,-3.3074,-3.2331,-3.3884,-3.4628,-3.4725,-3.5545,-3.6795,-3.8278,-3.8439,-3.9439,-4.107,-4.2955,-4.3798,-4.411,-4.5691,-4.7342,-4.8806,0.0,0.0,0.0,0.0,0.0,0.0,0.0,-5.5416,0.0,-5.4188,-5.4333,-5.4368,-5.3951,-5.2976,-5.2143,-5.1567,-4.9377,-4.8146,-4.8449,-4.789,-4.7784,-4.8245,-4.8457,0.0,-4.8715,-4.783,-4.7237,-4.6897,0.0,0.0,0.0,0.0,0.0,0.0,0.0,-4.4668,0.0,0.0,0.0,-4.3197,-4.2285,-4.2035,-4.2203,-4.1982,-4.1624,-4.1307,-4.163,-4.1414,-4.0844,-3.9817,-3.9888,-4.03,-3.974,-3.9693,-3.9933,-4.0098,-4.054,-4.0977,-4.105,-4.2023,-4.3111,-4.3551,-4.4039,-4.4643,-4.5507,-4.508,-4.4525,-4.4594,-4.468,-4.5036,-4.5985,-4.6193,0.0,0.0,0.0,0.0,0.0,0.0,0.0,0.0,0.0,0.0,0.0,0.0,0.0,0.0,0.0,0.0,0.0,0.0,0.0,0.0,0.0,0.0,0.0,0.0,0.0,-3.3979,-3.3945,-3.3491,-3.2758,-3.3981,-3.4573,-3.4722,-3.601,-3.7079,-3.7947,-3.8844,-3.9971,-4.1277,-4.3027,-4.371,-4.3908,-4.5659,-4.7366,-4.8796,0.0,-5.6786,0.0,0.0,-5.6524,0.0,-5.5938,-5.5919,-5.5556,-5.453,-5.4396,-5.4369,-5.4231,-5.3198,-5.2437,-5.2284,-4.9943,-4.8646,-4.9127,-4.8468,-4.8308,-4.8959,-4.882,-4.8728,-4.8702,-4.7797,-4.7014,0.0,0.0,0.0,0.0,0.0,0.0,0.0,0.0,0.0,0.0,0.0,-4.4677,-4.465,-4.3713,-4.3279,-4.3262,-4.3152,-4.2535,-4.1843,-4.2631,-4.2739,-4.2243,-4.0184,-4.0038,-4.057,-3.9821,-3.9758,-3.9933,-4.0077,-4.0826,-4.1608,-4.1682,-4.2464,-4.344,-4.4126,-4.3997,-4.4094,-4.5426,-4.4626,-4.3613,-4.3676,-4.4286,-4.5055,-4.5788,-4.6076,0.0,0.0,0.0,0.0,0.0,0.0,0.0,0.0,0.0,0.0,-4.6284,0.0,0.0,0.0,0.0,0.0,0.0,0.0,0.0,0.0,0.0,-3.7834,-3.645,0.0,-3.543,-3.4563,-3.4871,-3.4573,-3.3821,-3.4828,-3.5324,-3.5456,-3.6851,-3.7605,-3.7956,-3.9511,-4.0527,-4.1269,-4.3012,-4.3707,-4.3908,-4.5656,-4.7244,-4.8557,0.0,0.0,0.0,0.0,0.0,0.0,-5.6075,-5.6031,-5.5904,-5.5667,-5.5519,-5.5451,-5.5356,-5.3632,-5.2501,-5.2474,-5.0522,-4.929,-4.9384,-4.9169,-4.9104,-4.9179,-4.9146,-4.881,-4.81,-4.7223,-4.6383,0.0,0.0,-4.4389,0.0,0.0,0.0,0.0,0.0,0.0,0.0,-4.5834,-4.5932,-4.6075,-4.4659,-4.4243,-4.4271,-4.2965,-4.2613,-4.272,-4.2339,-4.2697,-4.318,-4.1876,-4.1549,-4.1427,-4.0052,-3.9781,-4.0017,-4.0157,-4.0864,-4.1608,-4.1663,-4.2905,-4.4207,-4.428,-4.4884,-4.5522,-4.5727,-4.5169,-4.4568,-4.4583,-4.4734,-4.4912,-4.5017,-4.567,-4.6209,0.0,0.0,0.0,0.0,0.0,-4.6288,-4.6282,0.0,0.0,0.0,-4.6308,0.0,0.0,-4.5457,0.0,0.0,0.0,0.0,-4.0805,0.0,-3.838,-3.8161,-3.6593,-3.5334,-3.4445,-3.5958,-3.6223,-3.5437,-3.7093,-3.788,-3.7974,-3.8194,-3.8766,-3.9644,-4.0586,-4.1029,-4.1269,-4.301,-4.3697,-4.3919,-4.5655,-4.686,-4.7727,0.0,0.0,0.0,0.0,0.0,0.0,0.0,-5.6133,-5.6068,-5.5923,-5.5766,-5.5638,-5.557,-5.4301,-5.3206,-5.2612,-5.1291,-5.0172,-4.9452,-4.8933,-4.8846,-4.9257,-4.829,-4.7903,-4.8164,-4.681,-4.5948,0.0,0.0,0.0,0.0,0.0,0.0,0.0,0.0,-4.5022,-4.4914,-4.5292,-4.5477,-4.5453,-4.4971,-4.4599,-4.4306,-4.3682,-4.3373,-4.3233,-4.3027,-4.3272,-4.356,-4.2207,-4.1763,-4.166,-4.0791,-4.0284,-4.0112,-4.0807,-4.1609,-4.2354,-4.2501,-4.3398,-4.4299,-4.4347,-4.4677,-4.4993,-4.5056,-4.4873,-4.456,-4.4081,-4.448,-4.5064,-4.5577,-4.5975,-4.6189,0.0,0.0,0.0,0.0,0.0,0.0,-4.6308,0.0,-4.6295,0.0,0.0,0.0,0.0,0.0,0.0,0.0,0.0,0.0,-4.1039,0.0,-3.8903,-3.8355,-3.7527,-3.693,-3.6575,-3.7203,-3.7332,-3.7063,-3.779,-3.8485,-3.9101,-3.9179,-3.9747,-4.0652,-4.1514,-4.1886,-4.2051,-4.38,-4.4484,-4.4636,-4.585,-4.6801,-4.7624,-5.7262,0.0,-5.6503,0.0,-5.6278,-5.5766,-5.5506,-5.5671,-5.5761,-5.5642,-5.5711,-5.5747,-5.564,-5.4499,-5.3454,-5.2717,-5.1551,-5.0364,-4.9265,-4.8662,-4.8434,-4.8652,-4.7545,0.0,-4.7608,-4.6422,-4.5688,-4.548,-4.4915,0.0,0.0,0.0,0.0,0.0,-4.4844,-4.4875,-4.4563,-4.5129,-4.5251,-4.5091,-4.4989,-4.4665,-4.4269,-4.4014,-4.378,-4.3556,-4.3603,-4.3749,-4.3738,-4.2613,-4.2062,-4.1769,-4.1,-4.0404,-4.0191,-4.0922,-4.1781,-4.2524,-4.2703,-4.3522,-4.4289,-4.4133,-4.4312,-4.4476,-4.4279,-4.4291,-4.4253,-4.3977,-4.4448,-4.5168,-4.6047,-4.6203,-4.622,-4.6221,0.0,0.0,0.0,-4.6303,0.0,0.0,-4.6297,-4.6296,-4.6265,-4.6279,0.0,0.0,0.0,0.0,0.0,0.0,0.0,0.0,0.0,0.0,0.0,-3.8905,-3.8676,-3.864,-3.8613,-3.8623,-3.8685,-3.8824,-3.9262,-3.9956,-4.0096,-4.0643,-4.1504,-4.2139,-4.2555,-4.2929,-4.4423,-4.4985,-4.5089,-4.5958,-4.6635,-4.7275,-5.6437,-5.6407,-5.6106,-5.5186,-5.5015,-5.4725,-5.3864,-5.4391,-5.487,-5.4733,-5.547,-5.5922,-5.5705,-5.4031,-5.2877,-5.2785,-5.1033,-4.9557,-4.8761,-4.8512,-4.807,0.0,0.0,-4.6844,-4.6032,-4.6013,-4.5561,-4.4712,0.0,0.0,-4.4597,0.0,-4.5376,-4.5217,-4.5756,-4.5897,-4.5772,-4.5719,-4.566,-4.5542,-4.4794,-4.4483,-4.441,-4.3611,-4.3446,-4.364,-4.3818,-4.3961,-4.3937,-4.3372,-4.2682,-4.1845,-4.0394,-3.9994,-4.0118,-4.0252,-4.0991,-4.1728,-4.1882,-4.3142,-4.423,-4.349,-4.3962,-4.4395,-4.359,-4.347,-4.3763,-4.469,-4.4896,-4.517,-4.6047,-4.6195,-4.6221,-4.629,0.0,0.0,0.0,0.0,0.0,-4.6297,-4.6296,-4.627,-4.6209,-4.6203,0.0,0.0,0.0,0.0,0.0,0.0,0.0,-4.3499,-4.2558,0.0,-4.1764,-4.0773,-4.0227,-4.0158,-4.0177,-4.0196,-4.0286,-4.0564,-4.0713,-4.0798,-4.0921,-4.1487,-4.2292,-4.2368,-4.291,-4.3764,-4.4653,-4.4967,-4.5007,-4.5884,-4.6203,-4.6438,-5.5599,-5.6018,-5.63,-5.5956,-5.5384,-5.4912,-5.4626,-5.4304,-5.407,-5.4017,-5.4192,-5.4252,-5.4148,-5.4012,-5.3651,0.0,-5.1763,-5.0399,0.0,-4.8175,-4.7707,-4.7356,-4.624,-4.5786,-4.6133,-4.5462,-4.5002,-4.4789,0.0,0.0,0.0,-4.4682,-4.4621,-4.4449,-4.4569,-4.4573,-4.4494,-4.4471,-4.4439,-4.4358,-4.4122,-4.4014,-4.3981,-4.3726,-4.373,-4.3886,-4.3952,-4.4079,-4.4031,-4.2911,-4.2359,-4.192,-4.0547,-4.0118,-4.0406,-4.1703,-4.2347,-4.2678,-4.2753,-4.3641,-4.4206,-4.2833,-4.3136,-4.371,-4.3447,-4.3909,-4.447,-4.4837,-4.4897,-4.5163,-4.6047,-4.5752,-4.5577,-4.6195,-4.63,0.0,0.0,0.0,-4.6287,-4.624,-4.6234,-4.6209,-4.613,-4.6123,0.0,0.0,0.0,0.0,0.0,0.0,0.0,0.0,-4.2574,0.0,-4.1879,-4.0819,-4.0593,-4.115,-4.0558,-4.0666,-4.1386,-4.1564,-4.1695,-4.1781,-4.2474,-4.2598,-4.2392,-4.3644,-4.4335,-4.4672,-4.5504,-4.582,-4.5806,-4.6052,-4.6135,-4.6383,-5.4675,-5.5337,-5.5793,-5.5388,-5.4879,-5.4432,-5.4116,-5.3596,-5.3249,-5.321,-5.3402,-5.3507,-5.3409,-5.3494,0.0,-5.2548,-5.1629,-5.0307,-4.8446,-4.7857,-4.7238,-4.6531,-4.5464,-4.5136,-4.5666,-4.5079,0.0,-4.4796,-4.4764,-4.4693,-4.4605,-4.4542,-4.443,-4.428,-4.4213,-4.4143,-4.4072,-4.4067,-4.3961,-4.3883,-4.3883,-4.3684,-4.3463,-4.3772,-4.3584,-4.3245,-4.3588,-4.3623,-4.3348,-4.2209,-4.1812,-4.1623,-4.0537,-4.0215,-4.0539,-4.2007,-4.2533,-4.263,-4.2714,-4.3407,-4.3718,-4.2067,-4.2302,-4.3042,-4.3384,-4.4178,-4.4939,-4.5319,-4.5131,-4.5059,-4.5637,-4.5065,-4.4793,-4.5675,-4.5802,-4.593,-4.6249,0.0,-4.6279,0.0,0.0,0.0,0.0,-4.6099,-4.6099,0.0,0.0,0.0,0.0,0.0,0.0,-4.4078,-4.3345,0.0,-4.2356,-4.1632,-4.1549,-4.2066,-4.1583,-4.172,-4.2439,-4.2531,-4.2624,-4.2713,-4.3327,-4.3487,-4.3372,-4.4528,-4.5172,-4.5496,-4.5988,-4.6189,-4.6154,-4.6111,-4.6279,-4.6747,-5.3711,-5.4401,0.0,0.0,-5.3713,0.0,-5.2628,-5.2453,-5.2403,-5.2309,-5.2964,-5.3344,-5.3157,-5.241,-5.1818,-5.1579,0.0,0.0,0.0,-4.7558,-4.6725,-4.5067,-4.4943,-4.487,-4.4796,-4.4846,-4.4846,-4.4796,-4.4796,-4.4796,-4.4815,-4.4738,-4.4685,-4.4605,-4.4524,-4.4468,-4.4411,-4.4288,-4.4114,-4.3943,-4.3887,-4.3404,-4.2828,-4.3571,-4.3036,-4.2006,-4.2835,-4.2725,-4.2113,-4.143,-4.1206,-4.11,-4.0425,-4.0252,-4.0515,-4.1426,-4.1739,-4.1832,-4.1963,-4.2596,-4.2826,-4.1304,-4.1607,-4.2519,-4.3405,-4.4311,-4.5222,-4.6027,-4.5455,-4.4858,-4.4974,-4.4239,-4.3913,-4.4856,-4.4997,-4.5293,-4.6166,0.0,-4.6273,0.0,0.0,0.0,0.0,-4.6099,-4.6099,0.0,0.0,0.0,0.0,0.0,-4.578,-4.4837,-4.4602,-4.4065,-4.3131,-4.2864,-4.2752,-4.2748,-4.2941,-4.3125,-4.3312,-4.3443,-4.353,-4.3619,-4.379,-4.4298,-4.5001,-4.5117,-4.5607,-4.6279,-4.6216,-4.6154,-4.6113,-4.6163,-4.6658,-4.7423,0.0,0.0,-5.4027,-5.3821,-5.3238,-5.2755,-5.2602,-5.1979,-5.1511,-5.1502,-5.1625,-5.1402,-5.0661,-5.0301,-4.9812,-4.9048,-4.9255,-4.8999,-4.7922,-4.714,-4.623,-4.5118,-4.5014,-4.4919,-4.4796,-4.4815,-4.4815,-4.4796,-4.4846,-4.4846,-4.4796,-4.4783,-4.4707,-4.4605,-4.4648,-4.4595,-4.4449,-4.3783,-4.3474,-4.3334,-4.2623,-4.224,-4.2118,-4.2277,-4.2184,-4.2002,-4.2266,-4.2332,-4.2158,-4.1509,-4.1301,-4.1223,-4.0501,-4.0362,-4.0639,-4.1514,-4.1825,-4.1914,-4.2041,-4.2226,-4.2144,-4.116,-4.2063,-4.3257,-4.3549,-4.4779,-4.5949,-4.6157,-4.5019,-4.4197,-4.486,-4.3732,-4.321,-4.4746,-4.4995,-4.5297,-4.6111,-4.6221,0.0,0.0,-4.6174,-4.6174,-4.6099,-4.6107,-4.6118,0.0,0.0,0.0,0.0,-4.6238,-4.578,-4.4822,-4.402,-4.3479,-4.3183,-4.1832,-4.1157,-4.1228,-4.1969,-4.2729,-4.3471,-4.4152,-4.4509,-4.463,-4.5991,-4.6342,-4.6013,-4.6651,-4.7014,-4.7123,-4.6395,-4.6102,-4.6162,-4.6793,-4.7129,-4.7505,-5.1279,-5.2368,-5.3213,-5.3213,-5.2854,-5.2553,-5.2582,-5.1823,-5.1094,-5.0705,-5.0581,-5.0151,-4.9209,-4.9006,-4.8714,-4.8144,-4.8432,-4.8255,-4.735,-4.6762,-4.6062,-4.5141,-4.501,-4.4914,-4.4796,-4.4821,-4.4865,-4.4865,-4.487,-4.487,-4.4846,-4.4852,-4.4802,-4.4667,-4.4348,-4.4153,-4.3992,-4.3156,-4.2746,-4.2592,-4.2106,-4.1686,-4.1432,-4.178,-4.1522,-4.1079,-4.151,-4.1533,-4.1269,-4.0921,-4.0864,-4.0883,-4.0515,-4.0449,-4.0595,-4.1097,-4.1562,-4.1928,-4.2066,-4.2102,-4.1914,-4.114,-4.1963,-4.2952,-4.2999,-4.4052,-4.5001,-4.5013,-4.4309,-4.3719,-4.3806,-4.3046,-4.285,-4.4192,-4.4061,-4.4247,-4.5488,-4.564,0.0,-4.5553,-4.5585,-4.5585,-4.556,-4.5553,-4.5562,-4.5594,-4.5973,0.0,-4.6253,-4.6189,-4.5748,-4.4869,-4.4287,-4.3761,-4.3305,-4.2344,-4.2098,-4.2532,-4.3091,-4.3801,-4.4701,-4.5209,-4.5669,-4.6136,-4.709,-4.7476,-4.744,-4.7478,-4.7489,-4.741,-4.65,-4.6372,-4.6744,-4.7153,-4.7788,-4.856,-4.9926,-5.1133,-5.2144,-5.2281,-5.2358,-5.2396,-5.2396,-5.1657,-5.083,-5.0082,-4.9757,-4.9253,-4.8309,-4.8141,-4.8,-4.7758,-4.7645,-4.7316,-4.6663,-4.6358,-4.5864,-4.5122,-4.4967,-4.487,-4.4796,-4.4865,-4.4895,-4.4938,-4.4938,-4.4919,-4.4919,-4.4806,-4.47,-4.4607,-4.3799,-4.3377,-4.3258,-4.2397,-4.1983,-4.1882,-4.1706,-4.1255,-4.0735,-4.1405,-4.089,-3.994,-4.0726,-4.0656,-4.0234,-4.0215,-4.0288,-4.0432,-4.0485,-4.0502,-4.0515,-4.0579,-4.1109,-4.173,-4.1865,-4.1912,-4.177,-4.1146,-4.1657,-4.2288,-4.2305,-4.2974,-4.361,-4.361,-4.3568,-4.3314,-4.2701,-4.2493,-4.2694,-4.3554,-4.3196,-4.3267,-4.4607,0.0,-4.4977,-4.4913,-4.4902,-4.4947,-4.507,-4.509,-4.5102,-4.5104,-4.5777,-4.6206,-4.6189,-4.6154,-4.5799,-4.5114,-4.4899,-4.4335,-4.3421,-4.3421,-4.3791,-4.455,-4.4724,-4.5207,-4.5948,-4.6128,-4.6692,-4.7519,-4.7636,-4.8123,-4.8736,-4.799,-4.7626,-4.744,-4.669,-4.6819,-4.7431,-4.7612,-4.8588,-4.9814,-4.9624,-5.0111,-5.0549,-5.1356,-5.1481,-5.151,-5.1507,-5.0761,-5.0121,-4.9946,-4.9217,-4.8341,-4.74,-4.7249,-4.6899,-4.6136,-4.5916,-4.6052,-4.6646,-4.587,-4.5281,-4.5103,-4.4967,-4.487,-4.4796,-4.4796,-4.487,-4.4967,-4.4967,-4.5014,-4.5061,-4.4319,-4.3927,-4.3829,-4.3046,-4.2602,-4.2427,-4.1614,-4.1279,-4.1264,-4.041,-4.0033,-3.9966,-4.0028,-4.0008,-3.9973,-4.0138,-4.0229,-4.027,-4.0264,-4.0372,-4.0485,-4.0502,-4.0495,-4.0504,-4.0593,-4.0703,-4.0828,-4.097,-4.1039,-4.1072,-4.1019,-4.1657,-4.2288,-4.2305,-4.3025,-4.3685,-4.3685,-4.3119,-4.2783,-4.3388,-4.2908,-4.2689,-4.3566,-4.4201,-4.4434,-4.3972,0.0,-4.4975,-4.4904,-4.4894,-4.5194,-4.5937,-4.5994,-4.5991,-4.5994,-4.612,-4.6197,-4.6209,-4.6189,-4.6127,-4.599,-4.5162,-4.4325,-4.3491,-4.3481,-4.3587,-4.3783,-4.4523,-4.4976,-4.5209,-4.5936,-4.6731,-4.7547,-4.8291,-4.866,-4.8791,-4.8649,-4.8205,-4.7561,-4.7372,-4.7359,-4.765,-4.9002,-4.9653,-4.9986,-4.833,-4.8914,-4.9391,-4.9826,-4.9904,-4.9893,-4.9901,-4.9536,-4.9061,-4.8572,-4.8095,-4.7442,-4.6452,-4.6282,-4.6061,-4.5624,-4.5457,-4.5573,-4.5974,-4.5507,-4.517,-4.5103,-4.501,-4.4919,-4.4865,-4.4895,-4.4919,-4.4991,-4.5033,-4.4832,-4.4379,-4.3996,-4.3532,-4.3035,-4.2155,-4.1772,-4.1651,-4.0795,-4.0454,-4.0394,-3.9951,-3.9781,-3.9848,-3.9823,-3.9949,-4.0093,-4.0118,-4.0215,-4.0366,-4.0408,-4.0457,-4.0495,-4.0495,-4.0508,-4.0554,-4.0583,-4.0654,-4.0732,-4.0792,-4.0856,-4.0917,-4.0982,-4.1291,-4.1599,-4.1597,-4.1961,-4.2295,-4.23,-4.2342,-4.2513,-4.2923,-4.3056,-4.3398,-4.4267,-4.4333,0.0,0.0,-4.4746,-4.4998,-4.4961,-4.4957,-4.5106,-4.5453,-4.5526,-4.5554,-4.5542,-4.5987,-4.6236,-4.6201,-4.6196,-4.6189,-4.6197,-4.5716,-4.5288,-4.4961,-4.4951,-4.4986,-4.5052,-4.546,-4.5679,-4.5703,-4.6122,-4.6755,-4.7575,-4.7971,-4.842,-4.8818,-4.8345,-4.8211,-4.8245,-4.7709,-4.8064,-4.8995,-4.9691,-5.0235,-5.0646,-4.7268,-4.7884,-4.8467,-4.8669,-4.8688,-4.868,-4.868,-4.8438,-4.8036,-4.7338,-4.7023,-4.6573,-4.5777,-4.5481,-4.5297,-4.5244,-4.4978,-4.4902,-4.5073,-4.497,-4.496,-4.5084,-4.5014,-4.4943,-4.4895,-4.4943,-4.4896,-4.4729,-4.4775,-4.4383,-4.3566,-4.333,-4.2889,-4.2208,-4.1323,-4.09,-4.0846,-4.0195,-3.9889,-3.9848,-3.9867,-3.9889,-3.9933,-3.9954,-4.0074,-4.0214,-4.0214,-4.0289,-4.0422,-4.0463,-4.0489,-4.0504,-4.0523,-4.0554,-4.0603,-4.0617,-4.07,-4.08,-4.0826,-4.0867,-4.0917,-4.0974,-4.101,-4.0999,-4.0999,-4.1033,-4.1075,-4.1091,-4.1636,-4.2158,-4.2363,-4.3105,-4.3917,-4.4599,0.0,0.0,0.0,-4.4879,-4.5001,-4.4998,-4.4988,-4.5039,-4.5191,-4.5245,-4.5284,-4.5273,-4.5894,-4.624,-4.6197,-4.6192,-4.622,-4.6209,-4.6166,-4.6154,-4.6192,-4.6216,-4.6242,-4.6303,-4.6309,-4.6306,-4.6307,-4.6293,-4.6772,-4.7575,-4.758,-4.7978,-4.8543,-4.8085,-4.8183,-4.8553,-4.8037,-4.8633,-4.9794,-4.9742,-5.0114,-5.068,-4.7129,-4.7406,-4.7748,-4.8564,-4.8652,-4.8613,-4.8602,-4.7866,-4.7262,-4.7138,-4.6404,-4.5843,-4.5709,-4.4961,-4.4465,-4.4399,-4.3596,-4.3407,-4.4154,-4.4072,-4.4328,-4.5065,-4.4986,-4.4914,-4.4895,-4.4895,-4.4588,-4.3885,-4.3885,-4.355,-4.285,-4.1989,-4.1528,-4.143,-4.0511,-4.0049,-4.0006,-4.0006,-3.9989,-3.9996,-4.0034,-4.0095,-4.0077,-4.0157,-4.0215,-4.0289,-4.0233,-4.0344,-4.0485,-4.0427,-4.0457,-4.0504,-4.0573,-4.0598,-4.0607,-4.0668,-4.0739,-4.0812,-4.0886,-4.0897,-4.0917,-4.0974,-4.101,-4.0999,-4.0999,-4.1,-4.1019,-4.1086,-4.1139,-4.1433,-4.2255,-4.3118,-4.3727,-4.3789,0.0,0.0,-4.4003,-4.449,-4.5004,-4.5002,-4.4952,-4.5214,-4.6034,-4.6103,-4.6108,-4.6105,-4.6163,-4.6202,-4.6202,-4.6189,-4.6239,-4.6284,-4.6231,-4.6203,-4.6195,-4.6268,-4.6312,-4.63,-4.6303,-4.6308,-4.6308,-4.6295,-4.6742,-4.7514,-4.7577,-4.7605,-4.7666,-4.8474,-4.8376,-4.7776,-4.8515,-4.8833,-4.8896,-4.8899,-4.8937,-4.9081,-4.6358,-4.6496,-4.6638,-4.6978,-4.6976,-4.6934,-4.6923,-4.6551,-4.6254,-4.6244,-4.5861,-4.5601,-4.5586,-4.4765,-4.4192,-4.4173,-4.3369,-4.2967,-4.3253,-4.3212,-4.3738,-4.5026,-4.4516,-4.4204,-4.4204,-4.3696,-4.3259,-4.3003,-4.3025,-4.2669,-4.1911,-4.1506,-4.1066,-4.0513,-4.0127,-3.9933,-3.9911,-3.9973,-3.9994,-3.9996,-4.0076,-4.0118,-4.0158,-4.0177,-4.0272,-4.0363,-4.0289,-4.0358,-4.0511,-4.0457,-4.0504,-4.0564,-4.0579,-4.0626,-4.0681,-4.0738,-4.0436,-4.0188,-4.081,-4.0927,-4.0917,-4.0974,-4.0999,-4.0996,-4.0999,-4.1026,-4.107,-4.1091,-4.1109,-4.1537,-4.2941,-4.3474,-4.4042,-4.5137,0.0,-4.5887,-4.4684,-4.5251,-4.5607,-4.5063,-4.5425,-4.5847,-4.6179,-4.6195,-4.6204,-4.6207,-4.6191,-4.6211,-4.6268,-4.6269,-4.6269,-4.6308,-4.6289,-4.6265,-4.6251,-4.6293,-4.6309,-4.63,-4.6306,-4.6308,-4.6306,-4.6307,-4.6461,-4.6752,-4.6784,-4.6788,-4.6772,-4.7146,-4.742,-4.7635,-4.7963,-4.8379,-4.8806,-4.879,-4.8796,-4.8847,-4.586,-4.5932,-4.5968,-4.5937,-4.5899,-4.5854,-4.5841,-4.5761,-4.5684,-4.5668,-4.5353,-4.5109,-4.5111,-4.4057,-4.335,-4.3312,-4.2508,-4.2126,-4.2374,-4.2601,-4.3207,-4.4265,-4.3703,-4.3396,-4.3396,-4.2807,-4.237,-4.2123,-4.217,-4.1772,-4.0992,-4.091,-4.0566,-3.9996,-3.9954,-3.9933,-3.9933,-4.0034,-4.0055,-4.0077,-4.0137,-4.0177,-4.0215,-4.0253,-4.0137,-3.9978,-3.9959,-3.9852,-3.9758,-4.0027,-4.0164,-4.026,-4.0538,-4.0501,-4.0358,-4.0408,-3.9849,-3.9374,-4.0002,-4.0166,-4.0282,-4.0863,-4.0996,-4.1011,-4.1039,-4.1064,-4.11,-4.1096,-4.109,-4.1459,-4.2651,-4.332,-4.4001,-4.4921,-4.5525,-4.5581,-4.4704,-4.5332,-4.5661,-4.5078,-4.5721,-4.6228,-4.623,-4.6229,-4.6225,-4.6204,-4.6192,-4.6228,-4.6276,-4.6293,-4.6295,-4.6262,-4.6287,-4.629,-4.6308,-4.6308,-4.6152,-4.5889,-4.5898,-4.5742,-4.5487,-4.5778,-4.5898,-4.5913,-4.618,-4.6303,-4.6328,-4.6596,-4.7051,-4.7604,-4.7575,-4.7916,-4.8362,-4.8084,-4.8001,-4.8045,-4.578,-4.5827,-4.586,-4.5794,-4.5791,-4.5765,-4.5696,-4.5687,-4.5657,-4.5603,-4.4836,-4.4299,-4.4285,-4.2729,-4.1658,-4.1608,-4.0805,-4.0633,-4.1437,-4.2297,-4.2714,-4.2591,-4.2506,-4.2484,-4.2484,-4.2484,-4.2085,-4.1288,-4.1292,-4.0876,-4.0096,-4.0036,-3.9996,-3.9996,-3.9996,-3.9996,-4.0015,-4.0131,-4.0193,-4.0196,-4.0272,-4.031,-4.031,-4.0363,-3.9859,-3.9112,-3.918,-3.8674,-3.8123,-3.8988,-3.9355,-3.9527,-4.0398,-4.0181,-3.9585,-3.9597,-3.9024,-3.8382,-3.8408,-3.8447,-3.8884,-4.0558,-4.0986,-4.1,-4.107,-4.1095,-4.1081,-4.1105,-4.11,-4.1097,-4.1112,-4.2511,-4.3414,-4.255,-4.3862,-4.4698,-4.3805,-4.4442,-4.4997,-4.4997,-4.5759,-4.6284,-4.6295,-4.6292,-4.627,-4.6209,-4.6189,-4.6189,-4.6189,-4.6264,-4.6273,-4.6206,-4.6255,-4.6303,-4.63,-4.6295,-4.5852,-4.4995,-4.4995,-4.4545,-4.3725,-4.4601,-4.4993,-4.5056,-4.5917,-4.6289,-4.6367,-4.7232,-4.7596,-4.7577,-4.7523,-4.7499,-4.7384,-4.6518,-4.6236,-4.6401,-4.4105,-4.4486,-4.4911,-4.4897,-4.4847,-4.48,-4.48,-4.4234,-4.3818,-4.3835,-4.3499,-4.3272,-4.3309,-4.2258,-4.1552,-4.1533,-4.0768,-4.0405,-4.0635,-4.0903,-4.1036,-4.0978,-4.145,-4.1732,-4.1732,-4.1038,-4.0558,-4.0331,-4.0333,-4.0201,-3.9954,-3.9975,-3.9996,-3.9996,-4.0057,-4.0077,-4.0077,-4.0156,-4.0196,-4.0215,-4.0272,-4.0366,-4.0377,-3.9729,-3.9363,-3.9103,-3.8508,-3.8151,-3.805,-3.8348,-3.8498,-3.86,-3.8849,-3.8828,-3.8685,-3.8685,-3.811,-3.7627,-3.8237,-3.8001,-3.7851,-3.8981,-3.926,-3.9408,-4.0033,-4.0199,-4.0359,-4.0968,-4.1094,-4.1285,-4.1894,-4.2433,-4.2907,-4.3261,-4.3752,-4.3788,-4.2907,-4.3534,-4.4084,-4.4084,-4.4859,-4.5633,-4.6238,-4.6255,-4.6215,-4.6209,-4.6209,-4.6209,-4.6209,-4.622,-4.6226,-4.6206,-4.6231,-4.6255,-4.6308,-4.6303,-4.586,-4.5001,-4.5004,-4.4538,-4.3702,-4.3961,-4.4411,-4.5016,-4.5272,-4.5718,-4.6254,-4.6518,-4.6616,-4.663,-4.6596,-4.6591,-4.656,-4.6298,-4.6211,-4.6275,-4.3331,-4.3582,-4.3952,-4.3936,-4.392,-4.3904,-4.3904,-4.3412,-4.3052,-4.3085,-4.2673,-4.239,-4.2409,-4.1589,-4.1017,-4.1036,-4.0578,-4.031,-4.031,-4.031,-4.031,-4.031,-4.0692,-4.0938,-4.0938,-4.0323,-4.0015,-3.9994,-4.0015,-4.0015,-3.9994,-4.0036,-4.0036,-4.0057,-4.0118,-4.0138,-4.0157,-4.0234,-4.0272,-4.0251,-3.9945,-3.9863,-3.9854,-3.8977,-3.8457,-3.8159,-3.7651,-3.7291,-3.7109,-3.7501,-3.7904,-3.8233,-3.8236,-3.8045,-3.783,-3.783,-3.7269,-3.6742,-3.7267,-3.706,-3.6805,-3.7336,-3.799,-3.8644,-3.9169,-3.9544,-3.9962,-4.0519,-4.0887,-4.1268,-4.1794,-4.2175,-4.2458,-4.263,-4.2962,-4.2884,-4.2009,-4.265,-4.3193,-4.3189,-4.3962,-4.4675,-4.5177,-4.5513,-4.5832,-4.6177,-4.6196,-4.6196,-4.6196,-4.6203,-4.6209,-4.6209,-4.6195,-4.622,-4.625,-4.6264,-4.5843,-4.4992,-4.466,-4.4036,-4.3186,-4.3193,-4.3642,-4.4468,-4.4841,-4.5454,-4.6197,-4.6209,-4.6177,-4.617,-4.6157,-4.617,-4.6157,-4.6196,-4.6203,-4.6215,-4.3038,-4.2922,-4.298,-4.297,-4.2989,-4.2989,-4.2989,-4.2931,-4.2874,-4.2874,-4.2112,-4.1579,-4.1566,-4.0803,-4.0308,-4.031,-4.031,-4.031,-4.031,-4.031,-4.031,-4.031,-4.0234,-4.0196,-4.0196,-4.0196,-4.0157,-4.0117,-4.0157,-4.0157,-4.0077,-4.0096,-4.0117,-4.0098,-4.0177,-4.0196,-4.0234,-4.0344,-4.036,-4.0206,-3.9438,-3.9054,-3.8898,-3.8089,-3.7352,-3.6714,-3.6689,-3.6222,-3.5719,-3.6528,-3.737,-3.8073,-3.8073,-3.7559,-3.6969,-3.6977,-3.6482,-3.5905,-3.5905,-3.5897,-3.5894,-3.5904,-3.7099,-3.8298,-3.8378,-3.9006,-3.9637,-3.9854,-4.0477,-4.1009,-4.1082,-4.1755,-4.2028,-4.1225,-4.1771,-4.2006,-4.1205,-4.1784,-4.2303,-4.2381,-4.3095,-4.3592,-4.3596,-4.4312,-4.5144,-4.602,-4.6079,-4.6118,-4.6196,-4.619,-4.619,-4.6196,-4.6112,-4.6086,-4.6086,-4.6006,-4.5631,-4.4988,-4.4118,-4.3236,-4.2401,-4.2383,-4.2836,-4.3643,-4.4598,-4.5448,-4.6196,-4.6196,-4.6162,-4.6107,-4.6107,-4.6091,-4.6113,-4.6177,-4.6201,-4.6203,-4.1209,-4.1572,-4.2014,-4.2085,-4.2085,-4.2085,-4.2085,-4.1495,-4.1056,-4.1056,-4.0797,-4.0611,-4.0593,-4.0424,-4.0291,-4.031,-4.031,-4.031,-4.031,-4.031,-4.031,-4.031,-4.0234,-4.0215,-4.0291,-4.0176,-4.0098,-4.0117,-4.0057,-4.0036,-4.0017,-4.0077,-4.0117,-4.0117,-4.0215,-4.0291,-4.0291,-4.031,-3.9964,-3.9367,-3.9176,-3.8712,-3.8066,-3.7275,-3.6882,-3.6689,-3.6087,-3.5758,-3.5639,-3.5875,-3.6104,-3.627,-3.627,-3.6172,-3.6079,-3.6075,-3.6001,-3.5892,-3.5905,-3.5908,-3.5904,-3.5909,-3.6231,-3.6727,-3.7402,-3.7705,-3.8222,-3.9621,-4.0037,-4.0351,-4.0976,-4.126,-4.1322,-4.1127,-4.1264,-4.1319,-4.1136,-4.125,-4.1636,-4.231,-4.2573,-4.2914,-4.3538,-4.3773,-4.4234,-4.5124,-4.5168,-4.5472,-4.6154,-4.6146,-4.6119,-4.6111,-4.5511,-4.5176,-4.517,-4.4507,-4.4451,-4.5,-4.4109,-4.3246,-4.2407,-4.2354,-4.2799,-4.3642,-4.453,-4.5379,-4.6111,-4.6111,-4.6113,-4.6095,-4.6093,-4.6113,-4.6095,-4.6113,-4.6146,-4.6203,-4.0605,-4.0811,-4.1152,-4.1168,-4.1184,-4.1181,-4.1168,-4.0787,-4.0502,-4.0449,-4.0362,-4.0307,-4.0307,-3.9928,-3.9508,-3.9107,-3.9069,-3.9069,-3.9069,-3.9069,-3.9069,-3.9069,-3.9031,-3.9031,-3.9069,-3.8995,-3.9356,-4.0157,-4.0157,-3.9908,-3.9489,-3.9528,-3.9338,-3.8956,-3.9069,-3.9123,-3.9123,-3.9141,-3.8908,-3.8501,-3.8098,-3.769,-3.7237,-3.6426,-3.6142,-3.6119,-3.5733,-3.5628,-3.5643,-3.5684,-3.5707,-3.5708,-3.5708,-3.5745,-3.5795,-3.5803,-3.5852,-3.5898,-3.5905,-3.5908,-3.5909,-3.5909,-3.5942,-3.6111,-3.6586,-3.6996,-3.7686,-3.9008,-3.9609,-4.0151,-4.0955,-4.1103,-4.1108,-4.1108,-4.1104,-4.1101,-4.1094,-4.1105,-4.1271,-4.173,-4.1777,-4.2097,-4.2896,-4.2987,-4.3351,-4.4208,-4.4272,-4.4666,-4.5523,-4.5527,-4.5665,-4.6093,-4.5293,-4.4853,-4.4842,-4.402,-4.3844,-4.4323,-4.3869,-4.3426,-4.3027,-4.2955,-4.3376,-4.4203,-4.4654,-4.5306,-4.6037,-4.6047,-4.6056,-4.6046,-4.6056,-4.6056,-4.6065,-4.6085,-4.6138,-4.6203,-4.0532,-4.0449,-4.0485,-4.0502,-4.0495,-4.0492,-4.0466,-4.0485,-4.0449,-4.0379,-4.021,-4.0096,-4.0079,-3.9297,-3.8495,-3.775,-3.7693,-3.7693,-3.7693,-3.7693,-3.7693,-3.7693,-3.7712,-3.7712,-3.7693,-3.7696,-3.8384,-3.9776,-3.9814,-3.9452,-3.8689,-3.8746,-3.8382,-3.7695,-3.7766,-3.7783,-3.7783,-3.7833,-3.7792,-3.76,-3.6938,-3.6603,-3.6411,-3.5743,-3.5509,-3.5528,-3.5572,-3.5639,-3.5695,-3.5695,-3.5707,-3.5708,-3.5708,-3.5754,-3.5803,-3.5811,-3.5859,-3.5905,-3.5891,-3.5914,-3.5914,-3.5914,-3.597,-3.6001,-3.6001,-3.6563,-3.7363,-3.8394,-3.918,-3.9964,-4.0928,-4.1097,-4.1108,-4.1108,-4.1097,-4.1094,-4.1109,-4.1091,-4.1095,-4.1089,-4.1097,-4.1364,-4.2026,-4.2085,-4.2448,-4.3305,-4.3389,-4.3744,-4.462,-4.4731,-4.5122,-4.5851,-4.5025,-4.4578,-4.4567,-4.3615,-4.315,-4.3156,-4.3448,-4.3623,-4.3685,-4.3773,-4.4164,-4.4809,-4.4958,-4.5376,-4.5986,-4.6003,-4.5991,-4.5991,-4.5991,-4.5991,-4.6003,-4.6085,-4.6149,-4.6176,-4.0417,-4.0415,-4.0432,-4.0502,-4.0495,-4.0457,-4.0342,-4.0379,-4.0362,-4.0233,-3.9659,-3.9237,-3.9182,-3.84,-3.7827,-3.7712,-3.7693,-3.7693,-3.7693,-3.7693,-3.7693,-3.7693,-3.7715,-3.7697,-3.7693,-3.7697,-3.7811,-3.8056,-3.7985,-3.7928,-3.787,-3.787,-3.7812,-3.7698,-3.7714,-3.771,-3.771,-3.771,-3.7328,-3.6678,-3.6642,-3.6209,-3.5566,-3.5515,-3.554,-3.5589,-3.5601,-3.5635,-3.5697,-3.5697,-3.5737,-3.5794,-3.5794,-3.5793,-3.5807,-3.5864,-3.5878,-3.5892,-3.5894,-3.5934,-3.5986,-3.5994,-3.5985,-3.5991,-3.5991,-3.6088,-3.6635,-3.8258,-3.8689,-3.9254,-4.0804,-4.1091,-4.1104,-4.1094,-4.1094,-4.1105,-4.1106,-4.11,-4.1089,-4.1097,-4.1091,-4.1149,-4.1247,-4.1266,-4.1591,-4.2415,-4.2471,-4.2825,-4.3655,-4.4345,-4.4801,-4.4977,-4.4062,-4.3626,-4.3685,-4.2062,-4.1299,-4.1364,-4.2883,-4.3598,-4.3635,-4.4316,-4.4692,-4.4848,-4.5541,-4.5889,-4.6003,-4.6003,-4.596,-4.5917,-4.598,-4.5991,-4.6003,-4.6085,-4.6111,-4.6115,-4.0398,-4.0432,-4.0449,-4.0449,-4.0482,-4.031,-3.9712,-3.9655,-3.9446,-3.8877,-3.8513,-3.8303,-3.8285,-3.7504,-3.6799,-3.6341,-3.6303,-3.6283,-3.6298,-3.6298,-3.6298,-3.6298,-3.6301,-3.6283,-3.6298,-3.6304,-3.6304,-3.6298,-3.7219,-3.7412,-3.6973,-3.701,-3.6532,-3.5634,-3.563,-3.5362,-3.4942,-3.542,-3.5168,-3.4477,-3.5013,-3.4731,-3.4049,-3.4571,-3.4827,-3.4952,-3.5461,-3.5667,-3.5688,-3.5708,-3.5737,-3.5803,-3.5803,-3.5801,-3.5718,-3.53,-3.5172,-3.5073,-3.4633,-3.4885,-3.5272,-3.5275,-3.5633,-3.5991,-3.5991,-3.6003,-3.6363,-3.7613,-3.7871,-3.8251,-3.9471,-3.9702,-3.9855,-4.0294,-4.0364,-4.053,-4.1022,-4.1109,-4.1097,-4.1059,-4.1039,-4.1032,-4.1038,-4.1038,-4.1193,-4.1556,-4.1544,-4.211,-4.3432,-4.3335,-4.3721,-4.4773,-4.3449,-4.2742,-4.2771,-4.1557,-4.0968,-4.102,-4.2767,-4.3598,-4.3649,-4.4986,-4.5593,-4.5604,-4.593,-4.6056,-4.6046,-4.6033,-4.5983,-4.5964,-4.5994,-4.6016,-4.6056,-4.6102,-4.6119,-4.6166]}]]